[[{"header":{"parameterUnit":"m.s-1","parameterCategory":1,"la1":30.6,"la2":28.766,"lo1":-90.7593,"lo2":-88.6598,"dy":0.0162,"dx":0.0183,"nx":116,"ny":114,"refTime":"2023-05-26T06:00:00:Z","depth":0,"parameterNumber":2,"parameterNumberName":"U-component_of_WINDS"},"data":[0.0,0.0,0.0,0.0,0.0,0.0,0.0,0.0,0.0,0.0,0.0,0.0,0.0,0.0,0.0,0.0,0.0,0.0,0.0,0.0,0.0,0.0,0.0,0.0,0.0,0.0,0.0,0.0,0.0,0.0,0.0,0.0,0.0,0.0,0.0,0.0,0.0,0.0,0.0,0.0,0.0,0.0,0.0,0.0,0.0,0.0,0.0,0.0,0.0,0.0,0.0,0.0,0.0,0.0,0.0,0.0,0.0,0.0,0.0,0.0,0.0,0.0,0.0,0.0,0.0,0.0,0.0,0.0,0.0,0.0,0.0,0.0,0.0,0.0,0.0,0.0,0.0,0.0,0.0,0.0,0.0,0.0,0.0,0.0,0.0,0.0,0.0,0.0,0.0,0.0,0.0,0.0,0.0,0.0,0.0,0.0,0.0,0.0,0.0,0.0,0.0,0.0,0.0,0.0,0.0,0.0,0.0,0.0,0.0,0.0,0.0,0.0,0.0,0.0,0.0,0.0,0.0,0.0,0.0,0.0,0.0,0.0,0.0,0.0,0.0,0.0,0.0,0.0,0.0,0.0,0.0,0.0,0.0,0.0,0.0,0.0,0.0,0.0,0.0,0.0,0.0,0.0,0.0,0.0,0.0,0.0,0.0,0.0,0.0,0.0,0.0,0.0,0.0,0.0,0.0,0.0,0.0,0.0,0.0,0.0,0.0,0.0,0.0,0.0,0.0,0.0,0.0,0.0,0.0,0.0,0.0,0.0,0.0,0.0,0.0,0.0,0.0,0.0,0.0,0.0,0.0,0.0,0.0,0.0,0.0,0.0,0.0,0.0,0.0,0.0,0.0,0.0,0.0,0.0,0.0,0.0,0.0,0.0,0.0,0.0,0.0,0.0,0.0,0.0,0.0,0.0,0.0,0.0,0.0,0.0,0.0,0.0,0.0,0.0,0.0,0.0,0.0,0.0,0.0,0.0,0.0,0.0,0.0,0.0,0.0,0.0,0.0,0.0,0.0,0.0,0.0,0.0,0.0,0.0,0.0,0.0,0.0,0.0,0.0,0.0,0.0,0.0,0.0,0.0,0.0,0.0,0.0,0.0,0.0,0.0,0.0,0.0,0.0,0.0,0.0,0.0,0.0,0.0,0.0,0.0,0.0,0.0,0.0,0.0,0.0,0.0,0.0,0.0,0.0,0.0,0.0,0.0,0.0,0.0,0.0,0.0,0.0,0.0,0.0,0.0,0.0,0.0,0.0,0.0,0.0,0.0,0.0,0.0,0.0,0.0,0.0,0.0,0.0,0.0,0.0,0.0,0.0,0.0,0.0,0.0,0.0,0.0,0.0,0.0,0.0,0.0,0.0,0.0,0.0,0.0,0.0,0.0,0.0,0.0,0.0,0.0,0.0,0.0,0.0,0.0,0.0,0.0,0.0,0.0,0.0,0.0,0.0,0.0,0.0,0.0,0.0,0.0,0.0,0.0,0.0,0.0,0.0,0.0,0.0,0.0,0.0,0.0,0.0,0.0,0.0,0.0,0.0,0.0,0.0,0.0,0.0,0.0,0.0,0.0,0.0,0.0,0.0,0.0,0.0,0.0,0.0,0.0,0.0,0.0,0.0,0.0,0.0,0.0,0.0,0.0,0.0,0.0,0.0,0.0,0.0,0.0,0.0,0.0,0.0,0.0,0.0,0.0,0.0,0.0,0.0,0.0,0.0,0.0,0.0,0.0,0.0,0.0,0.0,0.0,0.0,0.0,0.0,0.0,0.0,0.0,0.0,0.0,0.0,0.0,0.0,0.0,0.0,0.0,0.0,0.0,0.0,0.0,0.0,0.0,0.0,0.0,0.0,0.0,0.0,0.0,0.0,0.0,0.0,0.0,0.0,0.0,0.0,0.0,0.0,0.0,0.0,0.0,0.0,0.0,0.0,0.0,0.0,0.0,0.0,0.0,0.0,0.0,0.0,0.0,0.0,0.0,0.0,0.0,0.0,0.0,0.0,0.0,0.0,0.0,0.0,0.0,0.0,0.0,0.0,0.0,0.0,0.0,0.0,0.0,0.0,0.0,0.0,0.0,0.0,0.0,0.0,0.0,0.0,0.0,0.0,0.0,0.0,0.0,0.0,0.0,0.0,0.0,0.0,0.0,0.0,0.0,0.0,0.0,0.0,0.0,0.0,0.0,0.0,0.0,0.0,0.0,0.0,0.0,0.0,0.0,0.0,0.0,0.0,0.0,0.0,0.0,0.0,0.0,0.0,0.0,0.0,0.0,0.0,0.0,0.0,0.0,0.0,0.0,0.0,0.0,0.0,0.0,0.0,0.0,0.0,0.0,0.0,0.0,0.0,0.0,0.0,0.0,0.0,0.0,0.0,0.0,0.0,0.0,0.0,0.0,0.0,0.0,0.0,0.0,0.0,0.0,0.0,0.0,0.0,0.0,0.0,0.0,0.0,0.0,0.0,0.0,0.0,0.0,0.0,0.0,0.0,0.0,0.0,0.0,0.0,0.0,0.0,0.0,0.0,0.0,0.0,0.0,0.0,0.0,0.0,0.0,0.0,0.0,0.0,0.0,0.0,0.0,0.0,0.0,0.0,0.0,0.0,0.0,0.0,0.0,0.0,0.0,0.0,0.0,0.0,0.0,0.0,0.0,0.0,0.0,0.0,0.0,0.0,0.0,0.0,0.0,0.0,0.0,0.0,0.0,0.0,0.0,0.0,0.0,0.0,0.0,0.0,0.0,0.0,0.0,0.0,0.0,0.0,0.0,0.0,0.0,0.0,0.0,0.0,0.0,0.0,0.0,0.0,0.0,0.0,0.0,0.0,0.0,0.0,0.0,0.0,0.0,0.0,0.0,0.0,0.0,0.0,0.0,0.0,0.0,0.0,0.0,0.0,0.0,0.0,0.0,0.0,0.0,0.0,0.0,0.0,0.0,0.0,0.0,0.0,0.0,0.0,0.0,0.0,0.0,0.0,0.0,0.0,0.0,0.0,0.0,0.0,0.0,0.0,0.0,0.0,0.0,0.0,0.0,0.0,0.0,0.0,0.0,0.0,0.0,0.0,0.0,0.0,0.0,0.0,0.0,0.0,0.0,0.0,0.0,0.0,0.0,0.0,0.0,0.0,0.0,0.0,0.0,0.0,0.0,0.0,0.0,0.0,0.0,0.0,0.0,0.0,0.0,0.0,0.0,0.0,0.0,0.0,0.0,0.0,0.0,0.0,0.0,0.0,0.0,0.0,0.0,0.0,0.0,0.0,0.0,0.0,0.0,0.0,0.0,0.0,0.0,0.0,0.0,0.0,0.0,0.0,0.0,0.0,0.0,0.0,0.0,0.0,0.0,0.0,0.0,0.0,0.0,0.0,0.0,0.0,0.0,0.0,0.0,0.0,0.0,0.0,0.0,0.0,0.0,0.0,0.0,0.0,0.0,0.0,0.0,0.0,0.0,0.0,0.0,0.0,0.0,0.0,0.0,0.0,0.0,0.0,0.0,0.0,0.0,0.0,0.0,0.0,0.0,0.0,0.0,0.0,0.0,0.0,0.0,0.0,0.0,0.0,0.0,0.0,0.0,0.0,0.0,0.0,0.0,0.0,0.0,0.0,0.0,0.0,0.0,0.0,0.0,0.0,0.0,0.0,0.0,0.0,0.0,0.0,0.0,0.0,0.0,0.0,0.0,0.0,0.0,0.0,0.0,0.0,0.0,0.0,0.0,0.0,0.0,0.0,0.0,0.0,0.0,0.0,0.0,0.0,0.0,0.0,0.0,0.0,0.0,0.0,0.0,0.0,0.0,0.0,0.0,0.0,0.0,0.0,0.0,0.0,0.0,0.0,0.0,0.0,0.0,0.0,0.0,0.0,0.0,0.0,0.0,0.0,0.0,0.0,0.0,0.0,0.0,0.0,0.0,0.0,0.0,0.0,0.0,0.0,0.0,0.0,0.0,0.0,0.0,0.0,0.0,0.0,0.0,0.0,0.0,0.0,0.0,0.0,0.0,0.0,0.0,0.0,0.0,0.0,0.0,0.0,0.0,0.0,0.0,0.0,0.0,0.0,0.0,0.0,0.0,0.0,0.0,0.0,0.0,0.0,0.0,0.0,0.0,0.0,0.0,0.0,0.0,0.0,0.0,0.0,0.0,0.0,0.0,0.0,0.0,0.0,0.0,0.0,0.0,0.0,0.0,0.0,0.0,0.0,0.0,0.0,0.0,0.0,0.0,0.0,0.0,0.0,0.0,0.0,0.0,0.0,0.0,0.0,0.0,0.0,0.0,0.0,0.0,0.0,0.0,0.0,0.0,0.0,0.0,0.0,0.0,0.0,0.0,0.0,0.0,0.0,0.0,0.0,0.0,0.0,0.0,0.0,0.0,0.0,0.0,0.0,0.0,0.0,0.0,0.0,0.0,0.0,0.0,0.0,0.0,0.0,0.0,0.0,0.0,0.0,0.0,0.0,0.0,0.0,0.0,0.0,0.0,0.0,0.0,0.0,0.0,0.0,0.0,0.0,0.0,0.0,0.0,0.0,0.0,0.0,0.0,0.0,0.0,0.0,0.0,0.0,0.0,0.0,0.0,0.0,0.0,0.0,0.0,0.0,0.0,0.0,0.0,0.0,0.0,0.0,0.0,0.0,0.0,0.0,0.0,0.0,0.0,0.0,0.0,0.0,0.0,0.0,0.0,0.0,0.0,0.0,0.0,0.0,0.0,0.0,0.0,0.0,0.0,0.0,0.0,0.0,0.0,0.0,0.0,0.0,0.0,0.0,0.0,0.0,0.0,0.0,0.0,0.0,0.0,0.0,0.0,0.0,0.0,0.0,0.0,0.0,0.0,0.0,0.0,0.0,0.0,0.0,0.0,0.0,0.0,0.0,0.0,0.0,0.0,0.0,0.0,0.0,0.0,0.0,0.0,0.0,0.0,0.0,0.0,0.0,0.0,0.0,0.0,0.0,0.0,0.0,0.0,0.0,0.0,0.0,0.0,0.0,0.0,0.0,0.0,0.0,0.0,0.0,0.0,0.0,0.0,0.0,0.0,0.0,0.0,0.0,0.0,0.0,0.0,0.0,0.0,0.0,0.0,0.0,0.0,0.0,0.0,0.0,0.0,0.0,0.0,0.0,0.0,0.0,0.0,0.0,0.0,0.0,0.0,0.0,0.0,0.0,0.0,0.0,0.0,0.0,0.0,0.0,0.0,0.0,0.0,0.0,0.0,0.0,0.0,0.0,0.0,0.0,0.0,0.0,0.0,0.0,0.0,0.0,0.0,0.0,0.0,0.0,0.0,0.0,0.0,0.0,0.0,0.0,0.0,0.0,0.0,0.0,0.0,0.0,0.0,0.0,0.0,0.0,0.0,0.0,0.0,0.0,0.0,0.0,0.0,0.0,0.0,0.0,0.0,0.0,0.0,0.0,0.0,0.0,0.0,0.0,0.0,0.0,0.0,0.0,0.0,0.0,0.0,0.0,0.0,0.0,0.0,0.0,0.0,0.0,0.0,0.0,0.0,0.0,0.0,0.0,0.0,0.0,0.0,0.0,0.0,0.0,0.0,0.0,0.0,0.0,0.0,0.0,0.0,0.0,0.0,0.0,0.0,0.0,0.0,0.0,0.0,0.0,0.0,0.0,0.0,0.0,0.0,0.0,0.0,0.0,0.0,0.0,0.0,0.0,0.0,0.0,0.0,0.0,0.0,0.0,0.0,0.0,0.0,0.0,0.0,0.0,0.0,0.0,0.0,0.0,0.0,0.0,0.0,0.0,0.0,0.0,0.0,0.0,0.0,0.0,0.0,0.0,0.0,0.0,0.0,0.0,0.0,0.0,0.0,0.0,0.0,0.0,0.0,0.0,0.0,0.0,0.0,0.0,0.0,0.0,0.0,0.0,0.0,0.0,0.0,0.0,0.0,0.0,0.0,0.0,0.0,0.0,0.0,0.0,0.0,0.0,0.0,0.0,0.0,0.0,0.0,0.0,0.0,0.0,0.0,0.0,0.0,0.0,0.0,0.0,0.0,0.0,0.0,0.0,0.0,0.0,0.0,0.0,0.0,0.0,0.0,0.0,0.0,0.0,0.0,0.0,0.0,0.0,0.0,0.0,0.0,0.0,0.0,0.0,0.0,3.0529,3.1378,0.0,0.0,0.0,0.0,0.0,0.0,0.0,0.0,0.0,0.0,0.0,0.0,0.0,0.0,0.0,0.0,0.0,0.0,0.0,0.0,0.0,0.0,0.0,0.0,0.0,0.0,0.0,0.0,0.0,0.0,0.0,0.0,0.0,0.0,0.0,0.0,0.0,0.0,3.0251,2.9857,2.9626,3.0644,3.127,3.1604,0.0,0.0,0.0,0.0,0.0,0.0,0.0,0.0,0.0,0.0,0.0,0.0,0.0,0.0,0.0,0.0,0.0,0.0,0.0,0.0,0.0,0.0,0.0,0.0,0.0,0.0,0.0,0.0,0.0,0.0,0.0,0.0,0.0,0.0,0.0,0.0,0.0,0.0,0.0,0.0,0.0,0.0,0.0,0.0,0.0,0.0,0.0,0.0,0.0,0.0,0.0,0.0,0.0,0.0,0.0,0.0,0.0,0.0,0.0,0.0,0.0,0.0,0.0,0.0,0.0,0.0,0.0,0.0,0.0,0.0,2.9586,3.0652,0.0,0.0,0.0,0.0,0.0,0.0,0.0,0.0,0.0,0.0,0.0,0.0,0.0,0.0,0.0,0.0,0.0,0.0,0.0,0.0,0.0,0.0,0.0,2.6977,2.7336,2.7437,2.7921,2.8453,0.0,0.0,0.0,0.0,0.0,0.0,0.0,2.9774,2.9399,2.9418,2.895,2.844,2.7989,2.8739,2.9371,2.9923,3.1601,0.0,0.0,0.0,0.0,0.0,0.0,0.0,0.0,0.0,0.0,0.0,0.0,0.0,0.0,0.0,0.0,0.0,0.0,0.0,0.0,0.0,0.0,0.0,0.0,0.0,0.0,0.0,0.0,0.0,0.0,0.0,0.0,0.0,0.0,0.0,0.0,0.0,0.0,0.0,0.0,0.0,0.0,0.0,0.0,0.0,0.0,0.0,0.0,0.0,0.0,0.0,0.0,0.0,0.0,0.0,0.0,0.0,0.0,0.0,0.0,0.0,0.0,0.0,2.7206,2.7206,2.7184,2.6948,2.6401,2.5733,2.783,2.8864,2.9061,2.8768,0.0,0.0,0.0,0.0,0.0,0.0,0.0,0.0,0.0,0.0,0.0,0.0,0.0,0.0,0.0,0.0,0.0,0.0,0.0,0.0,0.0,2.6977,2.7487,2.7946,2.848,2.9362,3.0742,0.0,0.0,0.0,0.0,0.0,2.8023,2.7185,2.6363,2.5538,2.5592,2.6197,2.7412,2.7536,2.7632,2.7822,3.016,3.1459,3.1854,0.0,0.0,0.0,0.0,0.0,0.0,0.0,0.0,0.0,0.0,0.0,0.0,0.0,0.0,0.0,0.0,0.0,0.0,0.0,0.0,0.0,0.0,0.0,0.0,0.0,0.0,0.0,0.0,0.0,0.0,0.0,0.0,0.0,0.0,0.0,0.0,0.0,0.0,0.0,0.0,0.0,2.7036,2.6569,0.0,0.0,0.0,0.0,0.0,0.0,0.0,0.0,0.0,0.0,0.0,0.0,0.0,2.4445,2.6138,2.6159,2.6646,2.761,2.761,2.761,2.7588,2.6427,2.5813,2.5621,2.4846,0.0,2.6114,2.5511,0.0,0.0,0.0,0.0,0.0,0.0,0.0,0.0,0.0,0.0,0.0,0.0,0.0,0.0,0.0,0.0,0.0,0.0,0.0,0.0,0.0,2.7236,2.7971,2.8505,2.9057,2.977,3.0564,3.0468,0.0,0.0,0.0,2.7835,2.6348,2.5039,2.4434,2.4532,2.5147,2.5941,2.6851,2.6851,2.6851,2.6911,2.8309,2.9223,2.9767,3.0515,0.0,0.0,0.0,0.0,0.0,0.0,0.0,0.0,0.0,0.0,0.0,0.0,0.0,0.0,0.0,0.0,0.0,0.0,0.0,0.0,0.0,0.0,0.0,0.0,0.0,0.0,0.0,0.0,0.0,0.0,0.0,0.0,0.0,0.0,0.0,0.0,0.0,0.0,0.0,2.6409,2.6043,2.4743,2.6195,2.6881,0.0,0.0,0.0,0.0,0.0,0.0,0.0,0.0,0.0,2.3342,2.3712,2.4292,2.5128,2.5128,2.5523,2.6229,2.5433,2.5043,2.4997,2.3655,2.2936,2.2693,2.209,2.2152,2.2688,2.284,2.2912,2.2782,0.0,0.0,0.0,0.0,2.1732,2.148,0.0,0.0,0.0,0.0,0.0,0.0,0.0,0.0,0.0,0.0,0.0,0.0,2.5988,2.7069,2.7971,2.8631,2.9233,2.9827,3.0414,2.9936,2.9356,2.8793,2.7316,2.5906,2.4554,2.3065,2.2894,2.4113,2.4854,2.5535,2.6112,2.6396,2.6233,2.5763,2.6551,2.7354,2.8184,2.9744,2.9821,2.8888,0.0,0.0,0.0,0.0,0.0,0.0,0.0,0.0,0.0,0.0,0.0,0.0,0.0,0.0,0.0,0.0,0.0,0.0,0.0,0.0,0.0,0.0,0.0,0.0,0.0,0.0,0.0,0.0,0.0,0.0,0.0,0.0,0.0,0.0,0.0,0.0,0.0,2.5224,2.5063,2.2893,2.4566,2.5225,0.0,0.0,0.0,0.0,0.0,0.0,2.127,2.1484,2.1887,2.2542,2.3852,2.4629,2.4723,2.4375,2.4387,2.4737,2.3407,2.2779,2.2712,2.1395,2.0623,2.0293,1.9868,1.9673,1.974,2.0502,2.0771,2.0576,1.9203,1.8635,1.8741,2.0274,2.0836,2.1011,0.0,0.0,0.0,0.0,0.0,0.0,0.0,0.0,0.0,0.0,0.0,2.3403,2.492,2.5987,2.6984,2.8047,2.8631,2.9566,3.1058,2.9182,2.8055,2.8131,2.6077,2.4048,2.2209,2.1221,2.1638,2.3536,2.358,2.4113,2.5105,2.606,2.5469,2.3731,2.5201,2.6706,2.8122,2.8227,2.851,2.8888,2.8888,0.0,0.0,0.0,0.0,0.0,0.0,0.0,0.0,0.0,0.0,0.0,0.0,0.0,0.0,0.0,0.0,0.0,0.0,0.0,0.0,0.0,0.0,0.0,0.0,0.0,0.0,0.0,0.0,0.0,0.0,0.0,0.0,0.0,0.0,0.0,0.0,0.0,0.0,2.1693,2.3729,0.0,0.0,0.0,0.0,2.2094,2.1033,2.0432,2.0464,2.1659,2.2542,2.2955,2.4336,2.5234,2.5615,2.4362,2.3746,2.3764,2.2656,2.2154,2.2103,2.0761,2.014,2.0031,1.844,1.7738,1.7803,1.8396,1.8519,1.8162,1.695,1.6265,1.6292,1.8695,1.9588,1.977,0.0,0.0,0.0,0.0,0.0,0.0,0.0,0.0,2.2207,2.1982,2.2951,2.4017,2.4903,2.6198,2.7311,2.8047,2.7693,2.7653,2.8195,2.6951,2.5631,2.4418,2.4113,2.3067,2.1146,2.0465,2.1116,2.3109,2.2727,2.3397,2.4998,2.4707,2.4199,2.3585,2.511,2.6105,2.6657,2.74,2.7982,2.838,2.838,2.8072,0.0,0.0,0.0,0.0,0.0,0.0,0.0,0.0,0.0,0.0,0.0,0.0,0.0,0.0,0.0,0.0,0.0,0.0,0.0,0.0,0.0,0.0,0.0,0.0,0.0,0.0,0.0,0.0,0.0,0.0,0.0,0.0,0.0,0.0,0.0,0.0,0.0,2.1429,2.2611,0.0,2.1533,2.0751,2.0332,2.0332,1.9254,1.8671,1.8861,2.0818,2.2197,2.28,2.4852,2.5674,2.5122,2.4663,2.3901,2.2917,2.1666,2.0982,2.0781,1.9379,1.8666,1.8457,1.7859,1.7608,1.7621,1.7834,1.7627,1.713,1.6535,1.6086,1.6008,1.7692,1.8342,1.8503,0.0,0.0,0.0,0.0,0.0,0.0,0.0,0.0,2.1423,2.084,2.2332,2.3671,2.4242,2.5641,2.6731,2.7292,2.6593,2.596,2.5589,2.449,2.3114,2.1462,2.1787,2.1531,2.0605,2.0293,2.0927,2.26,2.2208,2.2672,2.3981,2.3654,2.3158,2.2563,2.3913,2.4627,2.4889,2.596,2.7064,2.8097,2.8097,2.7896,2.7591,0.0,0.0,0.0,0.0,0.0,0.0,0.0,0.0,0.0,0.0,0.0,0.0,0.0,0.0,0.0,0.0,0.0,0.0,0.0,0.0,0.0,0.0,0.0,0.0,0.0,0.0,0.0,0.0,0.0,0.0,0.0,0.0,0.0,0.0,2.1467,2.1794,2.0923,2.1644,2.1704,2.0463,1.9576,1.9088,1.9088,1.8357,1.8212,1.8862,2.0903,2.2237,2.2679,2.4749,2.5282,2.4044,2.3597,2.2838,2.1813,2.057,1.9869,1.9653,1.8632,1.8063,1.7903,1.7702,1.7608,1.7608,1.7608,1.7314,1.6846,1.6565,1.6299,1.6233,1.7397,1.79,1.8069,0.0,0.0,0.0,0.0,0.0,0.0,0.0,2.019,1.9916,1.9882,2.1107,2.2196,2.2777,2.4095,2.5147,2.5622,2.5279,2.4562,2.343,2.1928,2.0637,1.9635,1.9219,1.9529,2.0644,2.0644,2.1087,2.2056,2.2019,2.2,2.2019,2.2973,2.2395,2.0644,2.1564,2.2328,2.2923,2.3882,2.5723,2.798,2.8024,2.8024,2.8131,0.0,0.0,0.0,0.0,0.0,0.0,0.0,0.0,0.0,0.0,0.0,0.0,0.0,0.0,0.0,0.0,0.0,0.0,0.0,0.0,0.0,0.0,0.0,0.0,0.0,0.0,0.0,0.0,0.0,0.0,0.0,0.0,0.0,2.0607,2.1998,2.2141,2.0152,2.0866,2.0756,1.8751,1.8531,1.8531,1.8517,1.8517,1.9154,2.059,2.1963,2.2685,2.2675,2.4062,2.4062,2.2488,2.1171,2.0508,2.0454,1.9416,1.8903,1.889,1.8624,1.849,1.8437,1.7876,1.7608,1.7608,1.7608,1.7474,1.723,1.6846,1.67,1.681,1.7717,1.8202,1.8415,0.0,0.0,0.0,0.0,0.0,0.0,0.0,2.0277,2.0185,1.9549,2.0686,2.1635,2.18,2.2813,2.3347,2.3013,2.2188,2.127,2.0154,1.9005,1.8748,1.9562,1.9077,1.982,2.2076,2.1496,2.1795,2.308,2.2355,2.2,2.2,2.1603,2.1107,2.0644,2.1564,2.2082,2.2322,2.3319,2.4331,2.5434,2.6513,2.6448,2.5743,0.0,0.0,0.0,0.0,0.0,0.0,0.0,0.0,0.0,0.0,0.0,0.0,0.0,0.0,0.0,0.0,0.0,0.0,0.0,0.0,0.0,0.0,0.0,0.0,0.0,0.0,0.0,0.0,0.0,0.0,0.0,1.8521,1.9126,1.9386,1.9963,2.0314,2.0143,2.039,2.0271,1.9537,1.9439,1.9359,1.9174,1.916,1.9319,1.9733,2.1868,2.2715,2.1917,2.4074,2.4137,2.1861,2.1485,2.0769,1.9705,1.94,1.9132,1.889,1.8624,1.837,1.8116,1.7756,1.7608,1.7608,1.7608,1.8117,1.878,1.7305,1.658,1.6429,1.6714,1.6963,1.7186,0.0,0.0,0.0,0.0,0.0,0.0,0.0,1.9892,1.9996,1.9134,2.0553,2.151,2.1186,2.157,2.1652,2.1153,2.0003,1.8756,1.7414,1.6895,1.7229,1.8591,1.8765,1.994,2.236,2.1912,2.2044,2.2858,2.2301,2.1792,2.1394,2.0857,2.0605,2.0625,2.1164,2.1413,2.1489,2.247,2.2717,2.2647,2.4439,2.5175,2.5239,2.544,2.5229,2.4844,2.5349,2.6028,2.6742,2.6912,0.0,0.0,0.0,0.0,0.0,0.0,0.0,0.0,0.0,0.0,0.0,0.0,0.0,0.0,0.0,0.0,0.0,0.0,0.0,0.0,0.0,0.0,0.0,0.0,1.8891,1.949,1.9639,1.98,2.007,2.0374,2.0414,2.0347,2.0187,2.0699,2.0963,2.0779,2.1423,2.2062,2.2669,2.4114,2.4631,2.4012,2.5412,2.4797,2.1866,2.2495,2.1977,2.0314,2.0314,2.0215,2.0005,1.9079,1.8504,1.8196,1.7916,1.8007,1.8447,1.8447,1.9239,2.0312,0.0,0.0,0.0,0.0,1.7714,1.7831,0.0,0.0,0.0,0.0,0.0,0.0,0.0,1.9415,1.961,1.8773,2.0465,2.1451,2.0644,2.0292,1.9965,1.9597,1.8336,1.6946,1.5488,1.5705,1.6355,1.7435,1.8579,2.0119,2.2111,2.217,2.217,2.217,2.217,2.1621,2.0605,2.0605,2.0605,2.0605,2.0605,2.0625,2.0722,2.1416,2.1134,2.0382,2.2248,2.392,2.5348,2.5913,2.5483,2.4745,2.5734,2.5589,2.5041,2.6031,0.0,0.0,0.0,0.0,0.0,0.0,0.0,0.0,0.0,0.0,0.0,0.0,0.0,0.0,0.0,0.0,0.0,0.0,0.0,0.0,0.0,0.0,0.0,0.0,1.9703,2.037,2.0753,2.0806,2.0793,2.0766,2.0753,2.0801,2.0947,2.2043,2.2811,2.2944,2.4298,2.5649,2.6979,2.7207,0.0,0.0,0.0,2.5755,2.256,2.3872,2.3682,2.1915,2.1915,2.19,2.1798,2.0161,1.9276,1.903,1.87,1.9063,1.9894,1.9894,2.0698,2.1761,2.0087,1.9568,1.9774,1.9774,1.9633,1.9648,0.0,0.0,0.0,0.0,0.0,0.0,0.0,1.9786,1.9708,1.9219,1.9835,1.9986,1.9114,1.8634,1.8003,1.703,1.6445,1.6054,1.5938,1.6588,1.7496,1.8618,1.9726,2.1221,2.3154,2.3209,2.3209,2.3209,2.3209,2.232,2.0605,2.0605,2.0605,2.0605,2.0605,2.0781,2.1014,2.0235,2.0536,2.1521,2.1283,2.1596,2.2299,2.3349,2.3606,2.3474,2.3691,2.45,2.5463,2.557,2.652,2.7454,2.6473,2.591,0.0,0.0,0.0,0.0,0.0,0.0,0.0,0.0,0.0,0.0,0.0,0.0,0.0,0.0,0.0,0.0,0.0,0.0,0.0,1.9573,2.0174,2.0806,2.1341,2.1422,2.1328,2.1056,2.1029,2.1454,2.2531,2.2869,2.3457,2.4548,2.4924,2.5215,2.5505,2.6646,2.675,2.5563,2.6675,2.641,2.4563,2.4825,2.4643,2.3955,2.3955,0.0,2.3359,2.2798,2.2496,2.2443,2.2103,2.1883,2.1768,2.1768,2.2384,2.315,2.147,2.085,2.089,2.089,2.102,2.1241,0.0,0.0,0.0,0.0,0.0,0.0,0.0,2.0098,2.0078,1.9668,1.998,2.0,1.9318,1.877,1.7945,1.6663,1.5908,1.5782,1.6405,1.7528,1.8489,1.9266,2.0586,2.1981,2.3471,2.3981,2.4235,2.4235,2.3745,2.275,2.1279,2.0818,2.0703,2.0898,2.0898,2.1152,2.1522,2.0911,2.0889,2.1325,2.1532,2.1484,2.1436,2.2624,2.3101,2.3101,2.3101,2.3634,2.4381,2.4539,2.5283,2.6079,2.5712,2.506,2.4501,0.0,0.0,0.0,0.0,0.0,0.0,0.0,0.0,0.0,0.0,0.0,0.0,0.0,0.0,1.8543,1.8836,0.0,2.0191,2.0632,2.1074,2.1462,2.1756,2.1796,2.1743,2.1563,2.155,2.2144,2.3702,2.4378,2.5402,2.6994,2.7646,2.7995,2.7995,2.871,2.8768,2.8024,2.871,2.8281,2.6568,2.7294,2.6961,2.5603,2.5822,2.5568,2.4931,2.4239,2.3751,2.3386,2.3203,2.3347,2.3713,2.4378,2.4937,2.5283,2.4414,2.342,2.2448,2.2448,2.2544,2.2793,0.0,0.0,0.0,0.0,0.0,0.0,0.0,2.0351,2.0429,1.9962,2.0312,2.039,1.9844,1.9255,1.8368,1.7102,1.613,1.6134,1.7333,1.848,1.9451,2.0167,2.1446,2.2668,2.3763,2.4582,2.4998,2.4998,2.4291,2.3438,2.2429,2.1579,2.1352,2.1649,2.1428,2.1581,2.2012,2.1763,2.1469,2.1225,2.1976,2.2013,2.1747,2.2731,2.3101,2.3101,2.3101,2.3101,2.3137,2.3364,2.3733,2.4124,2.4355,2.3852,2.3267,2.3704,2.3214,0.0,0.0,0.0,0.0,0.0,0.0,0.0,0.0,1.8681,1.813,1.8529,1.9036,1.9573,2.0054,2.0605,2.1114,2.1596,2.1863,2.2031,2.2171,2.2483,2.2742,2.2898,2.2673,2.3326,2.5384,2.6479,2.7741,2.9434,3.0462,3.0976,3.0898,3.0898,3.0898,3.0898,3.0898,3.0131,2.8589,2.9738,2.9326,2.7371,2.7701,2.7491,2.6765,2.5789,2.5033,2.4449,2.4311,2.4712,2.56,2.6596,2.6986,2.6986,2.6986,2.5907,2.4317,2.4244,2.4262,2.4467,0.0,0.0,0.0,0.0,0.0,0.0,0.0,0.0,2.0429,1.9962,2.0312,2.0292,1.9471,1.8882,1.8191,1.7332,1.6931,1.7557,1.9495,1.957,2.0372,2.226,2.2512,2.3316,2.4802,2.4945,2.4998,2.4998,2.5372,2.5029,2.4024,2.344,2.3197,2.3199,2.2249,2.2051,2.2357,2.1296,2.1624,2.2741,2.1802,2.2016,2.2906,2.3057,2.3101,2.3101,2.3101,2.3101,2.3006,2.2399,2.2561,2.2869,2.2278,2.2087,2.2086,2.2142,2.1635,2.0991,2.0925,2.019,1.9386,1.9167,1.8618,1.863,0.0,2.0171,1.9786,2.0601,2.1029,2.1315,2.1381,2.1649,2.189,2.1924,2.1964,2.2198,2.2719,2.4217,2.5487,2.6032,2.5015,2.5577,2.8803,2.9235,2.9861,3.1135,3.1346,3.1289,3.0918,3.0898,3.0898,3.0898,3.0898,3.0801,3.0568,3.0762,3.048,2.9812,2.9841,2.9637,2.9172,2.865,2.8356,2.8249,2.7545,2.7277,2.7376,2.7117,2.6986,2.6986,2.6986,2.6851,2.6588,2.6245,2.6317,2.6555,0.0,0.0,0.0,0.0,0.0,0.0,0.0,0.0,0.0,2.0332,2.0468,2.0468,2.0097,1.9293,1.8748,1.8638,1.8536,1.9076,2.0421,2.1368,2.2372,2.3528,2.4169,2.4964,2.5914,2.6189,2.65,2.6802,2.6443,2.6032,2.5601,2.4168,2.365,2.3862,2.2749,2.2459,2.2828,2.231,2.2492,2.3076,2.2847,2.3073,2.3532,2.3767,2.3708,2.3454,2.3201,2.3279,0.0,2.3149,2.2995,2.2917,2.287,2.2469,2.1989,2.1921,2.1133,2.0208,1.9808,1.9476,1.9251,1.9381,1.9506,1.98,2.0655,2.0708,2.0708,2.1288,2.1737,2.2462,2.3738,2.3314,2.3181,2.4479,2.4678,2.4764,2.5037,2.6653,2.8233,2.9278,2.8892,2.9141,3.0549,3.0293,3.0624,3.2144,3.1797,3.1445,3.1269,3.1016,3.0898,3.0898,3.0898,3.0898,3.0898,3.0898,3.0664,3.0195,3.0469,3.0234,2.9598,2.9629,2.9394,2.8879,2.8836,2.8523,2.8054,2.8105,2.7988,2.7754,2.7754,2.7754,2.7676,2.7012,2.6875,2.6947,0.0,0.0,0.0,0.0,0.0,0.0,0.0,0.0,0.0,0.0,2.0605,2.0605,2.0605,1.9903,1.9598,2.0005,2.0042,2.054,2.1726,2.3001,2.4103,2.5014,2.58,2.6444,2.7007,2.737,2.7695,2.8097,2.7513,2.7225,2.7187,2.5239,2.45,2.4781,2.3316,2.2908,2.332,2.3652,2.3865,2.4049,2.4891,2.5127,2.5021,2.5304,2.522,2.4786,2.3678,2.3415,2.3569,2.3214,2.2968,2.2786,2.2803,2.2375,2.1774,2.135,2.0301,1.9192,1.8889,1.9025,1.9401,1.9907,2.0414,2.0855,2.1096,2.139,2.1832,2.2673,2.3256,2.4201,2.6335,2.579,2.5508,2.7104,2.7378,2.7408,2.7501,2.9028,3.0511,3.1417,3.1793,3.1958,3.1958,3.1423,3.1558,3.27,3.2226,3.1816,3.1699,3.1406,3.1191,3.1074,3.1055,3.1016,3.0898,3.0898,3.0723,3.0391,3.0723,3.0566,2.997,3.0117,2.9805,2.9121,2.9461,2.9246,2.8652,2.8848,2.875,2.8457,2.834,2.8301,2.8223,2.7598,2.7363,2.7298,0.0,0.0,0.0,0.0,0.0,0.0,0.0,0.0,0.0,0.0,0.0,0.0,0.0,2.0566,2.0703,2.1111,2.115,2.2009,2.397,2.4136,2.5075,2.7105,2.7237,2.7521,2.8049,2.8079,2.8097,2.8097,2.8593,2.8825,2.8787,2.7165,2.6418,2.6337,2.4082,2.3337,2.3859,2.5042,2.5777,2.6351,2.8055,2.843,2.796,2.7983,2.7895,2.7436,2.4739,2.3516,2.2947,2.1765,2.1769,2.2031,2.0867,2.0876,2.1091,1.9834,1.8617,1.7782,1.8371,1.8718,1.9212,2.0391,2.0869,2.1323,2.2178,2.2592,2.3454,2.5618,2.6274,2.7069,2.8948,2.9238,2.9254,2.9288,2.9339,2.9421,2.975,3.1095,3.198,3.1913,3.2747,3.3343,3.3343,3.3323,3.316,3.2832,3.2773,3.2578,3.2198,3.2179,3.1934,3.1504,3.1474,3.1309,3.0898,3.0898,3.0879,3.0859,3.0879,3.0879,3.0869,3.0391,2.9961,2.9579,2.9598,2.9579,2.952,2.9082,2.8879,2.884,2.8457,2.8301,2.8281,2.8262,2.8262,2.8144,0.0,0.0,0.0,0.0,0.0,0.0,0.0,0.0,0.0,0.0,0.0,0.0,0.0,0.0,0.0,0.0,2.2347,2.303,2.499,2.5841,2.6715,2.7783,2.8178,2.8641,2.9227,2.8831,2.8831,2.9227,2.9402,2.9679,3.0016,2.8701,2.8303,2.8633,2.7103,2.6497,2.667,2.7086,2.7568,2.8077,2.8611,2.8925,2.9038,2.8589,2.8231,2.7719,0.0,2.5894,2.5551,2.41,2.3332,2.28,2.1678,2.0887,2.016,1.9109,1.9012,1.9233,1.9133,1.9602,2.0321,2.1328,2.1764,2.2483,2.4472,2.4989,2.5696,2.7884,2.8107,2.8501,3.0368,2.9631,2.926,3.0817,3.1264,3.1597,3.2035,3.3603,3.4461,3.3823,3.4075,3.4043,3.3476,3.3164,3.3066,3.3203,3.2949,3.2734,3.2628,3.2355,3.1973,3.1494,3.1494,3.1328,3.0898,3.0898,3.0898,3.0898,3.0898,3.0898,3.0879,3.0723,3.041,3.0028,3.0341,3.0146,2.9618,2.9707,2.9609,2.9316,2.8867,2.8711,2.8672,2.8398,2.8476,2.8633,0.0,0.0,0.0,0.0,0.0,0.0,0.0,0.0,0.0,0.0,0.0,0.0,0.0,0.0,0.0,0.0,0.0,2.4198,2.5825,2.6613,2.7411,2.8353,2.8523,2.8982,2.9779,2.9007,2.9007,2.9804,2.9578,2.9779,3.0292,2.9157,2.8814,2.9151,2.8223,2.7891,2.8092,2.9114,2.9715,3.0018,3.1008,3.136,3.118,3.0417,2.9793,0.0,2.7905,2.7453,2.72,2.5401,2.3856,2.2546,2.1839,2.0547,1.9304,1.9626,1.9627,1.9686,2.0496,2.0763,2.12,2.2716,2.3222,2.4018,2.6559,2.7214,2.7802,2.9733,2.9798,2.9991,3.1626,3.084,3.0487,3.1985,3.257,3.3048,3.3638,3.4519,3.5,3.4726,3.4434,3.4082,3.3691,3.3262,3.3125,3.3367,3.3164,3.3008,3.3008,3.2754,3.2422,3.1992,3.1836,3.1543,3.1113,3.0957,3.0898,3.0898,3.0898,3.0898,3.0898,3.0898,3.0723,3.0469,3.0762,3.0566,3.0087,3.0156,3.0039,2.9774,2.9316,2.9141,2.9121,2.8848,2.8926,2.9101,0.0,0.0,0.0,0.0,0.0,0.0,0.0,0.0,0.0,0.0,0.0,0.0,0.0,0.0,0.0,0.0,0.0,0.0,2.6482,2.6562,2.7279,2.8825,2.8485,2.8749,2.9831,2.8855,2.8848,2.9934,2.9322,2.9309,2.9887,2.8752,2.8255,2.8263,2.7794,2.779,2.833,3.1139,3.2175,3.2205,3.4929,3.5319,3.4178,3.3136,3.2377,3.1518,2.8987,2.7984,2.7518,2.542,2.3173,2.1257,2.1208,1.982,1.8656,2.1075,2.0317,1.9358,2.2333,2.2312,2.2066,2.4648,2.5282,2.5929,2.8409,2.9142,2.9716,3.1208,3.1345,3.1529,3.2521,3.2715,3.2734,3.2793,3.3184,3.3757,3.4648,3.4062,3.3816,3.4648,3.4023,3.3691,3.4134,3.375,3.3464,3.3484,3.3445,3.3425,3.3425,3.3425,3.3242,3.2812,3.2433,3.2022,3.1562,3.1152,3.0957,3.0957,3.0957,3.0957,3.0957,3.0937,3.0918,3.0918,3.0898,3.0898,3.0859,3.041,3.0234,3.0195,2.9794,2.9637,2.9618,2.9598,2.9618,2.9579,0.0,0.0,0.0,0.0,0.0,0.0,0.0,0.0,0.0,0.0,0.0,0.0,0.0,0.0,0.0,0.0,0.0,0.0,2.7038,2.747,2.8052,2.8863,2.9884,3.0552,3.0839,3.1242,3.1604,3.1883,3.1035,3.0898,3.1414,3.041,3.0183,3.0571,3.113,3.1458,3.1645,3.3132,3.3961,3.4297,3.4612,3.4399,3.3728,3.2631,3.1155,2.9544,2.8475,2.6476,2.4215,2.3637,2.2209,2.0531,2.0047,1.9689,1.9523,1.9929,2.0845,2.2083,2.353,2.4948,2.631,2.7567,2.7861,2.8443,3.0742,3.1041,3.1223,3.2611,3.2109,3.1416,3.1376,3.1641,3.2051,3.2695,3.3691,3.4687,3.5566,3.5488,3.5332,3.5234,3.5019,3.4941,3.5059,3.4648,3.4512,3.4863,3.4277,3.3906,3.3906,3.3906,3.3574,3.2812,3.2695,3.2441,3.2042,3.1925,3.1866,3.1866,3.1866,3.1866,3.1866,3.1504,3.1367,3.1348,3.1035,3.0898,3.0879,3.0762,3.0703,3.0664,3.0215,3.0039,3.0,2.9715,2.9794,3.0019,0.0,0.0,0.0,0.0,0.0,0.0,0.0,0.0,0.0,0.0,0.0,0.0,0.0,0.0,0.0,0.0,0.0,0.0,0.0,2.7795,2.8405,2.9149,2.9998,3.0875,3.1783,3.1858,3.2121,3.2593,3.1847,3.1748,3.2258,3.1725,3.1625,3.1978,3.2707,3.307,3.3146,3.4464,3.5003,0.0,0.0,3.4307,3.3608,3.1663,3.0192,2.8939,2.7267,2.5123,2.3153,2.3466,2.2059,2.0066,1.9401,1.9941,2.1013,2.193,2.3363,2.4988,2.6626,2.7619,2.8526,2.9915,3.0099,3.0427,3.2245,3.2324,3.2073,3.2246,3.1582,3.0742,3.0137,3.0684,3.1406,3.1875,3.334,3.4726,3.5625,3.5566,3.5566,3.5918,3.5781,3.5664,3.5664,3.5605,3.5586,3.5664,3.4844,3.4336,3.4336,3.4336,3.4043,3.3379,3.3164,3.2773,3.2198,3.2198,3.2296,3.2472,3.2276,3.2296,3.2452,3.1992,3.1699,3.1474,3.1269,3.1055,3.0898,3.0898,3.0898,3.0859,3.0605,3.0508,3.0469,3.0263,3.0293,3.0508,0.0,0.0,0.0,0.0,0.0,0.0,0.0,0.0,0.0,0.0,0.0,0.0,0.0,0.0,0.0,0.0,0.0,0.0,0.0,0.0,2.8754,2.9583,2.9935,3.0953,3.277,3.1999,3.2067,3.2992,3.2382,3.234,3.277,3.2646,3.2593,3.2621,3.3218,3.3457,3.3585,3.5168,3.543,3.4789,3.4848,3.4295,3.3129,0.0,2.9234,2.8474,2.5504,2.3919,2.3353,2.3956,2.2559,2.0482,1.9963,2.1175,2.3184,2.5459,2.6759,2.7955,3.0323,3.0283,3.01,3.2311,3.2324,3.2111,3.3433,3.3164,3.2266,3.0976,3.0351,2.9841,2.9183,3.0004,3.0839,3.1279,3.2819,3.4355,3.541,3.5215,3.541,3.6656,3.6426,3.6177,3.6235,3.6562,3.6621,3.6255,3.5449,3.4902,3.4805,3.4785,3.459,3.4192,3.3789,3.3242,3.255,3.2531,3.2726,3.3047,3.2648,3.2648,3.2949,3.2511,3.2051,3.165,3.1621,3.1387,3.1084,3.0996,3.0976,3.0976,3.0918,3.0898,3.0898,3.0898,3.0898,3.0898,0.0,0.0,0.0,0.0,0.0,0.0,0.0,0.0,0.0,0.0,2.6076,2.6189,0.0,0.0,0.0,0.0,0.0,0.0,0.0,0.0,0.0,3.0253,3.2163,3.3391,3.3756,3.4388,3.4797,3.5001,3.4062,3.3659,3.3739,3.2947,3.2593,3.2629,3.3525,3.3911,3.3962,3.51,3.502,3.4151,3.4168,3.2621,3.0206,2.9719,0.0,0.0,2.3235,2.2913,2.3456,2.3517,2.3766,2.4091,2.4496,2.5496,2.674,2.7663,2.9269,3.0933,3.167,3.2766,3.4189,3.6355,3.5241,3.3958,3.5252,3.3569,3.1367,3.0106,2.9453,2.932,2.9955,2.9935,3.0653,3.3211,3.3584,3.4219,3.6206,3.6421,3.6577,3.7129,3.7129,3.7207,3.7523,3.7344,3.7305,3.7543,3.6816,3.605,3.5312,3.5273,3.5059,3.4609,3.4512,3.4414,3.4258,3.4258,3.4297,3.4375,3.3977,3.3821,3.386,3.3078,3.2637,3.2559,3.2237,3.2042,3.1944,3.1562,3.1406,3.1367,3.1035,3.0898,3.0898,3.0898,3.0898,3.0898,0.0,0.0,0.0,0.0,0.0,0.0,0.0,0.0,2.7287,2.8115,2.8275,2.8474,2.8929,2.8988,0.0,0.0,0.0,0.0,0.0,0.0,0.0,0.0,3.3226,3.4245,3.4773,3.5231,3.5519,3.5519,0.0,3.4789,3.4773,3.4324,3.4092,3.4126,3.4576,3.4789,3.4789,3.4756,3.4442,3.3859,3.2297,3.0786,2.9336,0.0,0.0,0.0,2.3767,2.421,2.5033,2.5222,2.6852,2.8531,2.697,2.8174,3.0354,3.1107,3.266,3.4487,3.6042,3.6416,3.6885,3.9078,3.7508,3.5415,3.5353,3.3517,3.1495,3.0214,3.0334,3.0794,3.1257,3.1732,3.2621,3.4368,3.4565,3.5182,3.7213,3.6822,3.666,3.7519,3.7617,3.7617,3.7598,3.7617,3.7519,3.7285,3.6929,3.6519,3.6108,3.5644,3.5293,3.5078,3.4824,3.4707,3.4707,3.4707,3.4824,3.5059,3.4609,3.4394,3.4375,3.375,3.3223,3.2793,3.2578,3.2246,3.1816,3.1572,3.1387,3.1172,3.0976,3.0898,3.0898,3.0898,3.0898,3.0898,0.0,0.0,0.0,0.0,0.0,0.0,0.0,2.7422,2.8505,2.9183,3.0136,3.0583,3.003,2.9955,2.993,0.0,0.0,0.0,0.0,0.0,0.0,0.0,0.0,0.0,3.5473,0.0,0.0,3.5519,3.5519,0.0,0.0,0.0,0.0,0.0,3.5277,3.5166,3.5116,3.4126,3.3435,0.0,0.0,2.9134,2.8331,0.0,0.0,0.0,0.0,2.6148,2.7149,2.7774,2.9927,3.1913,2.943,3.1035,3.3973,3.466,3.6122,3.8004,4.0224,3.983,3.9196,4.0958,3.893,3.6293,3.5358,3.3543,3.1833,3.0919,3.1571,3.2381,3.2682,3.3488,3.4379,3.5373,3.5555,3.6204,3.7954,3.7206,3.6848,3.7926,3.8066,3.793,3.7598,3.7871,3.7793,3.7164,3.7027,3.6851,3.6543,3.5898,3.5527,3.5527,3.5176,3.498,3.498,3.498,3.5156,3.5527,3.5059,3.4844,3.4824,3.4349,3.3743,3.3066,3.2969,3.2539,3.1884,3.1806,3.1543,3.1152,3.1055,3.0976,3.0898,3.0898,3.0898,3.0898,0.0,0.0,0.0,0.0,0.0,0.0,0.0,2.8424,2.9233,3.0312,3.0959,3.111,3.0563,3.0512,3.0331,0.0,0.0,0.0,0.0,0.0,0.0,0.0,0.0,0.0,0.0,0.0,0.0,3.5519,3.5519,0.0,0.0,0.0,0.0,0.0,0.0,3.4143,3.4092,3.3122,0.0,0.0,0.0,0.0,0.0,0.0,0.0,0.0,0.0,2.7757,2.9339,3.0639,3.1595,3.2391,3.3323,3.5422,3.7537,3.7626,3.9113,4.0931,4.1661,4.1753,4.1656,4.1863,3.8993,3.6134,3.6449,3.397,3.173,3.2071,3.2205,3.2682,3.397,3.371,3.4094,3.6524,3.6332,3.6405,3.7972,3.808,3.814,3.8481,3.8552,3.8532,3.8493,3.8496,3.8513,3.8435,3.8027,3.7269,3.6152,3.5996,3.5923,3.5923,3.5884,3.5864,3.5864,3.5864,3.5884,3.5923,3.5527,3.5332,3.5293,3.4486,3.4055,3.3958,3.3535,3.3289,3.3223,3.2832,3.2422,3.2042,3.1621,3.123,3.0898,3.0898,3.0898,3.0898,0.0,0.0,0.0,0.0,0.0,0.0,2.8405,2.8756,2.9308,3.0437,3.106,3.1311,3.111,3.1085,3.0733,0.0,0.0,0.0,0.0,0.0,0.0,0.0,0.0,0.0,0.0,0.0,3.5519,3.5519,3.5519,0.0,0.0,0.0,0.0,0.0,0.0,3.3688,3.3052,3.1429,0.0,0.0,0.0,0.0,0.0,0.0,0.0,0.0,0.0,0.0,3.0025,3.09,3.2271,3.3648,3.385,3.6046,3.8609,3.8969,4.0108,4.169,4.3948,4.3304,4.2246,4.3281,3.9726,3.6122,3.6593,3.4698,3.2942,3.3461,3.4215,3.5042,3.5916,3.5819,3.5878,3.6709,3.581,3.5612,3.7371,3.6842,3.6908,3.8586,3.8781,3.8738,3.8605,3.834,3.8086,3.7832,3.7637,3.7324,3.6816,3.6543,3.6523,3.6777,3.6289,3.6152,3.6406,3.6152,3.5982,3.5982,3.5859,3.5644,3.5391,3.5019,3.4603,3.4095,3.3887,3.3516,3.3027,3.2871,3.2559,3.2159,3.168,3.1406,3.123,3.0976,3.0898,3.0898,0.0,0.0,0.0,0.0,0.0,2.7846,2.8756,2.9057,2.9509,3.0462,3.106,3.1406,3.1406,3.126,3.0954,3.0483,0.0,0.0,0.0,0.0,0.0,0.0,0.0,0.0,0.0,0.0,3.5519,3.5519,3.5519,3.5519,0.0,0.0,3.466,3.3979,0.0,0.0,0.0,0.0,0.0,0.0,0.0,0.0,0.0,0.0,0.0,0.0,0.0,0.0,0.0,0.0,0.0,3.4775,3.4556,3.6184,3.8366,3.9445,4.0809,4.2564,4.5326,4.4818,4.3665,4.4389,4.0991,3.7435,3.7552,3.5831,3.4466,3.5302,3.6084,3.6808,3.7361,3.7587,3.7494,3.6807,3.5918,3.5763,3.7012,3.602,3.6164,3.8906,3.8528,3.8555,3.9866,3.9468,3.8811,3.7926,3.7734,3.7676,3.7676,3.7266,3.7129,3.7285,3.6601,3.6367,3.6695,3.623,3.5982,3.5982,3.5982,3.5859,3.5566,3.5312,3.5139,3.4959,3.4209,3.4084,3.4319,3.3373,3.3023,3.3014,3.2085,3.1719,3.166,3.123,3.1074,3.1074,0.0,0.0,0.0,0.0,0.0,0.0,0.0,2.9428,2.998,3.0512,3.106,3.1406,3.1406,3.0934,3.0978,3.1904,0.0,0.0,0.0,0.0,0.0,0.0,0.0,0.0,0.0,0.0,3.5519,3.5519,3.5519,3.5519,3.5473,3.4493,3.3996,3.391,0.0,0.0,0.0,0.0,0.0,0.0,0.0,0.0,0.0,0.0,0.0,0.0,0.0,0.0,0.0,0.0,0.0,0.0,0.0,3.6406,3.6859,3.9069,4.1628,4.4012,4.5196,4.6271,4.6643,4.4926,4.2602,4.0531,3.9732,3.7598,3.6186,3.7643,3.7563,3.7361,3.7889,3.8492,3.8388,3.6926,3.712,3.743,3.7231,3.6269,3.6703,3.9664,3.7654,3.7936,4.2769,4.2603,4.1317,3.9328,3.8789,3.8591,3.8591,3.8144,3.7734,3.7305,3.6929,3.6695,3.6714,3.623,3.5982,3.5982,3.5982,3.5982,3.5942,3.5098,3.5581,3.6947,3.4469,3.5201,3.7903,3.4705,3.409,3.4972,3.2954,3.2198,3.214,3.168,3.1474,3.1474,0.0,0.0,0.0,0.0,0.0,0.0,0.0,3.0622,3.096,3.1493,3.1701,3.1711,3.1417,3.1476,3.1856,3.2618,0.0,0.0,0.0,0.0,0.0,0.0,0.0,0.0,0.0,0.0,3.5519,3.5519,3.5519,3.5149,3.4476,3.416,3.3325,3.2055,3.1462,3.0839,0.0,0.0,0.0,0.0,0.0,0.0,3.0454,0.0,0.0,0.0,0.0,0.0,0.0,0.0,0.0,0.0,0.0,0.0,0.0,3.7688,3.9672,4.1806,4.2939,4.316,4.2777,4.1472,3.9512,3.793,3.7911,3.6814,3.6211,3.7693,3.7563,3.7487,3.8441,3.8768,3.8661,3.791,3.7935,3.7676,3.6579,3.6927,3.8003,4.0083,4.0507,4.1278,4.2807,4.1537,4.0791,4.1213,3.9871,3.8887,3.863,3.8437,3.8301,3.8184,3.748,3.7226,3.7519,3.6816,3.6465,3.6465,3.6152,3.5879,3.5586,3.5293,3.512,3.5012,3.4241,3.4916,3.6417,3.4258,3.4271,3.5402,3.3412,3.2598,3.257,3.2109,3.1983,3.1914,0.0,0.0,0.0,0.0,0.0,0.0,0.0,3.1499,3.1725,3.1706,3.1702,3.1665,3.1644,3.1889,3.2619,3.4001,0.0,0.0,0.0,0.0,0.0,0.0,0.0,0.0,0.0,3.5519,3.5639,3.5878,3.5485,3.4973,3.437,3.361,3.2508,3.1167,3.0846,3.0343,0.0,0.0,0.0,0.0,0.0,0.0,3.1909,0.0,0.0,0.0,0.0,0.0,0.0,0.0,0.0,0.0,0.0,0.0,0.0,0.0,3.8165,3.9597,4.1155,4.1389,4.1193,4.0926,3.9483,3.8178,3.8596,3.78,3.7285,3.8416,3.8191,3.8115,3.9044,3.8736,3.8289,3.8045,3.7546,3.7172,3.7233,3.7288,3.7833,3.9161,4.2413,4.3738,4.164,4.2006,4.2064,4.1391,4.0017,3.9023,3.863,3.8611,3.8611,3.8611,3.7891,3.7656,3.7894,3.709,3.6714,3.6695,3.623,3.5879,3.5625,3.5469,3.5343,3.5212,3.443,3.51,0.0,3.4984,3.5242,3.6505,3.4493,3.3809,3.3797,3.2785,3.2335,3.2159,0.0,0.0,0.0,0.0,0.0,0.0,0.0,0.0,3.2379,3.1464,3.1362,3.1564,3.2001,3.2213,3.3309,3.5705,0.0,0.0,0.0,0.0,0.0,0.0,0.0,0.0,0.0,3.5484,3.575,3.6393,3.5317,3.4799,3.4724,3.285,3.1638,3.1063,3.0222,2.988,0.0,0.0,0.0,0.0,0.0,0.0,0.0,0.0,0.0,0.0,0.0,0.0,0.0,0.0,0.0,0.0,0.0,0.0,0.0,0.0,0.0,0.0,0.0,4.065,4.1302,4.2333,4.148,4.0499,4.1026,3.9973,0.0,3.9572,3.9271,3.907,3.9597,3.8479,3.7557,3.7684,3.648,3.6305,3.8603,3.7657,3.7009,3.7743,4.3508,4.5387,4.0141,4.3522,4.4399,4.0391,3.9567,3.9062,3.863,3.8611,3.8611,3.8611,3.8184,3.7933,3.7933,3.7168,3.6842,3.6907,3.6338,3.6069,3.6127,3.5634,3.5976,3.6808,3.5096,3.5832,3.8119,3.6642,3.6954,3.8149,3.6067,3.5458,3.5549,3.357,3.2628,3.2276,0.0,0.0,0.0,0.0,0.0,0.0,0.0,0.0,0.0,0.0,3.306,3.3108,3.2517,3.3117,3.4203,0.0,0.0,0.0,0.0,0.0,0.0,0.0,0.0,0.0,0.0,3.5204,3.512,3.5265,3.4256,3.3395,3.2691,3.1787,3.0932,3.0145,3.0329,3.0633,0.0,0.0,0.0,0.0,0.0,0.0,0.0,0.0,0.0,0.0,3.4502,3.4778,0.0,0.0,0.0,0.0,0.0,0.0,0.0,0.0,3.6582,3.6783,3.7713,0.0,3.8743,3.8617,3.8919,3.9321,0.0,3.917,3.9044,3.9572,3.9271,3.907,3.9597,3.8479,3.7993,3.9542,3.8581,3.7519,3.7309,3.9444,4.1506,4.2827,4.5404,4.6294,4.4163,4.3015,4.234,4.2154,4.0644,3.9394,3.865,3.8611,3.8611,3.8611,3.8476,3.8418,3.8418,3.7891,3.8146,3.9117,3.737,3.6847,3.7406,3.6044,3.5369,3.5321,3.6181,3.7399,3.8693,3.839,3.8949,3.9756,3.6833,3.5701,3.5591,3.3877,3.3203,3.3086,0.0,0.0,0.0,0.0,0.0,0.0,0.0,0.0,0.0,0.0,0.0,0.0,0.0,0.0,0.0,0.0,0.0,0.0,0.0,0.0,0.0,0.0,0.0,0.0,3.4822,3.418,3.3991,3.4292,3.3266,3.253,3.2083,3.1532,3.0752,2.9804,3.0357,3.1014,0.0,0.0,0.0,0.0,3.2964,0.0,0.0,0.0,0.0,0.0,3.4402,3.4527,0.0,3.5929,3.6006,3.5608,0.0,0.0,0.0,0.0,3.6405,3.6457,3.6758,3.7235,3.7688,3.7914,3.8441,3.8969,3.922,3.9271,3.9346,3.9647,3.9472,3.9371,3.9647,3.8479,3.7865,3.8947,3.8041,3.7443,3.8149,4.0684,4.3085,4.4818,4.5828,4.6312,4.6136,4.5602,4.4925,4.4156,4.3097,4.21,4.1161,4.1099,4.1099,4.1099,4.1099,4.0728,3.9854,3.9172,3.9612,4.113,3.9525,3.9,3.9368,3.8469,3.7826,3.743,3.8369,3.8837,3.9023,3.9778,4.0311,4.0361,3.7873,3.6902,3.663,3.4258,3.3269,3.3105,0.0,0.0,0.0,0.0,0.0,0.0,0.0,0.0,0.0,0.0,0.0,0.0,0.0,0.0,0.0,0.0,0.0,0.0,0.0,0.0,0.0,0.0,0.0,3.3927,3.3791,3.297,3.2781,3.3358,3.2384,3.1965,3.2069,3.1623,3.0959,3.0181,3.0638,3.1391,0.0,0.0,0.0,0.0,3.309,0.0,0.0,0.0,0.0,0.0,0.0,0.0,0.0,3.5703,3.5881,3.5481,3.608,0.0,0.0,0.0,0.0,0.0,3.6505,3.6984,3.7663,3.8441,3.8768,3.9019,3.9471,3.9572,3.9597,3.9672,3.9622,3.9597,3.9672,3.8368,3.7459,3.7985,3.7197,3.7605,4.059,4.2055,4.3669,4.604,4.6323,4.6579,4.7137,4.856,4.8377,4.5804,4.5528,4.5079,4.4161,4.4116,4.4116,4.4116,4.4116,4.3473,4.215,4.1005,4.1284,4.2979,4.1849,4.1377,4.1565,4.1309,4.0989,4.0617,4.09,4.0428,3.9621,4.123,4.1518,4.0794,3.92,3.8432,3.7835,3.486,3.3403,3.2891,0.0,0.0,0.0,0.0,0.0,0.0,0.0,0.0,0.0,0.0,0.0,0.0,0.0,0.0,0.0,0.0,0.0,0.0,0.0,0.0,0.0,0.0,3.4398,3.3636,3.2823,3.2351,3.2141,3.2266,3.1743,3.1504,3.1524,3.1438,3.1562,3.1838,3.1938,3.234,3.2964,0.0,0.0,0.0,3.309,0.0,0.0,0.0,0.0,0.0,0.0,0.0,0.0,3.5079,3.528,3.4929,3.5481,0.0,0.0,0.0,0.0,0.0,3.6959,3.7838,3.8441,3.7663,3.819,3.8919,3.8994,3.9019,3.9145,3.9597,3.9346,3.917,3.9622,3.7753,3.7165,4.0202,3.9989,4.0779,4.4574,4.4877,4.6115,4.9925,4.9782,4.8992,4.8191,4.7321,4.6429,4.5675,4.5121,4.4629,4.4138,4.4116,4.4116,4.4116,4.4116,4.471,4.5939,4.3838,4.3465,4.4792,4.2707,4.2271,4.3271,4.1852,4.1168,4.1165,4.259,4.2595,4.1743,4.3424,4.3522,4.246,4.0875,3.9405,3.7985,3.6112,3.454,3.332,0.0,0.0,0.0,0.0,0.0,0.0,0.0,0.0,0.0,0.0,0.0,0.0,0.0,0.0,0.0,0.0,0.0,0.0,0.0,0.0,0.0,3.3532,3.2835,3.229,3.1865,3.1156,3.0958,3.1247,3.1054,3.111,3.1406,3.1406,3.1838,3.2667,3.2365,3.2541,3.309,3.309,0.0,0.0,0.0,0.0,0.0,0.0,0.0,0.0,0.0,0.0,0.0,0.0,3.4904,3.4753,3.5004,0.0,0.0,0.0,0.0,0.0,3.6607,3.7587,3.8291,3.7764,3.8112,3.8295,3.7191,3.6935,3.7033,3.7269,3.7127,3.7172,3.7895,3.8073,3.9108,4.2205,4.2063,4.2662,4.5797,4.617,4.742,5.088,5.0098,4.9699,5.0685,5.0186,4.9505,4.8752,4.8407,4.7905,4.7093,4.7079,4.7079,4.7079,4.7079,4.7467,4.8289,4.6624,4.6062,4.6665,4.5027,4.4553,4.5074,4.4312,4.3972,4.4003,4.4767,4.4663,4.3988,4.4423,4.4141,4.3247,4.134,3.961,3.7895,3.5427,3.4198,3.375,0.0,0.0,0.0,0.0,0.0,0.0,0.0,0.0,0.0,0.0,0.0,0.0,0.0,0.0,0.0,0.0,0.0,0.0,0.0,0.0,3.3578,3.1885,3.1182,3.0857,3.0857,3.0285,3.0206,3.0588,3.1265,3.1914,3.2597,3.2321,3.2562,3.3266,3.2667,3.2742,3.3291,3.3291,3.3366,0.0,0.0,0.0,0.0,0.0,0.0,0.0,0.0,0.0,0.0,0.0,0.0,0.0,0.0,0.0,0.0,3.5682,3.5707,3.5832,3.6431,3.7067,3.7444,3.7119,3.7505,3.7615,3.6393,3.5688,3.5368,3.5787,3.6026,3.6228,3.6652,3.8926,4.1193,4.2654,4.3585,4.4777,4.6793,4.7452,4.8671,5.1347,5.0518,5.0489,5.2516,5.2628,5.2126,5.1147,5.0946,5.0494,4.964,4.959,4.959,4.959,4.959,4.959,4.959,4.8611,4.8033,4.7883,4.6828,4.6301,4.6301,4.6301,4.6301,4.6301,4.6301,4.5924,4.5246,4.4765,4.4292,4.3626,4.1838,3.9931,3.7805,3.4722,3.373,3.3887,0.0,0.0,0.0,0.0,0.0,0.0,0.0,0.0,0.0,0.0,0.0,0.0,0.0,0.0,0.0,0.0,0.0,0.0,0.0,0.0,3.1878,3.0665,3.0155,2.9895,2.9895,3.0321,3.0563,3.0588,3.3222,3.5067,3.6128,3.4984,3.4244,3.3822,3.3291,3.3341,3.3847,3.3847,3.4148,3.4577,0.0,0.0,0.0,0.0,0.0,0.0,0.0,0.0,0.0,0.0,0.0,0.0,0.0,0.0,3.5608,3.618,3.6331,3.6457,3.7009,3.6628,3.5831,3.4439,3.553,3.7194,3.8316,3.6768,3.5586,3.7273,3.812,3.8255,3.7327,4.0287,4.2226,4.0212,4.4414,4.8172,4.8995,4.9484,5.0535,5.2538,5.2666,5.2491,5.2201,5.1699,5.1147,5.0486,5.0017,4.969,4.959,4.959,4.959,4.959,4.959,4.959,4.959,4.9012,4.8435,4.7883,4.6828,4.6301,4.6301,4.6301,4.6301,4.6301,4.6301,4.5668,4.4665,4.4614,4.4292,4.374,4.3075,4.0933,3.785,3.5067,3.3789,3.3516,0.0,0.0,0.0,0.0,0.0,0.0,0.0,0.0,0.0,0.0,0.0,0.0,0.0,0.0,0.0,0.0,0.0,0.0,0.0,0.0,3.1133,3.0122,2.9874,3.0062,3.0658,3.1286,3.2136,3.3222,3.5708,3.6581,3.5923,3.5473,3.4578,3.3391,3.319,3.3215,3.3416,3.3416,3.3696,3.4198,3.4198,0.0,0.0,0.0,0.0,0.0,0.0,0.0,0.0,0.0,3.3796,3.3922,3.3997,3.4452,3.5054,3.5278,3.5579,3.5981,3.6557,3.6284,3.5825,3.564,3.4819,3.4104,3.4231,3.3947,3.3875,3.4553,3.6182,3.779,3.8821,4.0234,4.1914,4.401,4.6846,4.944,5.1284,5.1693,5.2085,5.2826,5.2628,5.2327,5.2126,5.1599,5.1046,5.0469,5.0218,4.9967,4.9615,4.959,4.959,4.959,4.959,4.959,4.959,4.9095,4.8517,4.7908,4.7149,4.6622,4.6301,4.6301,4.6301,4.6301,4.6301,4.6075,4.5618,4.5296,4.5045,4.4657,4.2757,4.1213,3.9831,3.789,3.6383,3.5361,0.0,0.0,0.0,0.0,0.0,0.0,0.0,0.0,0.0,0.0,0.0,0.0,0.0,0.0,0.0,0.0,0.0,0.0,3.1278,3.0914,3.0317,2.9326,2.9908,3.0451,3.0934,3.2815,3.4207,3.4996,3.728,3.7689,3.6377,3.5996,3.5021,3.3571,3.3266,3.3291,3.3596,3.342,3.3646,3.4148,3.4148,3.4048,0.0,0.0,0.0,0.0,0.0,0.0,0.0,0.0,3.347,3.3646,3.3596,3.3997,3.4477,3.4653,3.4782,3.5,3.5567,3.491,3.4223,3.4913,3.3389,3.1904,3.2572,3.2859,3.334,3.4624,3.6098,3.7613,3.9079,4.016,4.1914,4.5322,4.8092,5.0386,5.2122,5.2519,5.2569,5.2427,5.2226,5.1975,5.1599,5.1222,5.077,5.0193,5.0167,4.9992,4.9615,4.959,4.959,4.959,4.959,4.959,4.959,4.9095,4.8517,4.7908,4.735,4.6823,4.6301,4.6301,4.6301,4.6301,4.6301,4.62,4.6024,4.5648,4.5372,4.4974,4.263,4.1614,4.1401,4.0007,3.8675,3.7574,0.0,0.0,0.0,0.0,0.0,0.0,0.0,0.0,0.0,0.0,0.0,0.0,0.0,0.0,0.0,0.0,0.0,0.0,3.1185,3.0305,2.9307,2.8164,3.0088,3.0953,3.0435,3.4964,3.6693,3.5452,3.7709,3.857,3.8062,3.6792,3.5648,3.4628,3.3571,3.3696,3.4653,3.4123,3.4198,3.4703,3.4703,3.4352,0.0,0.0,0.0,0.0,0.0,0.0,0.0,0.0,3.352,3.3291,3.4327,3.4327,3.4022,3.4552,3.4157,3.3624,3.4073,3.2303,3.0512,3.138,3.0881,3.1135,3.4616,3.439,3.4536,3.8595,3.8699,3.8046,3.7861,4.0311,4.2512,4.2977,4.766,5.1306,5.1331,5.1749,5.19,5.1348,5.1749,5.1649,5.0486,5.0419,5.0193,4.964,4.959,4.959,4.959,4.959,4.959,4.959,4.959,4.959,4.959,4.9095,4.8517,4.7908,4.735,4.6823,4.6301,4.6301,4.6301,4.6301,4.6301,4.5999,4.5497,4.5497,4.5146,4.4444,4.2925,4.2305,4.2173,4.098,4.0261,3.9896,0.0,0.0,0.0,0.0,0.0,0.0,0.0,0.0,0.0,0.0,0.0,0.0,0.0,0.0,0.0,0.0,0.0,0.0,3.0273,2.9953,2.9947,3.0285,3.0869,3.1736,3.2921,3.6307,3.863,3.983,3.9861,3.9035,3.742,3.592,3.4633,3.3545,3.3241,3.3291,3.3545,3.3416,3.3668,3.4148,3.4148,3.4048,0.0,0.0,0.0,0.0,0.0,0.0,0.0,0.0,0.0,0.0,3.347,3.4226,3.4979,3.4753,3.4694,3.4648,3.4409,3.26,3.0994,3.1835,3.156,3.2038,3.5517,3.5272,3.5349,3.9002,3.9117,3.903,4.0497,4.2866,4.4786,4.5305,4.8362,5.0946,5.1749,5.1674,5.1599,5.1825,5.1297,5.0762,5.0411,5.0067,4.9766,4.9615,4.959,4.959,4.959,4.959,4.959,4.959,4.959,4.959,4.959,4.9095,4.8517,4.7908,4.735,4.6823,4.6301,4.6301,4.6301,4.6301,4.6301,4.6225,4.6024,4.5648,4.492,4.4034,4.395,4.3701,4.3395,4.3834,4.3,4.1637,0.0,0.0,0.0,0.0,0.0,0.0,0.0,0.0,0.0,0.0,0.0,0.0,0.0,0.0,0.0,0.0,0.0,0.0,0.0,3.0139,3.0601,3.1193,3.192,3.3588,3.6339,3.8385,3.9888,4.0865,3.9866,3.8398,3.6452,3.5076,3.395,3.3115,3.3316,3.3416,3.3416,3.3416,3.347,3.3571,3.3571,3.3571,3.3571,0.0,0.0,0.0,0.0,0.0,0.0,0.0,0.0,0.0,3.3366,3.3717,3.4075,3.4127,3.3551,3.2985,3.3175,3.1856,3.0731,3.1917,3.2107,3.2736,3.557,3.7035,3.8325,4.011,4.043,4.0616,4.135,4.3723,4.5757,4.6251,4.8436,5.0318,5.1021,5.1021,5.0971,5.1096,5.0695,5.0243,4.9816,4.9665,4.9515,4.9321,4.9464,4.959,4.959,4.959,4.959,4.959,4.959,4.959,4.959,4.8812,4.8259,4.7908,4.7124,4.6597,4.6301,4.6301,4.6301,4.6301,4.6075,4.5849,4.5623,4.5271,4.4869,4.4493,4.4844,4.4895,4.4869,4.5573,4.5007,4.3855,0.0,0.0,0.0,0.0,0.0,0.0,0.0,0.0,0.0,0.0,0.0,0.0,0.0,0.0,0.0,0.0,0.0,0.0,0.0,0.0,3.1278,3.1444,3.3259,3.6047,3.9871,4.037,4.0213,3.9486,3.8376,3.6921,3.5239,3.4099,3.3416,3.3115,3.3596,3.3822,3.3822,3.3771,3.3445,3.3014,3.3014,3.3014,3.3014,3.3014,0.0,0.0,0.0,0.0,0.0,0.0,0.0,0.0,3.3721,3.3055,3.2225,3.3055,3.1607,2.9968,3.1108,3.059,3.0126,3.1827,3.274,3.3741,3.5561,3.9396,4.2248,4.1361,4.2121,4.2583,4.1443,4.3831,4.607,4.6453,4.8222,4.9615,4.9665,5.0067,5.0167,4.9715,5.0067,4.9916,4.8894,4.9264,4.9364,4.8843,4.9321,4.959,4.959,4.959,4.9565,4.9515,4.9515,4.949,4.9439,4.8385,4.7832,4.7832,4.6803,4.6301,4.6301,4.625,4.62,4.6125,4.5673,4.5171,4.4589,4.4589,4.4945,4.5422,4.5472,4.5799,4.625,4.6301,4.6301,4.612,0.0,0.0,0.0,0.0,0.0,0.0,0.0,0.0,0.0,0.0,0.0,0.0,0.0,0.0,0.0,0.0,0.0,0.0,0.0,0.0,3.1865,3.3342,3.5056,3.7174,3.97,3.7986,3.757,3.859,3.7075,3.5592,3.4113,3.261,3.2339,3.3115,3.3215,3.3266,3.3241,3.2767,3.2516,3.239,3.239,3.239,3.239,3.239,3.2692,0.0,0.0,0.0,0.0,0.0,0.0,0.0,3.3721,3.3568,3.3197,3.341,3.2446,3.1341,3.15,3.1111,3.0937,3.2324,3.4736,3.7482,4.0007,4.1308,4.1673,4.0562,4.2208,4.4143,4.5283,4.7244,4.8757,4.8849,4.9264,4.9741,5.0167,4.9967,4.9891,5.0193,4.9967,4.9515,4.8868,4.9264,4.9364,4.8843,4.9321,4.959,4.959,4.959,4.9389,4.8994,4.8994,4.8736,4.8284,4.76,4.7274,4.7249,4.6597,4.6301,4.6301,4.5874,4.5422,4.4966,4.5347,4.5171,4.4589,4.4589,4.4665,4.4815,4.5321,4.5573,4.5723,4.615,4.6301,4.62,0.0,0.0,0.0,0.0,0.0,0.0,0.0,0.0,0.0,0.0,0.0,0.0,0.0,0.0,0.0,0.0,0.0,0.0,0.0,0.0,3.3361,3.5129,3.6389,3.7551,3.8533,3.7284,3.6406,3.5985,3.4743,3.3885,3.3377,3.2015,3.1838,3.2692,3.3241,3.319,3.2667,3.2641,3.2466,3.2194,3.2194,3.2365,3.2591,3.2315,3.2566,3.3014,3.2416,0.0,0.0,0.0,0.0,0.0,0.0,0.0,3.2167,3.2282,3.1915,3.1542,3.1902,3.2267,3.2874,3.4039,3.6436,3.8913,4.0309,4.1243,4.1967,4.2525,4.3913,4.5381,4.6585,4.8347,4.959,4.959,4.959,4.969,4.9992,4.9766,4.969,4.9992,4.9766,4.9264,4.8435,4.9113,4.9138,4.8083,4.8987,4.949,4.9213,4.9245,4.9095,4.8818,4.8542,4.8209,4.7908,4.735,4.7099,4.7099,4.6547,4.6024,4.5522,4.5773,4.5573,4.5045,4.5347,4.5171,4.4614,4.492,4.5045,4.5095,4.5673,4.5874,4.5924,4.62,4.6301,4.6225,0.0,0.0,0.0,0.0,0.0,0.0,0.0,0.0,0.0,0.0,0.0,0.0,0.0,0.0,0.0,0.0,0.0,0.0,0.0,0.0,0.0,3.643,3.6979,3.7192,3.708,3.6652,3.5385,3.3293,3.2284,3.2135,3.2836,3.1858,3.1738,3.239,3.3244,3.3093,3.2219,3.2541,3.2365,3.1918,3.1918,3.2215,3.2612,0.0,0.0,3.2738,3.2139,3.2365,3.2939,3.2939,0.0,0.0,0.0,0.0,3.1119,3.1481,3.1517,3.1615,3.2411,3.3806,3.5281,3.6479,3.8223,3.9717,3.9932,4.1243,4.2994,4.4988,4.5737,4.6261,4.7125,4.8542,4.959,4.959,4.959,4.959,4.959,4.959,4.959,4.959,4.9515,4.9038,4.8008,4.8761,4.8686,4.7224,4.8485,4.9113,4.8693,4.8642,4.8617,4.8485,4.8033,4.7732,4.7631,4.7174,4.6973,4.6948,4.6426,4.5673,4.4765,4.5618,4.5673,4.507,4.5175,4.497,4.464,4.5146,4.5447,4.5673,4.6125,4.6301,4.6301,4.6301,4.625,4.6075,0.0,0.0,0.0,0.0,0.0,0.0,0.0,0.0,0.0,0.0,0.0,0.0,0.0,0.0,0.0,0.0,0.0,0.0,3.3533,0.0,0.0,3.6447,3.5751,3.5619,3.6141,3.402,3.2724,3.2379,3.0855,3.0851,3.2297,3.1674,3.1984,3.2964,3.2591,3.2344,3.2144,3.129,3.0889,3.0814,3.0814,3.0864,3.0934,0.0,0.0,3.1557,3.1009,3.1441,3.2315,3.2315,3.2667,0.0,0.0,0.0,3.263,3.366,3.3391,3.2842,3.3321,3.5439,3.7915,3.9478,4.0775,4.1883,4.2861,4.4039,4.5021,4.5317,4.5737,4.6678,4.8826,4.9429,4.959,4.959,4.959,4.959,4.959,4.959,4.959,4.959,4.9163,4.8642,4.7983,4.8033,4.7857,4.7149,4.7757,4.8109,4.8033,4.8033,4.7807,4.7324,4.7249,4.6973,4.6527,4.6451,4.6426,4.6396,4.5849,4.5522,4.5372,4.502,4.4292,4.3366,4.3815,4.4242,4.4614,4.469,4.5292,4.62,4.6276,4.6301,4.6301,4.6301,4.5999,4.5522,0.0,0.0,0.0,0.0,0.0,0.0,0.0,0.0,0.0,0.0,0.0,0.0,0.0,0.0,0.0,3.1148,3.2146,3.3359,3.4756,3.5231,3.5545,3.5649,3.4888,3.4278,3.3882,3.2399,3.1382,3.0862,3.0157,3.0608,3.2194,3.1964,3.2466,3.352,3.2943,3.234,3.1712,3.0934,3.0588,3.0588,3.0588,3.0783,0.0,0.0,0.0,0.0,0.0,0.0,3.1813,3.2114,3.239,3.2664,3.3003,0.0,0.0,0.0,3.3467,3.4565,3.6098,3.7837,3.9556,4.0891,4.2034,4.3125,4.4294,4.5264,4.6006,4.6301,4.6483,4.7245,4.9236,4.9339,4.927,4.954,4.959,4.959,4.959,4.959,4.949,4.9195,4.8944,4.8435,4.7525,4.7732,4.7556,4.6697,4.7431,4.7782,4.745,4.745,4.7324,4.7124,4.6798,4.6522,4.6301,4.6301,4.6301,4.6301,4.5422,4.4995,4.4995,4.4418,4.4066,4.3915,4.4166,4.4593,4.5095,4.5095,4.5573,4.6301,4.6301,4.6301,4.6301,4.6301,4.615,4.5924,0.0,0.0,0.0,0.0,0.0,0.0,0.0,0.0,0.0,0.0,0.0,0.0,0.0,0.0,0.0,0.0,3.3035,3.4442,3.5424,3.5248,3.5012,3.4756,3.3795,3.2868,3.1985,3.1224,3.0514,2.9804,2.9804,3.0708,3.2441,3.2441,3.3119,0.0,3.3596,3.2763,0.0,3.111,3.0789,3.0783,0.0,0.0,0.0,0.0,0.0,0.0,0.0,3.0733,3.1286,3.1813,3.2089,3.2222,3.2348,3.2682,0.0,0.0,0.0,3.5907,3.7702,3.9118,4.031,4.141,4.2966,4.4467,4.5461,4.645,4.723,4.7481,4.7525,4.7983,4.9339,4.917,4.8994,4.9515,4.959,4.959,4.959,4.9464,4.927,4.8843,4.8542,4.8033,4.7174,4.7324,4.7179,4.6376,4.7054,4.733,4.6923,4.6898,4.6898,4.6898,4.6401,4.61,4.61,4.5919,4.5874,4.5874,4.4991,4.4514,4.4364,4.3991,4.394,4.4192,4.4192,4.4618,4.5271,4.5271,4.5673,4.6301,4.6301,4.6225,4.6125,4.625,4.6125,4.5874,0.0,0.0,0.0,0.0,0.0,0.0,0.0,0.0,0.0,0.0,0.0,0.0,0.0,3.0639,3.1573,3.2451,3.3446,3.4442,3.5424,3.461,3.4075,3.4053,3.2317,0.0,3.1257,3.0349,2.9837,2.9804,2.9804,3.0929,3.3065,3.3065,3.3897,3.5357,3.4301,3.3545,3.2939,0.0,0.0,0.0,0.0,0.0,0.0,0.0,0.0,0.0,2.9854,3.0181,3.0713,3.126,3.1788,3.2394,3.348,3.3834,3.4037,0.0,0.0,0.0,3.6588,3.8131,3.9998,4.1133,4.3798,4.63,4.6876,4.8272,4.9289,4.8818,4.8718,4.8894,4.949,4.917,4.8994,4.9515,4.959,4.959,4.959,4.917,4.8843,4.8793,4.7857,4.7174,4.7124,4.6647,4.6376,4.6301,4.6351,4.6376,4.6351,4.6351,4.6351,4.6351,4.5824,4.5522,4.5522,4.4995,4.469,4.469,4.4614,4.4313,4.384,4.3815,4.3539,4.309,4.309,4.3689,4.464,4.464,4.5292,4.6301,4.6301,4.5999,4.5598,4.6125,4.5618,4.469,0.0,0.0,0.0,0.0,0.0,0.0,0.0,0.0,0.0,0.0,0.0,0.0,0.0,3.1161,3.2003,3.3372,3.4409,3.4839,3.456,3.4211,3.3463,3.2254,3.1573,3.0914,3.0305,2.9972,2.9804,2.9804,2.9804,3.0557,3.2035,3.2365,3.3043,3.3947,3.3567,3.3291,3.2989,3.1155,0.0,3.0834,3.008,2.9804,2.9804,2.9804,2.9804,2.9804,2.9804,3.0156,3.0663,3.121,3.1763,3.234,3.314,3.3621,3.4123,3.5182,3.6158,3.6989,3.7369,3.8562,4.007,4.1521,4.3315,4.4945,4.5874,4.6803,4.7431,4.723,4.7205,4.7456,4.836,4.8693,4.8868,4.9069,4.9364,4.9339,4.8611,4.8693,4.8542,4.7807,4.735,4.6973,4.6622,4.6396,4.6301,4.6301,4.6301,4.6301,4.6301,4.6301,4.6301,4.6301,4.6125,4.6024,4.6024,4.4744,4.4468,4.5171,4.4091,4.3639,4.379,4.3438,4.319,4.3014,4.3014,4.3413,4.4091,4.4091,4.4543,4.5192,4.5192,4.5066,4.497,4.5116,4.5196,4.5171,0.0,0.0,0.0,0.0,0.0,0.0,0.0,0.0,0.0,0.0,0.0,0.0,0.0,0.0,3.2632,3.4351,3.4806,3.4693,3.403,3.3429,3.2486,3.1241,3.0895,3.0438,2.9824,2.9804,2.9804,2.9804,2.9804,3.0509,3.1868,3.223,3.3101,3.4338,3.3413,3.3132,3.3266,3.1607,3.1009,3.1065,3.0357,3.008,3.008,3.0256,3.0457,3.0583,3.0407,3.0683,3.116,3.1135,3.1486,3.2039,3.2591,3.3294,3.4073,3.4979,3.5882,3.6784,3.7538,3.8266,3.9396,4.1632,4.2559,4.3463,4.5347,4.605,4.6351,4.6522,4.6878,4.7305,4.7807,4.8385,4.8793,4.8793,4.8944,4.8761,4.8008,4.8083,4.7958,4.7199,4.6948,4.6672,4.6351,4.6301,4.6301,4.6301,4.6301,4.6301,4.6301,4.6301,4.6125,4.5748,4.5573,4.5372,4.5196,4.4091,4.389,4.4673,4.3689,4.3338,4.3514,4.3338,4.319,4.3014,4.3014,4.3288,4.379,4.379,4.4141,4.4589,4.4589,4.4489,4.4364,4.4769,4.5045,4.5221,0.0,0.0,0.0,0.0,0.0,0.0,0.0,0.0,0.0,0.0,0.0,0.0,0.0,0.0,0.0,3.5264,3.456,3.3979,3.391,3.22,3.1185,3.1148,3.0292,2.9804,2.9804,2.9804,2.9804,2.9804,2.9818,3.0829,3.2758,3.2797,3.4239,3.6674,3.4006,3.3193,3.384,3.3241,3.2667,3.2068,3.1035,3.0588,3.0638,3.1185,3.1712,3.2068,3.1562,3.1738,3.2043,3.0989,3.1009,3.1562,3.2089,3.3018,0.0,0.0,3.5079,3.5757,0.0,0.0,0.0,4.123,4.1656,4.2105,4.5367,4.6145,4.6351,4.6923,4.7908,4.8517,4.7983,4.8335,4.8743,4.8743,4.8259,4.7908,4.7857,4.74,4.7099,4.7074,4.6622,4.6301,4.6301,4.6301,4.6301,4.6301,4.6301,4.6301,4.6301,4.6301,4.5773,4.4665,4.4091,4.3564,4.309,4.3039,4.3014,4.3039,4.3539,4.3489,4.3014,4.3539,4.3489,4.3014,4.3014,4.3316,4.379,4.379,4.4091,4.4539,4.4539,4.4242,4.3915,4.502,4.5095,4.469,0.0,0.0,0.0,0.0,0.0,0.0,0.0,0.0,0.0,0.0,0.0,0.0,0.0,0.0,3.3653,3.3752,3.39,3.3429,3.2055,3.1499,3.0895,3.0235,2.9934,2.9804,2.9804,2.9804,2.9804,2.9804,3.0495,3.1089,3.1668,3.2745,3.3656,3.431,3.326,3.2915,3.3011,3.1381,3.106,3.1562,3.0884,3.0588,3.0613,3.0763,3.0889,3.1014,3.0864,3.1436,3.2144,3.1863,3.2416,3.3219,3.3395,0.0,0.0,0.0,0.0,0.0,3.6431,0.0,0.0,0.0,0.0,0.0,4.1779,4.2735,4.3718,4.5016,4.5518,4.61,4.7124,4.7154,4.7129,4.7531,4.7782,4.7631,4.6853,4.6948,4.6948,4.6577,4.6401,4.6301,4.6301,4.6301,4.6301,4.6301,4.6301,4.6301,4.6301,4.5924,4.5573,4.5271,4.4317,4.4116,4.4823,4.3617,4.319,4.3564,4.3341,4.314,4.3014,4.3165,4.314,4.3014,4.3014,4.309,4.3212,4.3212,4.3288,4.3438,4.3438,4.3338,4.3316,4.4016,4.4418,4.469,0.0,0.0,0.0,0.0,0.0,0.0,0.0,0.0,0.0,0.0,0.0,0.0,0.0,0.0,0.0,3.2931,3.2839,3.2361,3.1259,3.082,3.0362,2.9818,2.9804,2.9804,2.9804,2.9804,2.9804,2.9804,3.0752,3.1407,3.181,3.306,3.3796,3.403,3.3135,3.2646,3.2435,3.0579,3.0281,3.1035,3.0733,3.0713,3.0959,3.1165,3.1541,3.1964,3.1712,3.247,3.3398,3.2265,3.2616,3.352,3.3269,3.3671,3.4299,3.4603,0.0,0.0,0.0,0.0,3.7034,3.7738,0.0,0.0,4.0499,4.1178,4.1909,4.3313,4.4141,4.4815,4.5568,4.5874,4.6075,4.6401,4.6702,4.6753,4.6376,4.6572,4.6722,4.6622,4.6451,4.6401,4.6597,4.6451,4.6301,4.6301,4.6301,4.62,4.5974,4.5422,4.502,4.4794,4.3915,4.3765,4.4472,4.3492,4.3165,4.3463,4.3165,4.3014,4.3014,4.3014,4.3014,4.3014,4.3014,4.3014,4.3014,4.3014,4.3014,4.3014,4.3014,4.3014,4.3065,4.3589,4.4141,4.469,0.0,0.0,0.0,0.0,0.0,0.0,0.0,0.0,0.0,0.0,0.0,0.0,0.0,0.0,0.0,0.0,3.1683,3.1175,3.1063,3.0247,2.9804,2.9804,2.9804,2.9804,2.9804,2.9804,2.9837,2.9972,3.0895,3.1847,3.277,3.3722,3.4432,0.0,0.0,0.0,3.1997,3.0439,3.008,3.0512,3.0638,3.1009,3.1537,3.2014,3.2842,3.3646,3.3165,3.3972,3.4879,3.2566,3.2361,3.304,3.2692,3.3473,3.4552,3.4753,3.513,0.0,0.0,0.0,0.0,3.8266,3.7939,0.0,4.0374,4.0625,4.0651,4.1858,4.3237,4.4113,4.379,4.4568,4.5271,4.5221,4.5401,4.5673,4.6225,4.6351,4.6577,4.7048,4.6722,4.6622,4.7074,4.6672,4.6376,4.6296,4.625,4.5974,4.5422,4.4844,4.4313,4.3915,4.3288,4.3039,4.309,4.3039,4.3014,4.3014,4.3014,4.3014,4.3014,4.3014,4.3014,4.3014,4.3014,4.3014,4.3014,4.3014,4.3014,4.3014,4.3014,4.3014,4.3065,4.3589,4.4116,4.4618,0.0,0.0,0.0,0.0,0.0,0.0,0.0,0.0,0.0,0.0,0.0,0.0,0.0,0.0,0.0,0.0,3.1296,3.0876,3.012,2.9895,2.9804,2.9804,2.9804,2.9804,2.9804,2.9804,3.0177,3.0932,3.1883,3.2806,3.3756,3.4756,3.4848,3.4134,3.3073,3.2155,3.1333,3.0267,2.9854,3.003,3.0884,3.1562,3.2064,3.2144,3.234,3.2516,3.2416,3.2893,3.3621,3.3972,3.3621,3.3316,3.4477,3.4176,3.3671,3.4979,3.5408,3.5631,3.623,3.7034,3.7538,3.7009,3.7386,0.0,3.8542,3.8944,3.9622,4.1152,4.1729,4.2181,4.2986,4.3689,4.3991,4.3567,4.4622,4.5673,4.6225,4.6672,4.6973,4.7099,4.7375,4.7481,4.7124,4.6998,4.6747,4.6351,4.5899,4.5397,4.4819,4.4267,4.4116,4.4414,4.3489,4.3215,4.3639,4.324,4.3014,4.3014,4.3014,4.3014,4.3014,4.3014,4.3014,4.3014,4.3014,4.3014,4.3014,4.3014,4.3014,4.3014,4.3014,4.3014,4.3065,4.3589,4.3865,4.4041,0.0,0.0,0.0,0.0,0.0,0.0,0.0,0.0,0.0,0.0,0.0,0.0,0.0,0.0,0.0,0.0,0.0,0.0,0.0,2.9804,2.9804,2.9804,2.9804,2.9804,2.9804,2.9804,3.0273,3.1185,3.2128,3.307,3.3996,3.4526,3.4228,3.3244,3.2307,3.137,3.0476,3.0011,3.0105,3.0608,3.0884,3.1311,3.1838,3.2114,3.239,3.2641,3.2641,3.3018,3.3621,3.4427,3.4726,3.4748,3.4703,3.4901,3.5177,3.5431,3.5707,3.6006,3.6306,3.6783,3.7135,3.6859,3.721,0.0,0.0,3.9126,3.9813,4.1553,4.1385,4.1286,4.2469,4.2393,4.2333,4.2914,4.3915,4.4844,4.5397,4.6396,4.7199,4.745,4.75,4.74,4.7124,4.6848,4.6572,4.6326,4.5799,4.5246,4.4614,4.4091,4.379,4.379,4.3291,4.314,4.3388,4.314,4.3014,4.3014,4.3014,4.3014,4.3014,4.3014,4.3014,4.3014,4.3014,4.3014,4.3014,4.3014,4.3014,4.3014,4.3014,4.3014,4.3039,4.3288,4.3564,4.389,2.9804,0.0,0.0,0.0,0.0,0.0,0.0,0.0,0.0,3.0457,0.0,0.0,0.0,0.0,0.0,0.0,0.0,0.0,2.9955,2.9854,2.9804,2.9804,2.9804,2.9876,3.0088,3.0062,3.0698,3.1935,3.2559,3.3433,3.4453,3.4138,3.3515,3.2558,3.1628,3.0729,2.9955,2.9955,3.0507,3.1361,3.106,3.1235,3.1783,3.2215,3.2667,3.309,3.309,3.3442,3.3997,3.4628,3.5479,3.6055,3.5002,3.5705,3.6759,3.6158,3.6257,3.6581,3.6683,3.6859,3.706,3.7185,3.7361,3.7929,0.0,0.0,0.0,4.232,4.1675,4.1097,4.2069,4.1209,4.0831,4.2283,4.3199,4.3916,4.4574,4.5926,4.7026,4.7537,4.7199,4.6998,4.7099,4.6421,4.6024,4.615,4.5547,4.4995,4.4614,4.4091,4.3589,4.319,4.3065,4.3014,4.3014,4.3014,4.3014,4.3014,4.3014,4.3014,4.3014,4.3014,4.3014,4.3014,4.3014,4.3014,4.3014,4.3014,4.3014,4.3014,4.3014,4.3014,4.3014,4.3014,4.3263,4.3714,2.9804,2.9804,0.0,0.0,3.0563,0.0,0.0,0.0,3.0412,2.9955,2.9829,2.9804,2.9804,2.9804,2.998,3.0482,3.008,3.0005,3.0462,3.0055,2.9804,2.9804,2.9804,3.0196,3.1026,3.1044,3.2199,3.4568,3.4066,3.4654,3.616,3.4704,3.3515,3.2558,3.1628,3.0943,3.0512,3.0512,3.0859,3.1436,3.1863,3.2365,3.2914,3.2964,3.304,3.309,3.309,3.3442,3.4048,3.5079,3.5483,3.5832,3.7136,3.6685,3.5959,3.7313,3.7437,3.721,3.7688,3.8542,3.8969,3.7562,3.7964,3.8917,3.9716,0.0,4.121,4.3022,0.0,4.1513,4.167,0.0,0.0,4.0757,4.2238,4.3675,4.4807,4.5502,4.6018,4.6421,4.6451,4.6572,4.7048,4.5693,4.502,4.5547,4.4593,4.4166,4.4564,4.4091,4.3765,4.3714,4.3266,4.3014,4.3014,4.3014,4.3014,4.3014,4.3014,4.3014,4.3014,4.3014,4.3014,4.3014,4.3014,4.3014,4.3014,4.3014,4.3014,4.3014,4.3014,4.3014,4.3014,4.3014,4.3039,4.3115,2.9804,2.9804,0.0,0.0,3.0131,3.0206,3.0432,3.0809,3.0984,3.0758,3.1009,3.106,3.0758,3.1009,3.116,3.106,3.0859,3.0683,3.0588,3.0105,0.0,3.0256,2.9955,3.0407,3.163,3.137,3.2264,3.4416,3.414,3.4373,3.5036,3.3767,3.2682,3.1756,3.0809,3.0464,3.0588,3.0588,3.111,3.1888,3.2093,3.2566,3.309,3.309,3.309,3.309,3.309,3.3442,3.3922,3.4073,3.5177,3.6458,3.6158,3.671,3.7487,3.7513,3.7588,3.7713,3.7939,3.8341,3.8542,3.7839,3.8555,3.9609,4.0222,4.137,4.245,4.2879,0.0,0.0,0.0,0.0,0.0,0.0,4.3622,4.4476,4.4977,4.4883,4.5064,4.5853,4.5313,4.4945,4.5141,4.4568,4.4392,4.4945,4.3966,4.3564,4.4116,4.3614,4.3341,4.3341,4.314,4.3014,4.3014,4.3014,4.3014,4.3014,4.3014,4.3014,4.3014,4.3014,4.3014,4.3014,4.3014,4.3014,4.3014,4.3014,4.3014,4.3014,4.3014,4.3014,4.3014,4.3014,4.3014,4.309,2.9804,0.0,0.0,2.9804,2.9804,2.9854,3.0005,3.0683,3.1286,3.1587,3.1964,3.2114,3.1909,3.2215,3.234,3.2089,3.1788,3.1461,3.1065,3.0532,3.0281,3.0382,3.0575,3.1138,3.2131,3.2224,3.2913,3.4255,3.4082,3.4031,3.4068,3.2812,3.1928,3.1393,3.0598,3.0457,3.0859,3.116,3.1738,3.2441,3.2441,3.2692,3.309,3.309,3.309,3.3133,3.3428,3.3701,3.3916,3.4143,3.5426,3.6833,3.5906,3.691,3.8291,3.7613,3.7688,3.804,3.8191,3.8341,3.8391,3.809,3.8918,4.0003,4.0808,4.2138,4.3193,4.3329,4.2581,0.0,0.0,0.0,4.1566,4.3919,0.0,4.494,4.4892,4.4223,4.4119,4.5124,4.4716,4.4477,4.466,4.4535,4.4496,4.4662,4.367,4.3199,4.3567,4.3215,4.3014,4.3014,4.3014,4.3014,4.3014,4.3014,4.3014,4.3014,4.3014,4.3014,4.3014,4.3014,4.3014,4.3014,4.3014,4.3014,4.3014,4.3014,4.3014,4.3014,4.3014,4.3014,4.3014,4.319,4.314,4.3165,2.9804,2.9804,2.9804,2.9804,2.9804,2.998,3.0487,3.0588,3.0989,3.2043,3.2194,3.2416,3.2989,3.3065,3.3266,3.3771,3.2817,3.2169,3.2144,3.1637,3.0884,2.9854,3.1805,3.2814,3.2577,3.4094,3.4917,3.4969,3.4329,3.4129,3.4324,3.2211,3.1521,3.1961,3.1522,3.1381,3.1436,3.2562,3.304,3.3065,3.3065,3.309,3.309,3.309,3.309,3.324,3.4262,3.4336,3.4202,3.6285,3.6728,3.6582,3.7588,3.7588,3.7361,3.7839,3.799,3.814,3.8718,3.9245,3.9371,3.8291,3.8918,4.0133,4.1466,4.2168,4.3055,4.4938,4.3746,4.2598,4.3348,4.201,4.1585,0.0,4.4502,0.0,0.0,4.3441,4.3084,4.4044,4.5151,4.6114,4.6818,4.637,4.5695,4.4967,4.3835,4.315,4.302,4.3014,4.3014,4.3014,4.3014,4.3014,4.3014,4.3014,4.3014,4.3014,4.3014,4.3014,4.3014,4.3014,4.3014,4.3014,4.3014,4.3014,4.3014,4.3014,4.3014,4.3014,4.3014,4.3014,4.3065,4.3589,4.3438,4.3165,2.9804,0.0,2.9804,2.9804,2.9804,3.0105,3.0984,3.1763,3.2491,3.3244,3.3624,3.3925,3.4148,3.4477,3.4628,3.4427,3.4076,3.3549,3.2842,3.2638,3.2493,3.2448,3.3139,3.379,3.436,3.4511,3.4593,3.4547,3.4305,3.3918,3.3303,3.225,3.1498,3.1077,3.0923,3.106,3.1436,3.219,3.2717,3.309,3.309,3.3542,3.4098,3.3366,3.3535,3.4199,3.4573,3.5003,3.5503,3.5902,3.641,3.6799,3.6444,3.6986,3.7764,3.7939,3.8266,3.8718,3.9296,3.9546,3.9521,3.8793,3.9201,3.9817,3.9883,4.1226,4.2241,4.1291,4.2481,4.353,4.3066,4.3436,4.4384,0.0,0.0,4.6065,0.0,4.3633,4.3341,4.5388,4.5158,4.4922,4.5206,4.4263,4.369,4.3756,4.2293,4.153,4.1856,4.2261,4.2462,4.2462,4.2813,4.3014,4.3014,4.3014,4.3014,4.3014,4.3014,4.3014,4.3014,4.3014,4.3014,4.3014,4.3014,4.3014,4.3014,4.3014,4.3014,4.3014,4.3014,4.324,4.3539,4.374,4.3689,4.3639,3.008,2.993,2.9804,2.9804,2.9955,3.0382,3.1281,3.2537,3.3571,3.4123,3.4851,3.5303,3.5303,3.5782,3.5882,3.5353,3.5303,3.4851,3.3746,3.4056,3.4171,3.3806,3.4573,3.491,3.4701,3.4903,3.45,3.3474,3.3429,3.3133,3.2567,3.1411,3.0866,3.0909,3.1065,3.126,3.1461,3.2416,3.2918,3.309,3.309,3.3756,3.4616,3.3918,3.4359,3.5273,3.5235,3.542,3.573,3.6198,3.6318,3.6209,3.6141,3.686,3.7739,3.7939,3.8441,3.8969,3.9321,3.9546,3.9572,3.9044,3.9486,3.9991,3.9644,4.0897,4.1886,4.1059,4.2355,4.3706,4.3981,4.4767,4.5824,0.0,0.0,0.0,0.0,4.3857,4.3714,4.5228,4.4991,4.4954,4.5652,4.4557,4.3663,4.3329,4.1799,4.0922,4.1003,4.158,4.1984,4.2213,4.2713,4.3014,4.3014,4.3014,4.3014,4.3014,4.3014,4.3014,4.3014,4.3014,4.3014,4.3014,4.3014,4.3014,4.3014,4.3014,4.3014,4.3014,4.3014,4.3341,4.3815,4.4016,4.4342,4.4719,3.0638,3.0256,2.9905,2.9905,3.0357,3.0839,3.1361,3.2867,3.4148,3.4678,3.573,3.6455,3.648,3.6909,3.6984,3.6482,3.643,3.5929,3.4803,3.5841,3.5727,3.4005,3.6015,3.6109,3.3744,3.5283,3.4782,3.2107,3.198,3.2039,3.2223,3.0005,2.9869,3.1461,3.2014,3.1938,3.1537,3.3194,3.3571,3.309,3.309,3.3772,3.4824,3.4771,3.5505,3.6528,3.6332,3.5682,3.5192,3.7214,3.6522,3.512,3.6708,3.721,3.7287,3.7889,3.8442,3.8894,3.8919,3.9321,3.9572,3.907,3.9745,4.0552,4.07,4.1123,4.2022,4.401,4.3463,4.3413,4.5943,4.5889,4.5869,0.0,0.0,0.0,4.4052,4.4108,4.4208,4.3762,4.4665,4.6046,4.8029,4.6962,4.5404,4.3598,4.2226,4.1177,4.0583,4.1028,4.1607,4.2219,4.274,4.3014,4.3014,4.3014,4.3014,4.3014,4.3014,4.3014,4.3014,4.3014,4.3014,4.3014,4.3014,4.3014,4.3014,4.3014,4.3014,4.3014,4.3039,4.3391,4.394,4.4468,4.5342,4.6225,3.1185,3.1411,3.1566,3.1566,3.1692,3.1838,3.1989,3.342,3.4678,3.5207,3.6282,3.716,3.7538,3.7337,3.716,3.7009,3.6632,3.6105,3.5332,3.598,3.6193,3.57,3.6613,3.6444,3.504,3.5831,3.5309,3.3424,3.3377,3.3398,3.3445,3.1995,3.1568,3.2014,3.2612,3.2541,3.2089,3.337,3.3571,3.309,3.309,3.4533,3.6541,3.569,3.7326,3.9851,3.8047,3.7506,3.7701,3.7848,3.7263,3.6573,3.7071,3.721,3.7411,3.8391,3.8793,3.8994,3.9396,3.9597,3.9672,3.9521,3.9399,3.9448,3.988,4.1178,4.2426,4.2986,4.46,4.6053,4.6356,4.6627,4.6616,4.5981,4.5092,4.4738,4.5502,4.4472,4.4146,4.5462,4.4599,4.4674,4.6608,4.4458,4.2856,4.2766,4.0787,4.0106,4.1278,4.1304,4.1808,4.2918,4.2983,4.3014,4.3014,4.3014,4.3014,4.3014,4.3014,4.3014,4.3014,4.3014,4.3014,4.3014,4.3014,4.3014,4.3014,4.3014,4.3014,4.3039,4.3438,4.4192,4.507,4.5221,4.5723,4.6301,3.211,3.2566,3.2943,3.2943,3.3323,3.3574,3.3323,3.4301,3.518,3.5458,3.6508,3.7111,3.6936,3.7287,3.7437,3.7235,3.6909,3.6607,3.6259,3.6798,3.6991,3.6661,3.6775,3.6423,3.5526,3.5327,3.4813,3.3897,3.3115,3.2992,3.352,3.1833,3.1335,3.1888,3.2738,3.2914,3.2641,3.352,3.3847,3.3815,3.4075,3.5593,0.0,3.7503,3.8751,4.0437,3.9089,3.8528,3.8339,3.7751,3.7224,3.6867,3.7403,3.7713,3.8115,3.8994,3.9245,3.9321,3.9622,3.9697,3.9697,3.9697,3.9471,3.9474,4.0338,4.1588,4.2993,4.4404,4.5849,4.7021,4.7564,4.7012,4.6145,4.5133,4.4345,4.4236,4.5272,4.474,4.4629,4.5729,4.4885,4.4766,4.6181,4.3024,4.1354,4.2416,4.0531,3.9885,4.1097,4.2077,4.2681,4.281,4.3483,4.3547,4.3014,4.324,4.324,4.3014,4.3014,4.3014,4.3014,4.3014,4.3014,4.3014,4.3014,4.3014,4.3014,4.3014,4.314,4.3413,4.4217,4.492,4.5522,4.5748,4.605,4.6301,3.319,3.3746,3.4123,3.4123,3.5004,3.5606,3.5205,3.5531,3.5834,3.5834,3.6835,3.7111,3.6058,3.7162,3.7789,3.7261,3.7135,3.711,3.711,3.757,3.7625,3.7015,3.6595,3.6061,3.5398,3.4477,3.3972,3.3897,3.2315,3.2118,3.3169,3.1053,3.0608,3.1683,3.2738,3.3215,3.3241,3.3696,3.4262,3.4863,3.5386,3.6751,3.8546,3.9389,3.9768,3.9805,3.9524,3.8794,3.7884,3.7298,3.6828,3.6683,3.7688,3.8391,3.8994,3.9521,3.9697,3.9697,3.9697,3.9697,3.9697,3.9697,3.9826,4.0262,4.1423,4.2442,4.3919,4.679,4.701,4.7118,4.8624,4.6729,4.483,4.4579,4.4403,4.4355,4.453,4.5065,4.5424,4.5424,4.512,0.0,4.5977,4.2452,4.0869,4.262,4.1049,4.0386,4.1186,4.3009,4.3636,4.2694,4.3887,4.4074,4.3115,4.3489,4.3489,4.3115,4.3039,4.3014,4.3014,4.3014,4.3014,4.3014,4.3014,4.3014,4.3014,4.3014,4.3338,4.4016,4.4995,4.5472,4.5648,4.6125,4.6301,4.6301,3.4301,3.4853,3.5207,3.5207,3.6133,3.701,3.7387,3.7488,3.7538,3.7538,3.8542,3.9019,3.8391,3.8115,3.7789,3.7261,3.6783,3.6532,3.6532,3.6644,3.666,3.6535,3.598,3.5423,3.4866,3.4665,3.4327,3.3897,3.3598,3.3548,3.3746,3.2874,3.2596,3.2839,3.347,3.3746,3.3771,3.3847,3.4492,3.5445,3.5574,3.7503,4.0241,3.9458,4.0018,4.0993,3.9049,3.79,3.7263,3.7121,3.7088,3.7185,3.7789,3.8391,3.8994,3.9521,3.9697,3.9697,3.9697,3.9697,3.9697,3.9697,4.0491,4.145,4.2097,4.4065,4.6016,4.7027,4.7639,4.7755,4.7043,4.4355,4.2927,4.4904,4.4319,4.4208,4.5735,4.6061,4.6121,4.6121,4.4237,4.3386,4.4595,4.271,4.2116,4.3934,4.1949,4.1785,4.4434,4.34,4.3302,4.4563,4.3361,4.2987,4.3639,4.3288,4.3341,4.3639,4.3215,4.3014,4.3014,4.3014,4.3014,4.3014,4.3014,4.3014,4.3014,4.3014,4.3564,4.4464,4.4665,4.5347,4.6175,4.6276,4.6301,4.6301,3.5056,3.5556,3.6056,3.6332,3.7061,3.7789,3.8366,3.8693,3.8668,3.809,3.8241,3.8215,3.7663,3.7612,3.7462,3.7235,3.6708,3.6531,3.6808,3.6532,3.6405,3.6405,3.5807,3.5531,3.5579,3.4726,3.4575,3.52,3.3721,3.3319,3.3872,3.3018,3.2616,3.2641,3.3241,3.3796,3.4276,3.4022,3.4901,3.6527,3.7122,3.8579,4.0315,4.0357,4.0124,3.964,3.8514,3.7518,3.6767,3.7075,3.7364,3.7713,3.8291,3.8869,3.9371,3.9622,3.9697,3.9697,3.9697,4.016,4.0693,4.0693,4.164,4.2819,4.3743,4.5218,4.6657,4.758,4.8074,4.7584,4.5329,4.3625,4.2869,4.3742,4.4245,4.4794,4.565,4.6061,4.6181,4.5822,4.4147,4.3408,4.4307,4.3076,4.2012,4.1562,4.0797,4.1123,4.2936,4.3607,4.4173,4.4606,4.5012,4.4626,4.3391,4.4119,4.4119,4.3363,4.314,4.3014,4.3014,4.3014,4.3014,4.3014,4.3288,4.3266,4.3039,4.3589,4.4317,4.5095,4.5367,4.5824,4.6301,4.6301,4.6301,4.6301,3.5809,3.6232,3.6733,3.7286,3.7814,3.8341,3.8818,3.9371,3.9346,3.8316,3.7814,3.7311,3.6632,3.706,3.7286,3.706,3.6859,3.6859,3.7185,3.6808,3.6581,3.6581,3.5882,3.5732,3.6205,3.4675,3.4572,3.5854,3.3646,3.2968,3.3696,3.2943,3.242,3.224,3.3068,3.3771,3.4349,3.4436,3.5686,3.7743,3.8626,3.9504,4.0296,4.0696,3.9727,3.8062,3.7838,3.715,3.6505,3.716,3.7638,3.809,3.8567,3.9145,3.9697,3.9697,3.9697,3.9774,4.0032,4.0844,4.1665,4.1936,4.2954,4.4163,4.5161,4.602,4.6875,4.7881,4.7652,4.6405,4.361,4.3098,4.3006,4.2751,4.4224,4.5475,4.5675,4.6202,4.6215,4.5416,4.4196,4.3415,4.3443,4.2606,4.1164,3.8942,3.9731,4.0807,4.189,4.3651,4.4432,4.4022,4.624,4.5993,4.3017,4.4785,4.4837,4.319,4.3065,4.3014,4.3014,4.3014,4.3014,4.3039,4.3564,4.3614,4.3388,4.4267,4.497,4.5522,4.5974,4.62,4.6301,4.6301,4.6301,4.6301,3.6835,3.711,3.7287,3.7839,3.8441,3.8843,3.8894,3.9371,3.9471,3.8894,3.8768,3.8341,3.7261,3.7588,3.7538,3.6557,3.7336,3.7663,3.7235,3.716,3.7135,3.7135,3.6083,3.5533,3.5583,3.4477,3.3972,3.4123,3.3872,3.3545,3.319,3.3545,3.3194,3.2269,3.385,3.4073,3.3381,3.5401,3.7263,3.884,3.8946,3.9992,4.1232,3.92,3.8289,3.7948,3.6943,3.6499,3.6557,3.7588,3.7965,3.8015,3.8065,3.8818,3.9697,3.9697,3.9697,3.9955,4.1094,4.1518,4.1887,4.3026,4.4279,4.5252,4.5366,4.6358,4.7268,4.7377,4.5572,4.3487,4.2059,4.1789,4.213,4.3231,4.453,4.5817,4.6957,4.7189,4.6769,4.5537,4.3862,4.2131,4.0499,4.0165,3.9571,3.8425,4.0386,4.2822,4.5658,4.3465,4.2505,4.3361,4.4795,4.4743,4.3017,4.437,4.4629,4.3714,4.324,4.3014,4.3014,4.3014,4.3014,4.3039,4.3564,4.4066,4.4439,4.4564,4.497,4.5497,4.5547,4.5874,4.6301,4.6301,4.6301,4.6301,3.7588,3.7688,3.7864,3.8441,3.8743,3.9019,3.9346,3.9546,3.9522,3.8969,3.8894,3.8718,3.8266,3.809,3.7839,3.7387,3.7739,3.7764,3.7235,3.721,3.706,3.6733,3.6281,3.6031,3.6031,3.5255,3.4853,3.4853,3.4527,3.4274,3.4048,3.3621,3.319,3.2767,3.3445,3.3847,3.4186,3.5818,3.7079,3.8076,3.9123,3.9507,3.9398,3.8469,3.7678,3.701,3.657,3.6607,3.6959,3.7386,3.7739,3.8115,3.8793,3.932,3.9697,3.9697,4.0236,4.097,4.1468,4.2714,4.3999,4.4512,4.5598,4.655,4.655,4.6931,4.7309,4.7309,4.5275,4.3337,4.2834,4.2738,4.317,4.4419,4.5711,4.6704,4.7244,4.6929,4.6102,4.45,4.2974,4.1449,3.9934,3.9821,3.9952,4.0214,4.1462,4.2635,4.3554,4.2789,4.2481,4.276,4.4108,4.4075,4.2514,4.4189,4.4448,4.3313,4.3115,4.3014,4.3014,4.3313,4.384,4.4497,4.4342,4.4765,4.5623,4.5271,4.5472,4.5974,4.5974,4.6125,4.6301,4.6301,4.6301,4.6301,3.8241,3.8266,3.8442,3.9044,3.9145,3.9271,3.9647,3.9697,3.9546,3.9195,3.9145,3.9019,3.8668,3.8391,3.8191,3.8015,3.8316,3.8266,3.7738,3.7537,3.7286,3.6884,3.6581,3.6405,3.6405,3.5807,3.5508,3.5508,3.4979,3.4628,3.4452,3.3847,3.3492,3.3366,3.3646,3.4148,3.4793,3.6139,3.7039,3.7638,3.8888,3.8872,3.8062,3.7746,3.7103,3.643,3.6581,3.6884,3.7261,3.7587,3.7964,3.8391,3.9195,3.9572,3.9774,4.016,4.092,4.1764,4.2496,4.4022,4.5508,4.5869,4.6638,4.7309,4.7309,4.7309,4.7084,4.6344,4.5047,4.3834,4.3074,4.3551,4.4349,4.5252,4.6631,4.7519,4.7339,4.6869,4.5895,4.4066,4.2546,4.0927,3.9158,3.937,3.9855,4.0509,4.1622,4.2182,4.2025,4.1924,4.195,4.2095,4.3811,4.3939,4.2215,4.4086,4.4345,4.3014,4.3014,4.309,4.3237,4.379,4.4568,4.5502,4.5045,4.5422,4.6276,4.5899,4.5949,4.6301,4.6301,4.6301,4.6301,4.6301,4.6301,4.6301,3.8768,3.8894,3.907,3.9597,3.9697,3.9697,3.9697,3.9697,3.9697,3.9697,3.9697,3.9245,3.814,3.8542,3.8642,3.8065,3.9019,3.9446,3.8919,3.8316,3.799,3.799,3.6959,3.6405,3.6405,3.5807,3.5508,3.5508,3.4979,3.4427,3.3922,3.4427,3.4377,3.3947,3.5004,3.5182,3.4818,3.656,3.7602,3.8107,3.8107,3.8107,3.7971,3.6849,3.6405,3.648,3.7009,3.721,3.7386,3.8492,3.8869,3.8894,3.8894,3.9271,3.9955,4.1219,4.1591,4.2157,4.4651,4.5366,4.5711,4.6975,4.7287,4.7309,4.7309,4.7309,4.6594,4.4069,4.4512,4.4604,4.2108,4.3693,4.5366,4.5389,4.7036,4.8057,4.7399,4.7309,4.6577,4.4613,4.2818,4.0536,3.7621,3.8292,3.8737,3.8364,4.0432,4.1934,4.2471,4.0874,4.0401,4.139,4.3927,4.4291,4.224,4.4113,4.4398,4.3014,4.3014,4.3291,4.3815,4.4367,4.4945,4.5497,4.5472,4.5799,4.6301,4.6301,4.6301,4.6301,4.6301,4.6301,4.6301,4.6301,4.6301,4.6301,3.9421,3.9446,3.9496,3.9672,3.9697,3.9697,3.9697,3.9697,3.9697,3.9697,3.9697,3.9546,3.9195,3.932,3.9371,3.917,3.9496,3.9471,3.8944,3.8718,3.8266,3.7487,3.7135,3.6758,3.6405,3.6205,3.5906,3.5508,3.5755,3.5353,3.4452,3.4981,3.4954,3.4477,3.5182,3.5631,3.5972,3.7293,3.7521,3.701,3.7792,3.7843,3.7457,3.7078,3.7185,3.7513,3.7688,3.799,3.8416,3.8768,3.9145,3.96,4.0485,4.0864,4.1069,4.1493,4.2834,4.4373,4.5184,4.6054,4.677,4.7222,4.7309,4.7309,4.7309,4.7309,4.6814,4.5138,4.5115,4.5161,4.4326,4.4863,4.5834,4.7162,4.7517,4.7698,4.7938,4.7168,4.5481,4.242,4.1814,4.0318,3.6941,3.7626,3.8389,3.8619,3.937,4.0247,4.1298,4.1148,4.0803,4.0262,4.2163,4.3058,4.2738,4.4094,4.4523,4.4091,4.4091,4.4392,4.4945,4.5121,4.5522,4.605,4.605,4.615,4.6301,4.6301,4.6301,4.6301,4.6301,4.6301,4.6301,4.6301,4.6301,4.6301,3.9697,3.9697,3.9697,3.9697,3.9697,3.9697,3.9697,3.9697,3.9697,3.9697,3.9697,3.9697,3.9697,3.9697,3.9697,3.9697,3.9697,3.9546,3.922,3.9019,3.8592,3.7864,3.7436,3.7034,3.6708,3.6482,3.623,3.5832,3.623,3.6055,3.5355,3.5882,3.6058,3.5932,3.6284,3.6659,3.7057,3.7769,3.765,3.7081,3.7792,3.7831,3.7487,3.7487,3.7713,3.804,3.8266,3.8592,3.8919,3.9145,3.9421,3.9904,4.1194,4.1936,4.2398,4.2882,4.4139,4.5508,4.5958,4.6682,4.7309,4.7309,4.7309,4.7309,4.7309,4.7309,4.6953,4.5666,4.5779,4.5958,4.5508,4.5779,4.6572,4.8066,4.7938,4.7728,4.7908,4.701,4.5119,4.1964,4.1573,4.0356,3.7263,3.7976,3.86,3.8521,3.9297,3.9981,4.0351,4.0895,4.1004,4.0654,4.1833,4.2864,4.3589,4.4292,4.4589,4.4589,4.4815,4.5146,4.5497,4.5698,4.5974,4.6301,4.6301,4.6301,4.6301,4.6301,4.6301,4.6326,4.6522,4.6502,4.6326,4.6552,4.6471,4.6301,3.9697,3.9697,3.9697,3.9697,3.9697,3.9697,3.9697,3.9697,3.9697,3.9697,3.9697,3.9697,3.9697,3.9697,3.9697,3.9697,3.9697,3.9697,3.9697,3.9245,3.8944,3.8894,3.7889,3.7311,3.7261,3.6758,3.6507,3.6507,3.6507,3.6507,3.6533,3.701,3.7513,3.8015,3.8015,3.8015,3.8015,3.8015,3.8015,3.8015,3.8015,3.804,3.8065,3.8065,3.809,3.8191,3.8768,3.8944,3.9019,3.9521,3.9774,4.0057,4.1344,4.2593,4.3858,4.5047,4.5457,4.5779,4.6975,4.7309,4.7309,4.7309,4.7309,4.7309,4.7309,4.7309,4.6975,4.5779,4.6484,4.6953,4.5756,4.6535,4.7578,4.8199,4.8319,4.8079,4.7399,4.6685,4.5285,4.2767,4.1859,4.0535,3.8269,3.9009,3.922,3.8191,4.0048,4.0826,3.9923,4.04,4.1128,4.2187,4.2838,4.3639,4.464,4.469,4.4715,4.4715,4.5296,4.5547,4.5573,4.6075,4.6301,4.6301,4.6301,4.6301,4.6301,4.6301,4.6301,4.6346,4.6898,4.6772,4.6376,4.6898,4.6747,4.6301,3.9697,3.9697,3.9697,3.9697,3.9697,3.9697,3.9697,3.9697,3.9697,3.9697,3.9697,3.9697,3.9697,3.9697,3.9697,3.9697,3.9697,3.9697,3.9697,3.9572,3.9346,3.8919,3.8642,3.8291,3.7814,3.7688,3.7613,3.7613,3.7613,3.7613,3.7638,3.7764,3.7889,3.8015,3.8015,3.8015,3.8015,3.8015,3.8015,3.8015,3.8015,3.8266,3.8693,3.8693,3.8944,3.932,3.9446,3.9522,3.9521,3.9647,4.0338,4.1369,4.2641,4.3929,4.5024,4.5298,4.6099,4.6931,4.7222,4.7309,4.7309,4.7309,4.7309,4.7309,4.7309,4.7309,4.7222,4.6909,4.7084,4.7222,4.6909,4.7523,4.8139,4.8289,4.8319,4.8079,4.7399,4.6315,4.4525,4.1583,4.1066,4.0036,3.7636,3.8439,3.9145,3.9295,4.0148,4.0953,4.1582,4.2135,4.2336,4.2185,4.3969,4.502,4.5271,4.5698,4.5924,4.5924,4.605,4.6125,4.6125,4.625,4.6301,4.6301,4.6301,4.6301,4.6301,4.6301,4.6301,4.6346,4.6898,4.6772,4.6376,4.6898,4.6747,4.6301,3.9697,3.9697,3.9697,3.9697,3.9697,3.9697,3.9697,3.9697,3.9697,3.9697,3.9697,3.9697,3.9697,3.9697,3.9697,3.9697,3.9697,3.9697,3.9697,3.9697,3.9572,3.9296,3.9019,3.8743,3.8417,3.814,3.8015,3.8015,3.8266,3.8391,3.8441,3.8668,3.8768,3.8768,3.8768,3.8768,3.8768,3.8768,3.8768,3.8768,3.8768,3.8969,3.9271,3.9271,3.9446,3.9697,3.9697,3.9697,3.98,4.0364,4.1019,4.1912,4.3787,4.484,4.5531,4.6099,4.6748,4.7309,4.7309,4.7309,4.7309,4.7309,4.7309,4.7309,4.7309,4.7309,4.7309,4.7309,4.7309,4.7399,4.7698,4.7788,4.8027,4.8648,4.7967,4.7076,4.6211,4.5148,4.3363,4.03,4.06,4.034,3.8541,3.9597,4.0426,4.0424,4.143,4.2158,4.2537,4.3567,4.3894,4.3288,4.4719,4.5623,4.5849,4.615,4.6301,4.6301,4.6301,4.6451,4.6647,4.6396,4.6421,4.6647,4.6426,4.6301,4.6301,4.6301,4.6301,4.6346,4.6898,4.6772,4.6376,4.6898,4.6747,4.6301,3.9697,3.9697,3.9697,3.9697,3.9697,3.9697,3.9697,3.9697,3.9697,3.9697,3.9697,3.9697,3.9697,3.9697,3.9697,3.9697,3.9697,3.9697,3.9697,3.9697,3.9697,3.9697,3.9271,3.9019,3.9019,3.8517,3.8266,3.8266,3.8768,3.9019,3.9019,3.9497,3.9697,3.9697,3.9697,3.9697,3.9697,3.9697,3.9697,3.9697,3.9697,3.9697,3.9697,3.9697,3.9697,3.9697,3.9697,3.9801,4.016,4.1244,4.1862,4.2544,4.4697,4.5531,4.5891,4.6975,4.7309,4.7309,4.7309,4.7309,4.7309,4.7309,4.7309,4.7309,4.7309,4.7369,4.7459,4.7459,4.7549,4.7788,4.8349,4.7967,4.7938,4.8977,4.7477,4.5774,4.4595,4.3605,4.2049,3.9458,4.0402,4.0923,4.0027,4.1306,4.2034,4.1578,4.2961,4.3664,4.3391,4.4794,4.5422,4.4991,4.5397,4.5824,4.6301,4.6301,4.6301,4.6301,4.6401,4.6622,4.6973,4.6572,4.6622,4.6948,4.6496,4.6301,4.6301,4.6301,4.6301,4.6346,4.6898,4.6772,4.6376,4.6898,4.6747,4.6301,3.9697,3.9697,3.9697,3.9697,3.9697,3.9697,3.9697,3.9697,3.9697,3.9697,3.9697,3.9697,3.9697,3.9697,3.9697,3.9697,3.9697,3.9697,3.9697,3.9697,3.9697,3.9697,3.9622,3.9597,3.9597,3.9471,3.9446,3.9446,3.9521,3.9597,3.9572,3.9647,3.9697,3.9697,3.9697,3.9697,3.9697,3.9697,3.9697,3.9697,3.9697,3.9697,3.9697,3.9697,3.9697,3.9697,3.9697,4.0389,4.1344,4.1517,4.3026,4.4886,4.5275,4.6144,4.704,4.7244,4.7309,4.7309,4.7309,4.7309,4.7309,4.7309,4.7309,4.7309,4.7309,4.7728,4.8147,4.8147,4.8588,4.9007,4.9127,4.9067,4.8858,4.8528,4.6859,4.5183,4.3914,4.227,4.0994,4.041,4.0516,4.0761,4.1001,4.1758,4.2336,4.2713,4.3388,4.4192,4.5075,4.5799,4.6321,4.6697,4.6346,4.6225,4.6301,4.6301,4.6301,4.6326,4.6747,4.6772,4.6451,4.6798,4.6772,4.6426,4.6351,4.6301,4.6301,4.6301,4.6301,4.6346,4.6898,4.6772,4.6376,4.6898,4.6747,4.6301,3.9697,3.9697,3.9697,3.9697,3.9697,3.9697,3.9697,3.9697,3.9798,4.0099,4.0149,4.0249,4.0524,4.03,4.0149,4.0149,3.9873,3.9697,3.9697,3.9697,3.9697,3.9697,3.9697,3.9697,3.9697,3.9697,3.9697,3.9697,3.9697,3.9697,3.9697,3.9697,3.9697,3.9697,3.9697,3.9697,3.9697,3.9697,3.9697,3.9697,3.9697,3.9697,3.9697,3.9697,3.9697,3.98,4.0491,4.1094,4.1813,4.3194,4.4419,4.5531,4.6211,4.6814,4.7309,4.7309,4.7309,4.7309,4.7309,4.7309,4.7309,4.7309,4.7309,4.7309,4.7309,4.7818,4.8319,4.8319,4.8828,4.9396,4.9733,4.9224,4.8663,4.8305,4.6353,4.4356,4.2749,4.171,4.0875,4.0181,4.0893,4.163,4.2158,4.271,4.3263,4.3815,4.4091,4.4744,4.5874,4.6175,4.6702,4.75,4.7305,4.7179,4.7179,4.6903,4.6722,4.6722,4.6973,4.6973,4.6722,4.6998,4.6973,4.6697,4.6451,4.6301,4.6301,4.6301,4.6301,4.6346,4.6898,4.6948,4.6747,4.7023,4.6948,4.6672,3.9697,3.9697,3.9747,3.9873,3.9772,3.9747,3.9873,3.9898,4.0049,4.045,4.06,4.0851,4.1277,4.0826,4.0499,4.0499,4.0023,3.9697,3.9697,3.9697,3.9697,3.9697,3.9697,3.9697,3.9697,3.9697,3.9697,3.9697,3.9697,3.9697,3.9697,3.9697,3.9697,3.9697,3.9697,3.9697,3.9697,3.9697,3.9697,3.9697,3.9697,3.9697,3.9697,3.9697,3.9878,4.0262,4.1244,4.1985,4.2786,4.4748,4.5598,4.6003,4.6997,4.7309,4.7309,4.7309,4.7309,4.7309,4.7309,4.7309,4.7309,4.7309,4.7309,4.7309,4.7309,4.7938,4.8528,4.8528,4.9187,4.9883,5.0338,4.9501,4.8579,4.808,4.5877,4.3579,4.1859,4.1243,4.0822,4.033,4.1532,4.2637,4.3316,4.3865,4.4367,4.4794,4.4916,4.5417,4.6421,4.6597,4.7179,4.8259,4.8033,4.7908,4.7908,4.7475,4.7274,4.7274,4.7425,4.74,4.7274,4.7274,4.7274,4.7249,4.6602,4.6376,4.6502,4.6351,4.6301,4.6351,4.6747,4.6998,4.7074,4.6973,4.6998,4.7023,3.9697,3.9697,3.9848,4.0349,4.0023,3.9873,4.0375,4.0424,4.0475,4.0474,4.0926,4.1277,4.1302,4.0826,4.0499,4.0499,4.0023,3.9697,3.9697,3.9697,3.9697,3.9697,3.9697,3.9697,3.9697,3.9697,3.9697,3.9697,3.9697,3.9697,3.9697,3.9697,3.9697,3.9697,3.9697,3.9697,3.9697,3.9697,3.9697,3.9697,3.9697,3.9697,3.9697,3.9697,4.044,4.1493,4.1566,4.3122,4.5161,4.5343,4.6188,4.7171,4.7287,4.7309,4.7309,4.7309,4.7309,4.7309,4.7309,4.7309,4.7309,4.7309,4.7309,4.7309,4.7309,4.8319,4.9239,4.9239,5.0182,5.1056,5.1116,5.0548,4.9469,4.774,4.5298,4.3183,4.1813,4.0567,4.038,4.1835,4.2562,4.3366,4.4364,4.502,4.5372,4.5422,4.5899,4.6421,4.7023,4.75,4.8309,4.9439,4.846,4.7908,4.7908,4.7883,4.7857,4.7857,4.8416,4.836,4.7857,4.7857,4.7857,4.7782,4.6753,4.6572,4.6998,4.6496,4.6301,4.6301,4.6351,4.6647,4.7048,4.6522,4.6672,4.7023,3.9772,3.9973,4.0275,4.0449,4.035,4.0248,4.0449,4.0775,4.1001,4.1001,4.1505,4.1856,4.1856,4.1327,4.0851,4.0524,4.0023,3.9697,3.9697,3.9697,3.9697,3.9697,3.9697,3.9697,3.9697,3.9697,3.9697,3.9697,3.9697,3.9697,3.9697,3.9697,3.9697,3.9697,3.9697,3.9697,3.9697,3.9697,3.9697,3.9697,3.9697,3.9697,3.98,4.0567,4.1169,4.1813,4.3385,4.4581,4.5531,4.6299,4.6909,4.7309,4.7309,4.7309,4.7309,4.7309,4.7309,4.7399,4.7818,4.7608,4.7309,4.7309,4.7309,4.7429,4.7818,4.8648,4.9396,4.9793,5.0578,5.1206,5.1206,4.9976,4.8586,4.7405,4.5034,4.3032,4.2083,4.1829,4.1984,4.2612,4.3463,4.4292,4.507,4.5372,4.5623,4.5974,4.6471,4.7023,4.7581,4.846,4.9138,4.959,4.9188,4.8962,4.8962,4.8611,4.8466,4.8466,4.8693,4.846,4.7908,4.8284,4.8234,4.7857,4.7099,4.6898,4.7074,4.6873,4.6597,4.6376,4.7029,4.7199,4.7124,4.7224,4.7199,4.7124,3.9798,4.0149,4.0549,4.0725,4.06,4.0626,4.0978,4.1354,4.1605,4.1605,4.211,4.2414,4.2238,4.1656,4.1102,4.0549,4.0023,3.9697,3.9697,3.9697,3.9697,3.9697,3.9848,3.9948,3.9948,3.9948,3.9948,3.9948,3.9772,3.9697,3.9697,3.9697,3.9697,3.9697,3.9697,3.9697,3.9697,3.9697,3.9697,3.9697,3.9697,3.9697,3.9826,4.1094,4.1838,4.2471,4.4627,4.5666,4.6144,4.7019,4.7309,4.7309,4.7309,4.7145,4.6956,4.7,4.7126,4.7459,4.8357,4.8289,4.7908,4.7908,4.7908,4.8027,4.8528,4.9127,4.9703,5.0129,5.0727,5.1058,5.065,4.945,4.808,4.6679,4.494,4.3517,4.2806,4.3014,4.3363,4.3743,4.4443,4.5196,4.5924,4.5999,4.6225,4.6778,4.7124,4.7575,4.8159,4.9088,4.959,4.959,4.959,4.959,4.959,4.9245,4.9069,4.9069,4.9069,4.8812,4.8435,4.8693,4.8693,4.8385,4.7651,4.745,4.7631,4.7249,4.6873,4.6622,4.735,4.7525,4.74,4.7751,4.7807,4.7682,3.9798,4.0149,4.0675,4.1227,4.0851,4.0877,4.2037,4.2213,4.2213,4.2213,4.2663,4.2788,4.2235,4.1656,4.1102,4.0524,3.9998,3.9697,3.9697,3.9697,3.9697,3.9697,4.0224,4.0499,4.0499,4.0499,4.0499,4.0499,3.9973,3.9697,3.9697,3.9697,3.9697,3.9697,3.9697,3.9697,3.9697,3.9697,3.9697,3.9697,3.9697,3.9723,3.9852,4.1119,4.2398,4.3693,4.4978,4.6233,4.7309,4.7287,4.7287,4.7287,4.7287,4.6762,4.6246,4.6362,4.68,4.7525,4.8937,4.9307,4.9307,4.9277,4.9277,4.9277,4.9307,4.9763,5.0196,5.0196,5.0734,5.0769,4.9431,4.9186,4.8264,4.5449,4.4994,4.4717,4.3913,4.3815,4.4242,4.5347,4.5497,4.5924,4.6998,4.7099,4.7324,4.7857,4.7908,4.8159,4.8768,4.9289,4.959,4.959,4.959,4.959,4.959,4.959,4.959,4.959,4.959,4.959,4.9565,4.9069,4.912,4.954,4.841,4.8234,4.8718,4.7575,4.7124,4.7124,4.7124,4.7425,4.7908,4.7908,4.8284,4.8718,3.9798,4.0149,4.0675,4.1227,4.1977,4.2448,4.2223,4.3337,4.3686,4.2372,4.2663,4.261,4.1654,4.1403,4.0926,4.0023,3.9798,3.9697,3.9697,4.0049,4.0275,4.0275,4.0399,4.0499,4.0499,4.0876,4.0876,4.0499,4.035,4.0074,3.9697,3.9697,3.9697,3.9697,3.9697,3.9697,3.9697,3.9697,3.9697,3.9697,3.9697,4.0236,4.1169,4.2447,4.3717,4.5001,4.6277,4.6975,4.7149,4.6277,4.5958,4.5888,4.5376,4.5725,4.6425,4.6834,4.7782,4.886,4.9709,4.992,4.9853,4.9396,4.9277,4.9396,4.9853,5.0069,5.0315,5.0817,5.0312,4.9679,4.9259,4.7917,4.6624,4.5763,4.5111,4.4653,4.44,4.4719,4.5121,4.5447,4.5824,4.6351,4.7023,4.7099,4.7324,4.7857,4.8284,4.8761,4.9314,4.9515,4.959,4.959,4.959,4.959,4.959,4.959,4.959,4.959,4.959,4.959,4.959,4.9414,4.9439,4.9565,4.8837,4.8642,4.8768,4.841,4.8033,4.7676,4.8134,4.8134,4.7958,4.836,4.836,4.8259,3.9798,4.0149,4.0675,4.1227,4.1999,4.2573,4.2524,4.3482,4.3778,4.2675,4.2788,4.2559,4.1428,4.1302,4.0951,4.0099,4.0224,4.035,4.035,4.0625,4.0826,4.0826,4.1053,4.1153,4.1153,4.148,4.1505,4.1153,4.0727,4.035,4.0023,3.9798,3.9798,3.9998,3.9798,3.9823,3.9998,3.9798,3.9823,4.005,4.0338,4.1049,4.2108,4.3958,4.514,4.5974,4.7221,4.751,4.71,4.6084,4.589,4.5911,4.4745,4.564,4.7169,4.7549,4.8412,4.9461,5.0349,5.0607,5.0518,5.0122,5.0055,5.0152,5.0518,5.0607,5.0558,5.0443,4.9752,4.8923,4.8042,4.6811,4.5856,4.5767,4.5298,4.5045,4.5217,4.5773,4.6125,4.6125,4.6627,4.7154,4.7732,4.7782,4.8008,4.8535,4.8912,4.927,4.9565,4.959,4.959,4.959,4.959,4.959,4.959,4.959,4.959,4.959,4.959,4.959,4.959,4.959,4.959,4.9565,4.927,4.9145,4.912,4.8894,4.8592,4.8284,4.8667,4.8592,4.8309,4.8887,4.8887,4.8636,3.9798,4.0099,4.06,4.1152,4.1441,4.1875,4.2715,4.3083,4.3247,4.3108,4.3048,4.264,4.164,4.1458,4.1152,4.0625,4.1026,4.1302,4.1302,4.1352,4.1378,4.1378,4.1959,4.2288,4.2288,4.2288,4.2263,4.2213,4.1153,4.06,4.0549,4.0074,4.0099,4.0549,4.0074,4.0124,4.0524,4.0049,4.0202,4.0815,4.1432,4.2112,4.3013,4.5411,4.6299,4.6437,4.7614,4.7538,4.6771,4.6115,4.6291,4.6519,4.4959,4.6183,4.824,4.837,4.8846,4.9655,5.087,5.1206,5.1206,5.1206,5.1236,5.1265,5.1206,5.1105,5.0704,4.9518,4.91,4.8291,4.6328,4.5912,4.5777,4.5531,4.5573,4.5799,4.6301,4.6823,4.7174,4.7174,4.76,4.8134,4.8743,4.8843,4.9095,4.9565,4.959,4.959,4.959,4.959,4.9687,4.9815,4.9687,4.9687,4.9815,4.9687,4.959,4.959,4.959,4.959,4.959,4.959,4.959,4.959,4.959,4.959,4.9565,4.9095,4.8868,4.8868,4.8868,4.8868,4.8944,4.9414,4.959,4.9515,3.9722,3.9798,4.0049,4.0575,4.2392,4.3315,4.1904,4.3808,4.5069,4.407,4.3377,4.3155,4.3517,4.2636,4.1756,4.1177,4.1225,4.1302,4.1302,4.1731,4.2009,4.2009,4.2537,4.2838,4.2838,4.2838,4.2612,4.2213,4.1934,4.158,4.1127,4.1001,4.1026,4.1127,4.1001,4.1026,4.1127,4.1001,4.1665,4.2735,4.2363,4.3547,4.5529,4.5608,4.5613,4.5664,4.5937,4.5286,4.4185,4.3475,4.3392,4.3685,4.4111,4.6115,4.8374,4.8864,4.9857,5.0846,5.1105,5.1206,5.1206,5.1206,5.1594,5.1858,5.1325,5.0383,4.9649,4.9795,4.8098,4.6598,4.6528,4.6011,4.5551,4.5506,4.62,4.6798,4.6898,4.7375,4.7732,4.7732,4.7832,4.8134,4.8743,4.9163,4.9464,4.959,4.959,4.959,4.959,4.959,5.0181,5.1429,5.0245,5.0213,5.146,5.0213,4.959,4.959,4.959,4.959,4.959,4.959,4.959,4.959,4.959,4.959,4.959,4.9464,4.9414,4.9414,4.9414,4.9414,4.9439,4.9565,4.959,4.9515,3.9747,3.9898,4.0249,4.0775,4.1828,4.2474,4.2149,4.3328,4.4098,4.3689,4.3259,4.304,4.3244,4.2624,4.206,4.1756,4.1957,4.2133,4.2133,4.2411,4.2587,4.2587,4.2838,4.3014,4.3014,4.3014,4.2864,4.2587,4.2338,4.2034,4.1731,4.1428,4.1453,4.1731,4.1428,4.1453,4.1706,4.1428,4.2078,4.3306,4.3304,4.4508,4.6356,4.6683,4.6402,4.5872,4.5872,4.5232,4.4221,4.3208,4.4143,4.5791,4.6075,4.7803,4.9751,5.005,5.065,5.1206,5.1206,5.1206,5.1265,5.1618,5.1409,5.1072,5.0695,5.0328,4.9738,4.8654,4.7271,4.6248,4.6142,4.5773,4.5673,4.6175,4.6722,4.7199,4.745,4.7983,4.8309,4.8309,4.856,4.8837,4.917,4.9414,4.959,4.959,4.959,4.995,5.0695,5.0014,5.0689,5.3066,5.1554,5.1142,5.1989,5.1174,5.0372,4.959,4.959,4.959,4.959,4.959,4.959,4.959,4.959,4.959,4.959,4.959,4.959,4.959,4.959,4.9439,4.927,4.949,4.9264,4.8761,3.9923,4.0275,4.0775,4.1227,4.1112,4.1344,4.2414,4.2747,4.2915,4.3051,4.3224,4.3174,4.2719,4.2475,4.2363,4.2363,4.2738,4.3014,4.3014,4.3014,4.3014,4.3014,4.3014,4.3014,4.3014,4.3014,4.3014,4.3014,4.2537,4.2363,4.2338,4.1831,4.1856,4.2311,4.1831,4.1882,4.2313,4.1924,4.2524,4.3746,4.4373,4.5397,4.6639,4.7465,4.7001,4.5888,4.5679,4.5264,4.4743,4.4129,4.6203,4.898,4.8572,4.9703,5.1206,5.1206,5.1206,5.1206,5.1206,5.1265,5.1428,5.175,5.1086,5.0226,4.9689,4.9924,4.9609,4.7312,4.6642,4.6313,4.5733,4.5698,4.6075,4.6948,4.7249,4.7525,4.7983,4.856,4.8944,4.8944,4.9314,4.959,4.959,4.959,4.959,4.959,4.959,5.0308,5.1927,5.0727,5.1486,5.4682,5.3248,5.2463,5.2631,5.2187,5.1278,4.9856,4.9668,4.959,4.959,4.959,4.959,4.959,4.959,4.959,4.959,4.959,4.959,4.959,4.949,4.9163,4.8868,4.9321,4.8786,4.7933,4.0425,4.0826,4.1227,4.1302,4.2133,4.2372,4.1036,4.3545,4.5029,4.3545,4.4149,4.4699,4.4621,4.3585,4.2889,4.2889,4.2964,4.3014,4.3014,4.3014,4.3014,4.3014,4.3014,4.3014,4.3014,4.3014,4.3014,4.3014,4.2939,4.2889,4.2889,4.2813,4.2813,4.2889,4.2813,4.2838,4.2947,4.351,4.4489,4.5738,4.5873,4.6783,4.7845,4.6353,4.5,4.3733,4.2655,4.2564,4.3282,4.5264,4.7035,4.8514,4.8922,5.0055,5.1206,5.1206,5.1206,5.1206,5.1206,5.1594,5.178,5.061,5.1023,5.1047,4.8432,4.7556,4.7312,4.7395,4.6466,4.5759,4.613,4.6572,4.6923,4.7074,4.7933,4.8617,4.8667,4.917,4.949,4.949,4.954,4.959,4.959,4.959,4.959,4.959,4.959,5.0308,5.1927,5.1803,5.313,5.628,5.4888,5.4432,5.5197,5.3067,5.1601,5.079,4.9984,4.959,4.959,4.959,4.959,4.959,4.959,4.959,4.959,4.959,4.959,4.954,4.9095,4.8868,4.8818,4.8894,4.846,4.7983,4.2112,4.2551,4.2939,4.2939,4.3127,4.3516,4.4094,4.4671,4.4856,4.4362,4.4061,4.3879,4.3879,4.3351,4.3014,4.3014,4.3014,4.3014,4.3014,4.3014,4.3014,4.3014,4.3014,4.3014,4.3014,4.3014,4.3014,4.3014,4.3014,4.3014,4.2989,4.2688,4.2713,4.2989,4.2333,4.2233,4.2595,4.3307,4.4185,4.5161,4.5907,4.6829,4.7567,4.6007,4.4604,4.3392,4.248,4.3483,4.5515,4.6922,4.8514,4.9981,5.0223,5.0722,5.1206,5.1206,5.1206,5.1265,5.1678,5.1367,5.0987,5.1106,5.0297,4.9226,4.8285,4.7259,4.6543,4.6799,4.6345,4.6024,4.6276,4.6722,4.7199,4.75,4.8234,4.8919,4.9188,4.9439,4.959,4.959,4.959,4.959,4.959,4.959,4.959,4.959,4.959,5.0695,5.3217,5.2486,5.3852,5.7915,5.5647,5.4843,5.5758,5.4171,5.301,5.2355,5.2311,5.133,4.959,4.959,4.959,4.959,4.959,4.959,4.959,4.959,4.959,4.954,4.9019,4.8793,4.8768,4.841,4.8134,4.7933]},{"header":{"parameterUnit":"m.s-1","parameterCategory":1,"la1":30.6,"la2":28.766,"lo1":-90.7593,"lo2":-88.6598,"dy":0.0162,"dx":0.0183,"nx":116,"ny":114,"refTime":"2023-05-26T06:00:00:Z","depth":0,"parameterNumber":3,"parameterNumberName":"V-component_of_WINDS"},"data":[0.0,0.0,0.0,0.0,0.0,0.0,0.0,0.0,0.0,0.0,0.0,0.0,0.0,0.0,0.0,0.0,0.0,0.0,0.0,0.0,0.0,0.0,0.0,0.0,0.0,0.0,0.0,0.0,0.0,0.0,0.0,0.0,0.0,0.0,0.0,0.0,0.0,0.0,0.0,0.0,0.0,0.0,0.0,0.0,0.0,0.0,0.0,0.0,0.0,0.0,0.0,0.0,0.0,0.0,0.0,0.0,0.0,0.0,0.0,0.0,0.0,0.0,0.0,0.0,0.0,0.0,0.0,0.0,0.0,0.0,0.0,0.0,0.0,0.0,0.0,0.0,0.0,0.0,0.0,0.0,0.0,0.0,0.0,0.0,0.0,0.0,0.0,0.0,0.0,0.0,0.0,0.0,0.0,0.0,0.0,0.0,0.0,0.0,0.0,0.0,0.0,0.0,0.0,0.0,0.0,0.0,0.0,0.0,0.0,0.0,0.0,0.0,0.0,0.0,0.0,0.0,0.0,0.0,0.0,0.0,0.0,0.0,0.0,0.0,0.0,0.0,0.0,0.0,0.0,0.0,0.0,0.0,0.0,0.0,0.0,0.0,0.0,0.0,0.0,0.0,0.0,0.0,0.0,0.0,0.0,0.0,0.0,0.0,0.0,0.0,0.0,0.0,0.0,0.0,0.0,0.0,0.0,0.0,0.0,0.0,0.0,0.0,0.0,0.0,0.0,0.0,0.0,0.0,0.0,0.0,0.0,0.0,0.0,0.0,0.0,0.0,0.0,0.0,0.0,0.0,0.0,0.0,0.0,0.0,0.0,0.0,0.0,0.0,0.0,0.0,0.0,0.0,0.0,0.0,0.0,0.0,0.0,0.0,0.0,0.0,0.0,0.0,0.0,0.0,0.0,0.0,0.0,0.0,0.0,0.0,0.0,0.0,0.0,0.0,0.0,0.0,0.0,0.0,0.0,0.0,0.0,0.0,0.0,0.0,0.0,0.0,0.0,0.0,0.0,0.0,0.0,0.0,0.0,0.0,0.0,0.0,0.0,0.0,0.0,0.0,0.0,0.0,0.0,0.0,0.0,0.0,0.0,0.0,0.0,0.0,0.0,0.0,0.0,0.0,0.0,0.0,0.0,0.0,0.0,0.0,0.0,0.0,0.0,0.0,0.0,0.0,0.0,0.0,0.0,0.0,0.0,0.0,0.0,0.0,0.0,0.0,0.0,0.0,0.0,0.0,0.0,0.0,0.0,0.0,0.0,0.0,0.0,0.0,0.0,0.0,0.0,0.0,0.0,0.0,0.0,0.0,0.0,0.0,0.0,0.0,0.0,0.0,0.0,0.0,0.0,0.0,0.0,0.0,0.0,0.0,0.0,0.0,0.0,0.0,0.0,0.0,0.0,0.0,0.0,0.0,0.0,0.0,0.0,0.0,0.0,0.0,0.0,0.0,0.0,0.0,0.0,0.0,0.0,0.0,0.0,0.0,0.0,0.0,0.0,0.0,0.0,0.0,0.0,0.0,0.0,0.0,0.0,0.0,0.0,0.0,0.0,0.0,0.0,0.0,0.0,0.0,0.0,0.0,0.0,0.0,0.0,0.0,0.0,0.0,0.0,0.0,0.0,0.0,0.0,0.0,0.0,0.0,0.0,0.0,0.0,0.0,0.0,0.0,0.0,0.0,0.0,0.0,0.0,0.0,0.0,0.0,0.0,0.0,0.0,0.0,0.0,0.0,0.0,0.0,0.0,0.0,0.0,0.0,0.0,0.0,0.0,0.0,0.0,0.0,0.0,0.0,0.0,0.0,0.0,0.0,0.0,0.0,0.0,0.0,0.0,0.0,0.0,0.0,0.0,0.0,0.0,0.0,0.0,0.0,0.0,0.0,0.0,0.0,0.0,0.0,0.0,0.0,0.0,0.0,0.0,0.0,0.0,0.0,0.0,0.0,0.0,0.0,0.0,0.0,0.0,0.0,0.0,0.0,0.0,0.0,0.0,0.0,0.0,0.0,0.0,0.0,0.0,0.0,0.0,0.0,0.0,0.0,0.0,0.0,0.0,0.0,0.0,0.0,0.0,0.0,0.0,0.0,0.0,0.0,0.0,0.0,0.0,0.0,0.0,0.0,0.0,0.0,0.0,0.0,0.0,0.0,0.0,0.0,0.0,0.0,0.0,0.0,0.0,0.0,0.0,0.0,0.0,0.0,0.0,0.0,0.0,0.0,0.0,0.0,0.0,0.0,0.0,0.0,0.0,0.0,0.0,0.0,0.0,0.0,0.0,0.0,0.0,0.0,0.0,0.0,0.0,0.0,0.0,0.0,0.0,0.0,0.0,0.0,0.0,0.0,0.0,0.0,0.0,0.0,0.0,0.0,0.0,0.0,0.0,0.0,0.0,0.0,0.0,0.0,0.0,0.0,0.0,0.0,0.0,0.0,0.0,0.0,0.0,0.0,0.0,0.0,0.0,0.0,0.0,0.0,0.0,0.0,0.0,0.0,0.0,0.0,0.0,0.0,0.0,0.0,0.0,0.0,0.0,0.0,0.0,0.0,0.0,0.0,0.0,0.0,0.0,0.0,0.0,0.0,0.0,0.0,0.0,0.0,0.0,0.0,0.0,0.0,0.0,0.0,0.0,0.0,0.0,0.0,0.0,0.0,0.0,0.0,0.0,0.0,0.0,0.0,0.0,0.0,0.0,0.0,0.0,0.0,0.0,0.0,0.0,0.0,0.0,0.0,0.0,0.0,0.0,0.0,0.0,0.0,0.0,0.0,0.0,0.0,0.0,0.0,0.0,0.0,0.0,0.0,0.0,0.0,0.0,0.0,0.0,0.0,0.0,0.0,0.0,0.0,0.0,0.0,0.0,0.0,0.0,0.0,0.0,0.0,0.0,0.0,0.0,0.0,0.0,0.0,0.0,0.0,0.0,0.0,0.0,0.0,0.0,0.0,0.0,0.0,0.0,0.0,0.0,0.0,0.0,0.0,0.0,0.0,0.0,0.0,0.0,0.0,0.0,0.0,0.0,0.0,0.0,0.0,0.0,0.0,0.0,0.0,0.0,0.0,0.0,0.0,0.0,0.0,0.0,0.0,0.0,0.0,0.0,0.0,0.0,0.0,0.0,0.0,0.0,0.0,0.0,0.0,0.0,0.0,0.0,0.0,0.0,0.0,0.0,0.0,0.0,0.0,0.0,0.0,0.0,0.0,0.0,0.0,0.0,0.0,0.0,0.0,0.0,0.0,0.0,0.0,0.0,0.0,0.0,0.0,0.0,0.0,0.0,0.0,0.0,0.0,0.0,0.0,0.0,0.0,0.0,0.0,0.0,0.0,0.0,0.0,0.0,0.0,0.0,0.0,0.0,0.0,0.0,0.0,0.0,0.0,0.0,0.0,0.0,0.0,0.0,0.0,0.0,0.0,0.0,0.0,0.0,0.0,0.0,0.0,0.0,0.0,0.0,0.0,0.0,0.0,0.0,0.0,0.0,0.0,0.0,0.0,0.0,0.0,0.0,0.0,0.0,0.0,0.0,0.0,0.0,0.0,0.0,0.0,0.0,0.0,0.0,0.0,0.0,0.0,0.0,0.0,0.0,0.0,0.0,0.0,0.0,0.0,0.0,0.0,0.0,0.0,0.0,0.0,0.0,0.0,0.0,0.0,0.0,0.0,0.0,0.0,0.0,0.0,0.0,0.0,0.0,0.0,0.0,0.0,0.0,0.0,0.0,0.0,0.0,0.0,0.0,0.0,0.0,0.0,0.0,0.0,0.0,0.0,0.0,0.0,0.0,0.0,0.0,0.0,0.0,0.0,0.0,0.0,0.0,0.0,0.0,0.0,0.0,0.0,0.0,0.0,0.0,0.0,0.0,0.0,0.0,0.0,0.0,0.0,0.0,0.0,0.0,0.0,0.0,0.0,0.0,0.0,0.0,0.0,0.0,0.0,0.0,0.0,0.0,0.0,0.0,0.0,0.0,0.0,0.0,0.0,0.0,0.0,0.0,0.0,0.0,0.0,0.0,0.0,0.0,0.0,0.0,0.0,0.0,0.0,0.0,0.0,0.0,0.0,0.0,0.0,0.0,0.0,0.0,0.0,0.0,0.0,0.0,0.0,0.0,0.0,0.0,0.0,0.0,0.0,0.0,0.0,0.0,0.0,0.0,0.0,0.0,0.0,0.0,0.0,0.0,0.0,0.0,0.0,0.0,0.0,0.0,0.0,0.0,0.0,0.0,0.0,0.0,0.0,0.0,0.0,0.0,0.0,0.0,0.0,0.0,0.0,0.0,0.0,0.0,0.0,0.0,0.0,0.0,0.0,0.0,0.0,0.0,0.0,0.0,0.0,0.0,0.0,0.0,0.0,0.0,0.0,0.0,0.0,0.0,0.0,0.0,0.0,0.0,0.0,0.0,0.0,0.0,0.0,0.0,0.0,0.0,0.0,0.0,0.0,0.0,0.0,0.0,0.0,0.0,0.0,0.0,0.0,0.0,0.0,0.0,0.0,0.0,0.0,0.0,0.0,0.0,0.0,0.0,0.0,0.0,0.0,0.0,0.0,0.0,0.0,0.0,0.0,0.0,0.0,0.0,0.0,0.0,0.0,0.0,0.0,0.0,0.0,0.0,0.0,0.0,0.0,0.0,0.0,0.0,0.0,0.0,0.0,0.0,0.0,0.0,0.0,0.0,0.0,0.0,0.0,0.0,0.0,0.0,0.0,0.0,0.0,0.0,0.0,0.0,0.0,0.0,0.0,0.0,0.0,0.0,0.0,0.0,0.0,0.0,0.0,0.0,0.0,0.0,0.0,0.0,0.0,0.0,0.0,0.0,0.0,0.0,0.0,0.0,0.0,0.0,0.0,0.0,0.0,0.0,0.0,0.0,0.0,0.0,0.0,0.0,0.0,0.0,0.0,0.0,0.0,0.0,0.0,0.0,0.0,0.0,0.0,0.0,0.0,0.0,0.0,0.0,0.0,0.0,0.0,0.0,0.0,0.0,0.0,0.0,0.0,0.0,0.0,0.0,0.0,0.0,0.0,0.0,0.0,0.0,0.0,0.0,0.0,0.0,0.0,0.0,0.0,0.0,0.0,0.0,0.0,0.0,0.0,0.0,0.0,0.0,0.0,0.0,0.0,0.0,0.0,0.0,0.0,0.0,0.0,0.0,0.0,0.0,0.0,0.0,0.0,0.0,0.0,0.0,0.0,0.0,0.0,0.0,0.0,0.0,0.0,0.0,0.0,0.0,0.0,0.0,0.0,0.0,0.0,0.0,0.0,0.0,0.0,0.0,0.0,0.0,0.0,0.0,0.0,0.0,0.0,0.0,0.0,0.0,0.0,0.0,0.0,0.0,0.0,0.0,0.0,0.0,0.0,0.0,0.0,0.0,0.0,0.0,0.0,0.0,0.0,0.0,0.0,0.0,0.0,0.0,0.0,0.0,0.0,0.0,0.0,0.0,0.0,0.0,0.0,0.0,0.0,0.0,0.0,0.0,0.0,0.0,0.0,0.0,0.0,0.0,0.0,0.0,0.0,0.0,0.0,0.0,0.0,0.0,0.0,0.0,0.0,0.0,0.0,0.0,0.0,0.0,0.0,0.0,0.0,0.0,0.0,0.0,0.0,0.0,0.0,0.0,0.0,0.0,0.0,0.0,0.0,0.0,0.0,0.0,0.0,0.0,0.0,0.0,0.0,0.0,0.0,0.0,0.0,0.0,0.0,0.0,0.0,0.0,0.0,0.0,0.0,0.0,0.0,0.0,0.0,0.0,0.0,0.0,0.0,0.0,0.0,0.0,0.0,0.0,0.0,0.0,0.0,0.0,0.0,0.0,0.0,0.0,0.0,0.0,0.0,0.0,0.0,0.0,0.0,0.0,0.0,0.0,0.0,0.0,0.0,0.0,0.0,0.0,0.0,0.0,0.0,0.0,0.0,0.0,0.0,0.0,0.0,0.0,0.0,0.0,0.0,0.0,0.0,0.0,0.0,0.0,0.0,0.0,0.0,0.0,0.0,0.0,0.0,0.0,0.0,0.0,0.0,0.0,0.0,0.0,0.0,0.0,0.0,0.0,0.0,0.0,0.0,0.0,0.0,0.0,0.0,0.0,0.0,0.0,0.0,3.4168,3.3283,0.0,0.0,0.0,0.0,0.0,0.0,0.0,0.0,0.0,0.0,0.0,0.0,0.0,0.0,0.0,0.0,0.0,0.0,0.0,0.0,0.0,0.0,0.0,0.0,0.0,0.0,0.0,0.0,0.0,0.0,0.0,0.0,0.0,0.0,0.0,0.0,0.0,0.0,3.1983,3.2405,3.1979,3.2257,3.2523,3.2798,0.0,0.0,0.0,0.0,0.0,0.0,0.0,0.0,0.0,0.0,0.0,0.0,0.0,0.0,0.0,0.0,0.0,0.0,0.0,0.0,0.0,0.0,0.0,0.0,0.0,0.0,0.0,0.0,0.0,0.0,0.0,0.0,0.0,0.0,0.0,0.0,0.0,0.0,0.0,0.0,0.0,0.0,0.0,0.0,0.0,0.0,0.0,0.0,0.0,0.0,0.0,0.0,0.0,0.0,0.0,0.0,0.0,0.0,0.0,0.0,0.0,0.0,0.0,0.0,0.0,0.0,0.0,0.0,0.0,0.0,3.4988,3.4268,0.0,0.0,0.0,0.0,0.0,0.0,0.0,0.0,0.0,0.0,0.0,0.0,0.0,0.0,0.0,0.0,0.0,0.0,0.0,0.0,0.0,0.0,0.0,3.2079,3.2542,3.2662,3.3275,3.3131,0.0,0.0,0.0,0.0,0.0,0.0,0.0,2.9612,3.1014,3.2961,3.2436,3.2573,3.332,3.2519,3.2478,3.2979,3.2475,0.0,0.0,0.0,0.0,0.0,0.0,0.0,0.0,0.0,0.0,0.0,0.0,0.0,0.0,0.0,0.0,0.0,0.0,0.0,0.0,0.0,0.0,0.0,0.0,0.0,0.0,0.0,0.0,0.0,0.0,0.0,0.0,0.0,0.0,0.0,0.0,0.0,0.0,0.0,0.0,0.0,0.0,0.0,0.0,0.0,0.0,0.0,0.0,0.0,0.0,0.0,0.0,0.0,0.0,0.0,0.0,0.0,0.0,0.0,0.0,0.0,0.0,0.0,3.908,3.908,3.9095,3.921,3.8639,3.7486,3.689,3.6287,3.5728,3.5764,0.0,0.0,0.0,0.0,0.0,0.0,0.0,0.0,0.0,0.0,0.0,0.0,0.0,0.0,0.0,0.0,0.0,0.0,0.0,0.0,0.0,3.2079,3.2721,3.3305,3.3979,3.4152,3.366,0.0,0.0,0.0,0.0,0.0,2.9789,3.066,3.1523,3.2394,3.25,3.2568,3.2632,3.2527,3.2496,3.254,3.1368,3.1186,3.1785,0.0,0.0,0.0,0.0,0.0,0.0,0.0,0.0,0.0,0.0,0.0,0.0,0.0,0.0,0.0,0.0,0.0,0.0,0.0,0.0,0.0,0.0,0.0,0.0,0.0,0.0,0.0,0.0,0.0,0.0,0.0,0.0,0.0,0.0,0.0,0.0,0.0,0.0,0.0,0.0,0.0,3.8388,3.7857,0.0,0.0,0.0,0.0,0.0,0.0,0.0,0.0,0.0,0.0,0.0,0.0,0.0,4.0087,4.0733,4.0766,4.0449,3.9846,3.9846,3.9846,3.9861,4.0453,4.0616,4.046,4.0895,0.0,3.6695,3.7732,0.0,0.0,0.0,0.0,0.0,0.0,0.0,0.0,0.0,0.0,0.0,0.0,0.0,0.0,0.0,0.0,0.0,0.0,0.0,0.0,0.0,3.2422,3.3335,3.4009,3.4667,3.4626,3.3611,3.2744,0.0,0.0,0.0,3.0812,3.1891,3.1941,3.1916,3.1791,3.2698,3.2722,3.1929,3.1929,3.1929,3.193,3.1752,3.2032,3.2699,3.3338,0.0,0.0,0.0,0.0,0.0,0.0,0.0,0.0,0.0,0.0,0.0,0.0,0.0,0.0,0.0,0.0,0.0,0.0,0.0,0.0,0.0,0.0,0.0,0.0,0.0,0.0,0.0,0.0,0.0,0.0,0.0,0.0,0.0,0.0,0.0,0.0,0.0,0.0,0.0,3.9199,3.9911,3.9167,3.9436,3.9067,0.0,0.0,0.0,0.0,0.0,0.0,0.0,0.0,0.0,4.1414,4.1383,4.1499,4.182,4.182,4.1855,4.1924,4.2275,4.2462,4.2489,4.3117,4.3194,4.2792,4.3063,4.2327,4.0929,4.0576,4.0445,4.0474,0.0,0.0,0.0,0.0,4.0605,4.0827,0.0,0.0,0.0,0.0,0.0,0.0,0.0,0.0,0.0,0.0,0.0,0.0,3.1631,3.2511,3.3335,3.4158,3.4877,3.4731,3.3483,3.3284,3.2963,3.2367,3.2303,3.2751,3.3679,3.3442,3.2848,3.1963,3.302,3.2942,3.1782,3.1597,3.1682,3.2065,3.2533,3.3036,3.3514,3.3768,3.4117,3.4503,0.0,0.0,0.0,0.0,0.0,0.0,0.0,0.0,0.0,0.0,0.0,0.0,0.0,0.0,0.0,0.0,0.0,0.0,0.0,0.0,0.0,0.0,0.0,0.0,0.0,0.0,0.0,0.0,0.0,0.0,0.0,0.0,0.0,0.0,0.0,0.0,0.0,4.0663,4.1404,4.0411,4.1292,4.1214,0.0,0.0,0.0,0.0,0.0,0.0,4.2428,4.1881,4.2157,4.3534,4.2919,4.2658,4.2875,4.3028,4.338,4.3946,4.4845,4.5254,4.5244,4.5882,4.5849,4.5312,4.5287,4.5244,4.5129,4.341,4.2587,4.2422,4.2504,4.2415,4.2155,4.1396,4.1115,4.107,0.0,0.0,0.0,0.0,0.0,0.0,0.0,0.0,0.0,0.0,0.0,3.0294,3.2331,3.1984,3.2123,3.3425,3.4158,3.4389,3.4006,3.3533,3.3213,3.3046,3.2564,3.2985,3.4529,3.5144,3.4797,3.3495,3.3559,3.3227,3.2533,3.1824,3.2199,3.3501,3.3443,3.3462,3.3514,3.3528,3.3902,3.4503,3.4503,0.0,0.0,0.0,0.0,0.0,0.0,0.0,0.0,0.0,0.0,0.0,0.0,0.0,0.0,0.0,0.0,0.0,0.0,0.0,0.0,0.0,0.0,0.0,0.0,0.0,0.0,0.0,0.0,0.0,0.0,0.0,0.0,0.0,0.0,0.0,0.0,0.0,0.0,4.1068,4.2808,0.0,0.0,0.0,0.0,4.2841,4.3546,4.4003,4.4074,4.35,4.3534,4.4331,4.3678,4.3707,4.4479,4.5045,4.5373,4.5407,4.684,4.751,4.7534,4.8178,4.8398,4.8359,4.8194,4.8082,4.7934,4.582,4.4504,4.3848,4.4373,4.4088,4.3286,4.2175,4.1768,4.1682,0.0,0.0,0.0,0.0,0.0,0.0,0.0,0.0,2.9536,3.043,3.0736,3.13,3.2491,3.2316,3.2512,3.3425,3.4122,3.4455,3.4317,3.4612,3.5359,3.6631,3.5707,3.5183,3.5236,3.5003,3.4248,3.2888,3.3814,3.3688,3.2615,3.2788,3.3116,3.3604,3.3511,3.3488,3.355,3.4408,3.444,3.3859,3.3859,3.3455,0.0,0.0,0.0,0.0,0.0,0.0,0.0,0.0,0.0,0.0,0.0,0.0,0.0,0.0,0.0,0.0,0.0,0.0,0.0,0.0,0.0,0.0,0.0,0.0,0.0,0.0,0.0,0.0,0.0,0.0,0.0,0.0,0.0,0.0,0.0,0.0,0.0,4.4613,4.6167,0.0,4.5082,4.5534,4.5936,4.5936,4.6483,4.7098,4.7653,4.6146,4.589,4.7204,4.5712,4.5436,4.6632,4.6877,4.7226,4.7711,4.8592,4.8763,4.8297,4.8961,4.8944,4.8397,4.8329,4.8296,4.825,4.7463,4.6372,4.514,4.4821,4.4195,4.3391,4.2648,4.2372,4.2302,0.0,0.0,0.0,0.0,0.0,0.0,0.0,0.0,3.0349,3.0752,3.1236,3.1807,3.2501,3.2562,3.279,3.3441,3.4345,3.4924,3.51,3.5591,3.6546,3.8079,3.7172,3.628,3.56,3.5103,3.4318,3.3193,3.4157,3.4133,3.3274,3.3508,3.3853,3.4252,3.3994,3.4013,3.4257,3.4924,3.4524,3.3484,3.3484,3.3245,3.2736,0.0,0.0,0.0,0.0,0.0,0.0,0.0,0.0,0.0,0.0,0.0,0.0,0.0,0.0,0.0,0.0,0.0,0.0,0.0,0.0,0.0,0.0,0.0,0.0,0.0,0.0,0.0,0.0,0.0,0.0,0.0,0.0,0.0,0.0,4.6365,4.7548,4.734,4.89,4.9472,4.8135,4.8377,4.8613,4.8613,4.8936,4.9282,4.9622,4.8074,4.7687,4.8774,4.7228,4.699,4.8159,4.838,4.87,4.921,5.0123,5.0279,4.9734,4.9917,4.9711,4.9104,4.8553,4.8296,4.8296,4.8296,4.7489,4.6205,4.5434,4.4782,4.4224,4.3401,4.328,4.3422,0.0,0.0,0.0,0.0,0.0,0.0,0.0,3.0576,3.1451,3.1473,3.1514,3.181,3.2453,3.2562,3.2846,3.3466,3.4794,3.5779,3.6252,3.636,3.6616,3.7075,3.6675,3.6156,3.5622,3.5577,3.5225,3.458,3.4604,3.4616,3.4604,3.3978,3.4362,3.5577,3.4889,3.4963,3.5509,3.4871,3.4174,3.3531,3.3546,3.3546,3.3711,0.0,0.0,0.0,0.0,0.0,0.0,0.0,0.0,0.0,0.0,0.0,0.0,0.0,0.0,0.0,0.0,0.0,0.0,0.0,0.0,0.0,0.0,0.0,0.0,0.0,0.0,0.0,0.0,0.0,0.0,0.0,0.0,0.0,4.5813,4.827,4.9877,4.9028,5.0846,5.186,5.0998,5.0912,5.0912,5.0875,5.0875,5.0556,4.9861,4.9186,4.8857,4.8905,4.8194,4.8194,4.8991,4.9575,4.9895,4.9917,5.1333,5.2024,5.1987,5.1169,5.0802,5.0655,4.903,4.8296,4.8296,4.8296,4.7846,4.702,4.6205,4.5883,4.5718,4.4409,4.4423,4.5012,0.0,0.0,0.0,0.0,0.0,0.0,0.0,3.1638,3.2343,3.2777,3.2905,3.3038,3.3211,3.2809,3.2959,3.3998,3.4913,3.5662,3.6126,3.6655,3.7094,3.7378,3.6794,3.6221,3.5675,3.461,3.4006,3.3858,3.4341,3.4616,3.4616,3.4911,3.5259,3.5577,3.4889,3.4703,3.4828,3.4168,3.4033,3.4293,3.4358,3.4703,3.523,0.0,0.0,0.0,0.0,0.0,0.0,0.0,0.0,0.0,0.0,0.0,0.0,0.0,0.0,0.0,0.0,0.0,0.0,0.0,0.0,0.0,0.0,0.0,0.0,0.0,0.0,0.0,0.0,0.0,0.0,0.0,4.9291,5.065,5.0258,5.1417,5.2663,5.3606,5.4264,5.4309,5.3497,5.3408,5.3188,5.259,5.2553,5.2454,5.2258,5.0593,5.0133,5.1167,4.9495,4.942,5.1191,5.1393,5.1729,5.2268,5.2674,5.2564,5.1987,5.1169,5.0472,4.9858,4.8783,4.8296,4.8296,4.8296,4.7899,4.7223,4.6285,4.5553,4.4984,4.4629,4.4995,4.5662,0.0,0.0,0.0,0.0,0.0,0.0,0.0,3.2661,3.3238,3.2975,3.3539,3.3724,3.3096,3.3454,3.3865,3.4225,3.5718,3.6564,3.6357,3.7074,3.748,3.7391,3.6779,3.6066,3.5267,3.4394,3.3985,3.4008,3.4423,3.4748,3.504,3.5407,3.56,3.5588,3.5179,3.5028,3.4981,3.4313,3.4898,3.6286,3.5768,3.5829,3.6213,3.6501,3.6837,3.7051,3.6754,3.7043,3.7447,3.6746,0.0,0.0,0.0,0.0,0.0,0.0,0.0,0.0,0.0,0.0,0.0,0.0,0.0,0.0,0.0,0.0,0.0,0.0,0.0,0.0,0.0,0.0,0.0,0.0,5.1903,5.3639,5.3959,5.4399,5.5049,5.5978,5.6088,5.5904,5.5464,5.4816,5.4255,5.3781,5.3444,5.3099,5.2843,5.1639,5.1351,5.216,5.0969,5.1054,5.2546,5.228,5.233,5.2747,5.2747,5.2492,5.2029,5.1543,5.0839,5.0078,4.9224,4.8483,4.7899,4.7899,4.7544,4.6925,0.0,0.0,0.0,0.0,4.5921,4.6001,0.0,0.0,0.0,0.0,0.0,0.0,0.0,3.367,3.4009,3.2598,3.3684,3.4039,3.2562,3.4108,3.4976,3.4332,3.6776,3.7951,3.7049,3.7509,3.7614,3.7125,3.661,3.5742,3.4499,3.4508,3.4508,3.4508,3.4508,3.4854,3.56,3.56,3.56,3.56,3.56,3.5633,3.5712,3.5163,3.6376,3.8535,3.7535,3.7144,3.7229,3.7836,3.8456,3.8935,3.8288,3.8479,3.8931,3.8276,0.0,0.0,0.0,0.0,0.0,0.0,0.0,0.0,0.0,0.0,0.0,0.0,0.0,0.0,0.0,0.0,0.0,0.0,0.0,0.0,0.0,0.0,0.0,0.0,5.4226,5.6062,5.6921,5.7068,5.7031,5.6957,5.6921,5.6861,5.6683,5.5426,5.4564,5.4381,5.3704,5.3029,5.2453,5.2335,0.0,0.0,0.0,5.2586,5.3229,5.2611,5.2268,5.2102,5.2102,5.2066,5.1982,5.1843,5.1386,5.0644,4.985,4.8707,4.7443,4.7443,4.697,4.6271,4.6129,4.6521,4.7155,4.7155,4.6748,4.6148,0.0,0.0,0.0,0.0,0.0,0.0,0.0,3.4313,3.4178,3.3288,3.3969,3.3971,3.249,3.3529,3.4446,3.4677,3.672,3.8167,3.8597,3.781,3.7097,3.659,3.6049,3.5144,3.3808,3.377,3.377,3.377,3.377,3.4411,3.56,3.56,3.56,3.56,3.56,3.5949,3.6581,3.6884,3.7432,3.8135,3.8894,3.9568,4.0073,3.9788,3.9727,3.985,3.9722,3.9688,3.9681,3.9659,3.9596,3.9621,4.033,4.0137,0.0,0.0,0.0,0.0,0.0,0.0,0.0,0.0,0.0,0.0,0.0,0.0,0.0,0.0,0.0,0.0,0.0,0.0,0.0,5.3775,5.5427,5.7068,5.8535,5.8756,5.8499,5.785,5.7776,5.7286,5.603,5.564,5.4927,5.3633,5.3373,5.3237,5.3098,5.2579,5.257,5.3071,5.2564,5.261,5.3282,5.3161,5.2772,5.2186,5.2186,0.0,5.1256,5.061,5.0232,5.0041,4.9209,4.8366,4.756,4.756,4.6797,4.568,4.5458,4.5488,4.5642,4.5642,4.5926,4.634,0.0,0.0,0.0,0.0,0.0,0.0,0.0,3.481,3.4776,3.4066,3.4607,3.4641,3.3501,3.4524,3.5267,3.533,3.653,3.7984,3.9545,3.7858,3.6831,3.696,3.5746,3.4628,3.3636,3.3274,3.309,3.309,3.3443,3.4128,3.511,3.543,3.5814,3.6197,3.6197,3.6637,3.7371,3.7627,3.8174,3.887,3.9247,3.9984,4.085,4.0294,4.0113,4.0113,4.0113,4.0073,4.0081,4.0488,4.0857,4.1234,4.206,4.2543,4.2597,0.0,0.0,0.0,0.0,0.0,0.0,0.0,0.0,0.0,0.0,0.0,0.0,0.0,0.0,5.1032,5.184,0.0,5.5379,5.659,5.7802,5.8866,5.9673,5.9783,5.9636,5.9245,5.9208,5.8738,5.7578,5.6742,5.582,5.4589,5.3823,5.3422,5.3422,5.3085,5.3054,5.3406,5.3085,5.3049,5.3361,5.2994,5.2418,5.1703,5.2074,5.1633,5.0554,5.0889,5.0645,4.9867,4.9478,4.8675,4.7626,4.7333,4.6776,4.6145,4.6036,4.5717,4.5332,4.5332,4.559,4.5903,0.0,0.0,0.0,0.0,0.0,0.0,0.0,3.5205,3.534,3.4618,3.5137,3.5273,3.437,3.5417,3.6148,3.6159,3.639,3.7496,3.9744,3.7837,3.6774,3.7144,3.5648,3.437,3.343,3.2882,3.2615,3.2615,3.3243,3.3944,3.462,3.543,3.6158,3.6799,3.6928,3.7427,3.8125,3.8223,3.8881,3.9813,3.9493,3.9918,4.0685,4.0279,4.0113,4.0113,4.0113,4.0113,4.0227,4.1087,4.2001,4.2856,4.3712,4.4919,4.5664,4.3713,4.424,0.0,0.0,0.0,0.0,0.0,0.0,0.0,0.0,4.9064,4.9811,5.0996,5.2391,5.3775,5.5097,5.6517,5.7912,5.9233,5.9967,6.0529,6.0811,6.0738,6.0725,6.1042,6.0542,5.979,5.8818,5.7604,5.6485,5.5577,5.4395,5.3653,5.3518,5.3518,5.3518,5.3518,5.3518,5.3461,5.3416,5.283,5.2165,5.141,5.203,5.1567,5.0272,5.1305,5.1113,4.992,4.964,4.8829,4.7706,4.7068,4.68,4.68,4.68,4.638,4.5734,4.5596,4.563,4.5654,0.0,0.0,0.0,0.0,0.0,0.0,0.0,0.0,3.534,3.4618,3.5137,3.5059,3.3683,3.4597,3.5799,3.6958,3.6412,3.6808,3.873,3.7946,3.6942,3.5928,3.5679,3.4689,3.2765,3.2656,3.2615,3.2615,3.3215,3.3863,3.4631,3.5965,3.6632,3.6724,3.7443,3.8193,3.8918,3.9376,3.9775,4.0093,4.0523,4.0496,4.0179,4.0138,4.0113,4.0113,4.0113,4.0113,4.0302,4.1577,4.2995,4.4463,4.5677,4.6765,4.7499,4.7214,4.633,4.5337,4.5066,4.5614,4.702,5.0425,5.0297,5.0668,0.0,5.5137,5.4363,5.6602,5.7776,5.8462,5.8646,5.938,6.004,6.0236,6.0346,6.0884,6.2316,6.1875,6.1912,6.3335,6.105,5.8735,5.7222,5.6915,5.6235,5.4822,5.4567,5.4194,5.3551,5.3518,5.3518,5.3518,5.3518,5.3484,5.3482,5.3416,5.2992,5.216,5.2278,5.1854,5.104,5.0574,5.0246,4.9993,4.8685,4.8029,4.7838,4.7086,4.68,4.68,4.68,4.6743,4.6578,4.5919,4.6103,4.6462,0.0,0.0,0.0,0.0,0.0,0.0,0.0,0.0,0.0,3.5171,3.5408,3.5363,3.4765,3.5396,3.6304,3.728,3.7026,3.754,3.9177,3.7863,3.7005,3.6931,3.529,3.4202,3.3734,3.2924,3.2725,3.3134,3.3769,3.4234,3.4558,3.5999,3.6946,3.7366,3.8191,3.8949,3.9639,3.9888,4.0009,4.0172,4.0796,4.0938,4.0811,4.1217,4.1115,4.0675,4.0235,4.0371,0.0,4.1388,4.2853,4.4615,4.5558,4.6713,4.763,4.7145,4.7118,4.7607,4.8873,4.9762,5.0811,5.2889,5.3592,5.4399,5.6748,5.6895,5.6895,5.8389,5.9722,6.0579,6.0552,6.1637,6.252,6.2443,6.2449,6.2667,6.3357,6.2695,6.2042,6.1815,6.0658,5.9583,5.8918,5.8038,5.7068,5.5956,5.5074,5.4465,5.416,5.3721,5.3518,5.3518,5.3518,5.3518,5.3518,5.3518,5.3112,5.23,5.2773,5.2367,5.1201,5.1319,5.0913,5.0083,4.9882,4.9341,4.8529,4.868,4.8477,4.8071,4.8071,4.8071,4.7936,4.6786,4.6549,4.6733,0.0,0.0,0.0,0.0,0.0,0.0,0.0,0.0,0.0,0.0,3.56,3.56,3.56,3.5952,3.6474,3.7231,3.73,3.783,3.9095,3.7811,3.7072,3.7172,3.5187,3.4115,3.422,3.3276,3.3006,3.3484,3.4166,3.4496,3.4526,3.6213,3.7279,3.7842,3.8853,3.9728,4.0392,4.0153,4.0163,4.0372,4.0868,4.0953,4.088,4.1394,4.1308,4.0795,4.05,4.0608,4.0925,4.1082,4.2468,4.4242,4.4936,4.6194,4.7299,4.6849,4.761,4.9034,5.1114,5.227,5.3214,5.4693,5.6088,5.7299,5.796,5.8767,5.9479,6.0041,6.1282,6.2133,6.1854,6.2843,6.3632,6.3564,6.3532,6.3603,6.3819,6.2967,6.187,6.0756,6.003,5.9633,5.9633,5.8634,5.7672,5.6853,5.5818,5.5108,5.4905,5.4397,5.4025,5.3822,5.3788,5.3721,5.3518,5.3518,5.3213,5.2638,5.3213,5.2942,5.1844,5.2164,5.1623,5.0439,5.0964,5.0592,4.9627,4.9965,4.9796,4.9289,4.9086,4.9018,4.8883,4.78,4.7394,4.7342,0.0,0.0,0.0,0.0,0.0,0.0,0.0,0.0,0.0,0.0,0.0,0.0,0.0,3.5622,3.5949,3.6751,3.6818,3.7131,3.7807,3.7794,3.7131,3.5725,3.5576,3.491,3.3576,3.35,3.3484,3.3484,3.419,3.4505,3.4536,3.6754,3.7772,3.7876,3.9394,4.0472,4.1118,4.0271,4.0315,4.0968,4.0772,4.0368,3.9839,3.9871,3.9885,4.006,4.0869,4.073,4.0201,4.072,4.2042,4.3532,4.4058,4.5348,4.6752,4.7299,4.7875,4.869,5.0388,5.1426,5.2784,5.593,5.7336,5.8584,6.0933,6.2071,6.2627,6.2618,6.3235,6.3579,6.2703,6.2611,6.2647,6.2631,6.265,6.2914,6.3708,6.2452,6.1432,6.1467,5.9382,5.797,5.797,5.7936,5.7579,5.6867,5.6765,5.6427,5.5699,5.5665,5.531,5.4566,5.4583,5.4228,5.3518,5.3518,5.3484,5.345,5.3484,5.3484,5.3399,5.2638,5.1894,5.1167,5.1201,5.1167,5.1066,5.0371,5.0083,5.0015,4.9289,4.9018,4.8984,4.8951,4.8951,4.8748,0.0,0.0,0.0,0.0,0.0,0.0,0.0,0.0,0.0,0.0,0.0,0.0,0.0,0.0,0.0,0.0,3.6334,3.6368,3.7094,3.6649,3.6309,3.6289,3.5385,3.486,3.4831,3.4398,3.4398,3.4831,3.504,3.537,3.5851,3.711,3.7903,3.8388,3.9436,4.0033,4.0246,3.9968,4.0206,4.0805,4.0814,4.0975,4.1135,4.0734,4.0318,3.9865,0.0,3.9495,3.9345,3.952,4.0565,4.1937,4.266,4.3486,4.4429,4.557,4.713,4.906,5.169,5.3765,5.5831,5.8499,5.9795,6.0738,6.2026,6.2536,6.2713,6.2628,6.2485,6.2091,6.1243,6.1603,6.1953,6.1893,6.2281,6.2857,6.3642,6.2784,6.1692,6.0705,5.9846,5.8964,5.7983,5.7442,5.7273,5.7509,5.707,5.6697,5.6443,5.5969,5.5378,5.4617,5.4617,5.4262,5.3518,5.3518,5.3518,5.3518,5.3518,5.3518,5.3484,5.3213,5.2672,5.1945,5.2486,5.2148,5.1235,5.1454,5.1285,5.0777,4.9999,4.9729,4.9661,4.9187,4.9323,4.9593,0.0,0.0,0.0,0.0,0.0,0.0,0.0,0.0,0.0,0.0,0.0,0.0,0.0,0.0,0.0,0.0,0.0,3.5791,3.6038,3.5558,3.5441,3.5845,3.4755,3.4578,3.5489,3.4607,3.4607,3.5519,3.525,3.5489,3.6181,3.6903,3.7467,3.7947,3.898,3.9602,3.9795,3.9345,3.9433,3.9791,3.9422,3.9293,3.9287,3.924,3.8784,0.0,3.8101,3.8091,3.8176,3.8697,3.985,4.1096,4.1565,4.2479,4.3614,4.5136,4.7385,5.0057,5.3221,5.5626,5.7755,5.9858,6.0794,6.1365,6.2098,6.2496,6.2536,6.1901,6.1436,6.0733,5.9323,5.9559,5.9916,5.984,6.0457,6.1264,6.2277,6.148,6.0622,6.0148,5.9641,5.9032,5.8355,5.7611,5.7374,5.7866,5.7442,5.7171,5.7171,5.6731,5.6156,5.5412,5.5141,5.4634,5.389,5.3619,5.3518,5.3518,5.3518,5.3518,5.3518,5.3518,5.3213,5.2773,5.3281,5.2942,5.2046,5.2232,5.2029,5.1505,5.0777,5.0473,5.0439,4.9965,5.0101,5.0405,0.0,0.0,0.0,0.0,0.0,0.0,0.0,0.0,0.0,0.0,0.0,0.0,0.0,0.0,0.0,0.0,0.0,0.0,3.4629,3.4616,3.4603,3.4505,3.3872,3.411,3.5394,3.4123,3.4077,3.5359,3.4751,3.4813,3.55,3.6227,3.6616,3.6708,3.8037,3.9051,3.9625,3.8368,3.7965,3.8042,3.6807,3.5667,3.4817,3.5651,3.5605,3.5275,3.6239,3.6676,3.6978,3.8451,3.9935,4.1163,4.1233,4.2565,4.4489,4.6244,4.8748,5.1689,5.493,5.6915,5.8433,6.0061,6.0475,6.0625,6.136,6.2052,6.2126,6.0512,6.0133,5.9375,5.7045,5.6664,5.6697,5.6799,5.7476,5.8543,6.0013,5.8998,5.8644,6.0013,5.893,5.8355,5.9047,5.8457,5.8035,5.8069,5.8001,5.7967,5.7967,5.7967,5.7577,5.6833,5.6105,5.5395,5.4668,5.3957,5.3619,5.3619,5.3619,5.3619,5.3619,5.3585,5.3551,5.3551,5.3518,5.3518,5.345,5.2672,5.2367,5.23,5.1539,5.1269,5.1235,5.1201,5.1235,5.1167,0.0,0.0,0.0,0.0,0.0,0.0,0.0,0.0,0.0,0.0,0.0,0.0,0.0,0.0,0.0,0.0,0.0,0.0,3.3093,3.3547,3.403,3.4474,3.4113,3.4043,3.4363,3.3357,3.3014,3.3342,3.3869,3.4467,3.5158,3.6081,3.6778,3.7168,3.6854,3.6832,3.6929,3.592,3.5787,3.6221,3.5376,3.5583,3.6327,3.5532,3.5959,3.6894,3.6693,3.7636,3.9037,3.9435,4.128,4.3655,4.5293,4.6597,4.8019,5.0675,5.2413,5.4062,5.6719,5.8156,5.9266,6.0843,6.1224,6.1258,6.1406,6.1168,6.0461,5.8832,5.7188,5.5741,5.455,5.4803,5.5513,5.663,5.8355,6.008,6.1603,6.1467,6.1197,6.1028,6.0655,6.052,6.0723,6.0013,5.9776,6.0385,5.937,5.8727,5.8727,5.8727,5.8152,5.6833,5.663,5.619,5.5428,5.5225,5.5124,5.5124,5.5124,5.5124,5.5124,5.4566,5.4329,5.4296,5.3754,5.3518,5.3484,5.3281,5.3179,5.3112,5.2334,5.2029,5.1961,5.1404,5.1539,5.1995,0.0,0.0,0.0,0.0,0.0,0.0,0.0,0.0,0.0,0.0,0.0,0.0,0.0,0.0,0.0,0.0,0.0,0.0,0.0,3.3125,3.348,3.3458,3.328,3.3219,3.3383,3.2278,3.2016,3.2593,3.2835,3.3309,3.3956,3.4508,3.4969,3.5282,3.5036,3.4963,3.489,3.4202,3.3987,0.0,0.0,3.3861,3.45,3.4935,3.5703,3.6627,3.7358,3.9388,4.1877,4.2552,4.4304,4.6564,4.8784,4.9746,5.0574,5.3027,5.4543,5.5878,5.7923,5.9314,6.0399,6.1249,6.1202,6.0778,6.0011,5.9302,5.8236,5.6347,5.4702,5.3247,5.2198,5.3145,5.4397,5.5209,5.7746,6.0148,6.1704,6.1603,6.1603,6.2212,6.1975,6.1772,6.1772,6.167,6.1637,6.1772,6.0351,5.9471,5.9471,5.9471,5.8964,5.7814,5.7442,5.6765,5.5699,5.5699,5.5868,5.6172,5.5834,5.5868,5.6139,5.5412,5.4905,5.4583,5.416,5.3788,5.3518,5.3518,5.3518,5.345,5.301,5.2841,5.2773,5.2351,5.2469,5.2841,0.0,0.0,0.0,0.0,0.0,0.0,0.0,0.0,0.0,0.0,0.0,0.0,0.0,0.0,0.0,0.0,0.0,0.0,0.0,0.0,3.3077,3.2285,3.2066,3.2123,3.2415,3.1138,3.1068,3.2245,3.1752,3.185,3.2415,3.254,3.2593,3.2621,3.3073,3.3275,3.3257,3.2794,3.2395,3.2054,3.1932,3.1841,3.1992,0.0,3.5384,3.5998,3.8442,4.1534,4.4741,4.6452,4.7968,4.9525,5.1668,5.2491,5.3003,5.4675,5.6179,5.7554,5.9035,6.0326,6.1289,6.117,6.0633,5.9683,5.8053,5.7081,5.5886,5.3653,5.257,5.1557,5.0042,5.1643,5.3281,5.3568,5.6558,5.9505,6.1332,6.0994,6.1332,6.3409,6.3091,6.2739,6.284,6.3328,6.3429,6.2874,6.14,6.0452,6.0283,6.025,5.9911,5.9148,5.8524,5.7577,5.6308,5.6274,5.6612,5.7239,5.6477,5.6477,5.707,5.624,5.5513,5.4888,5.4769,5.4363,5.3771,5.3687,5.3653,5.3653,5.3551,5.3518,5.3518,5.3518,5.3518,5.3518,0.0,0.0,0.0,0.0,0.0,0.0,0.0,0.0,0.0,0.0,3.6098,3.6546,0.0,0.0,0.0,0.0,0.0,0.0,0.0,0.0,0.0,3.2943,3.1918,3.1377,3.1444,3.0458,3.005,3.0292,3.0939,3.1319,3.1462,3.2236,3.2593,3.2558,3.1918,3.1622,3.1567,3.0714,3.0746,3.1362,3.1344,3.2621,3.4558,3.5029,0.0,0.0,4.0756,4.3207,4.5787,4.8419,5.0249,5.1736,5.3442,5.5304,5.7181,5.882,5.9434,5.9819,6.0757,6.0662,6.0276,5.991,5.953,5.8743,5.6829,5.5661,5.4329,5.208,5.1014,4.9962,4.8347,5.0006,5.2169,5.3866,5.638,5.9268,6.2632,6.3004,6.3274,6.4309,6.4309,6.4444,6.5074,6.4681,6.4613,6.5108,6.3768,6.2361,6.1163,6.1095,6.0723,5.9945,5.9776,5.9607,5.9336,5.9336,5.9404,5.9539,5.8776,5.8506,5.8573,5.7221,5.6528,5.6393,5.5767,5.5428,5.5259,5.4668,5.4397,5.4329,5.3754,5.3518,5.3518,5.3518,5.3518,5.3518,0.0,0.0,0.0,0.0,0.0,0.0,0.0,0.0,3.3847,3.4835,3.5907,3.6445,3.6085,3.6038,0.0,0.0,0.0,0.0,0.0,0.0,0.0,0.0,3.1324,3.097,3.0495,3.0024,2.9804,2.9804,0.0,3.0476,3.0495,3.094,3.1137,3.11,3.0658,3.0476,3.0476,3.0514,3.0809,3.1333,3.2722,3.4042,3.5351,0.0,0.0,0.0,4.2116,4.4015,4.5925,4.7686,4.9649,5.1937,5.5297,5.6663,5.7389,5.8891,5.9072,5.8841,5.9323,5.9644,5.9678,5.925,5.8593,5.7509,5.5427,5.3768,5.203,4.9792,4.8663,4.7817,4.7001,4.8746,5.0776,5.2109,5.5048,5.8337,6.1628,6.2589,6.3497,6.4986,6.5155,6.5155,6.5121,6.5155,6.4986,6.458,6.3883,6.3173,6.2463,6.1738,6.1129,6.0757,6.0317,6.0114,6.0114,6.0114,6.0317,6.0723,5.9945,5.9573,5.9539,5.8457,5.7543,5.6799,5.6427,5.5852,5.5108,5.4753,5.4363,5.3991,5.3653,5.3518,5.3518,5.3518,5.3518,5.3518,0.0,0.0,0.0,0.0,0.0,0.0,0.0,3.3637,3.4009,3.4817,3.5955,3.6447,3.5789,3.5699,3.5669,0.0,0.0,0.0,0.0,0.0,0.0,0.0,0.0,0.0,2.9798,0.0,0.0,2.9804,2.9804,0.0,0.0,0.0,0.0,0.0,3.003,3.0101,3.0158,3.11,3.1729,0.0,0.0,3.5618,3.6508,0.0,0.0,0.0,0.0,4.3896,4.5072,4.6109,4.7951,5.0578,5.4916,5.6132,5.6193,5.7329,5.7668,5.7759,5.8051,5.8842,5.95,5.911,5.7988,5.6356,5.4122,5.2087,5.0028,4.7783,4.6696,4.6138,4.5925,4.7604,4.9269,5.0051,5.3149,5.6692,6.0299,6.1541,6.3026,6.5608,6.5933,6.5696,6.5121,6.5595,6.5459,6.4289,6.4052,6.3748,6.3294,6.2178,6.1535,6.1535,6.0926,6.0588,6.0588,6.0588,6.0892,6.1535,6.0723,6.0351,6.0317,5.9419,5.8371,5.7273,5.7103,5.6359,5.5294,5.5159,5.4634,5.3957,5.3788,5.3653,5.3518,5.3518,5.3518,5.3518,0.0,0.0,0.0,0.0,0.0,0.0,0.0,3.4025,3.4877,3.6164,3.6896,3.7075,3.6464,3.6404,3.6148,0.0,0.0,0.0,0.0,0.0,0.0,0.0,0.0,0.0,0.0,0.0,0.0,2.9804,2.9804,0.0,0.0,0.0,0.0,0.0,0.0,3.1082,3.1137,3.2055,0.0,0.0,0.0,0.0,0.0,0.0,0.0,0.0,0.0,4.2337,4.2639,4.4684,4.5971,4.713,4.9519,5.2391,5.4873,5.5002,5.6777,5.8796,5.943,5.9699,5.9767,5.9718,5.7946,5.5575,5.3157,5.1201,4.9212,4.6828,4.6261,4.5925,4.5079,4.6292,4.7797,4.9023,5.0759,5.4037,5.9965,6.0866,6.2391,6.6234,6.669,6.6656,6.6588,6.6677,6.6622,6.6487,6.5865,6.4634,6.2618,6.2347,6.2299,6.2299,6.2231,6.2197,6.2197,6.2197,6.2231,6.2299,6.1535,6.1197,6.1129,5.9656,5.8912,5.8743,5.8084,5.773,5.7543,5.6867,5.6156,5.5428,5.4769,5.4093,5.3518,5.3518,5.3518,5.3518,0.0,0.0,0.0,0.0,0.0,0.0,3.3889,3.4308,3.4967,3.6314,3.7015,3.7315,3.7075,3.7045,3.6626,0.0,0.0,0.0,0.0,0.0,0.0,0.0,0.0,0.0,0.0,0.0,2.9804,2.9804,2.9804,0.0,0.0,0.0,0.0,0.0,0.0,3.1518,3.2128,3.3557,0.0,0.0,0.0,0.0,0.0,0.0,0.0,0.0,0.0,0.0,4.2781,4.4028,4.4827,4.5369,4.585,4.7672,5.0089,5.2364,5.4389,5.6085,5.6824,5.8389,5.9639,5.8892,5.7398,5.549,5.3058,5.0663,4.8268,4.5845,4.4893,4.445,4.4502,4.503,4.6077,4.8002,4.9402,5.1694,5.5929,5.7071,5.9065,6.3354,6.383,6.4631,6.6614,6.6406,6.5967,6.5527,6.5189,6.4647,6.3768,6.3294,6.326,6.37,6.2854,6.2618,6.3057,6.2618,6.24,6.24,6.211,6.1738,6.1298,6.0655,5.9859,5.8979,5.8693,5.8051,5.7205,5.6934,5.6393,5.5631,5.4871,5.4397,5.4093,5.3653,5.3518,5.3518,0.0,0.0,0.0,0.0,0.0,3.3185,3.4308,3.4667,3.5206,3.6344,3.7015,3.7387,3.7387,3.7255,3.6645,3.5455,0.0,0.0,0.0,0.0,0.0,0.0,0.0,0.0,0.0,0.0,2.9804,2.9804,2.9804,2.9804,0.0,0.0,3.0564,3.1204,0.0,0.0,0.0,0.0,0.0,0.0,0.0,0.0,0.0,0.0,0.0,0.0,0.0,0.0,0.0,0.0,0.0,4.3914,4.3639,4.4435,4.6079,4.9533,5.1941,5.369,5.4619,5.6788,5.8608,5.8111,5.6549,5.466,5.2768,5.006,4.7384,4.5338,4.4214,4.3818,4.4476,4.4745,4.5534,4.7483,4.8596,5.0253,5.329,5.4809,5.6902,6.0341,6.1508,6.2915,6.5135,6.5605,6.5724,6.5608,6.5358,6.5256,6.5256,6.4546,6.4309,6.458,6.3396,6.299,6.3477,6.2753,6.24,6.24,6.24,6.211,6.1603,6.1163,6.0179,5.8835,5.8732,5.7719,5.621,5.6868,5.6484,5.5492,5.5087,5.4938,5.4837,5.4093,5.3822,5.3822,0.0,0.0,0.0,0.0,0.0,0.0,0.0,3.507,3.5729,3.6404,3.7015,3.7387,3.7387,3.6866,3.6111,3.5085,0.0,0.0,0.0,0.0,0.0,0.0,0.0,0.0,0.0,0.0,2.9804,2.9804,2.9804,2.9804,2.9798,3.0752,3.1185,3.1278,0.0,0.0,0.0,0.0,0.0,0.0,0.0,0.0,0.0,0.0,0.0,0.0,0.0,0.0,0.0,0.0,0.0,0.0,0.0,4.3339,4.3878,4.6561,4.9666,5.251,5.3862,5.5204,5.652,5.7697,5.5395,5.2701,5.2132,4.9387,4.663,4.5512,4.4766,4.4476,4.5155,4.5822,4.662,4.7637,4.8376,4.9954,5.3233,5.5253,5.6789,5.7915,6.0626,6.2286,6.2085,6.4365,6.6443,6.7775,6.7184,6.6757,6.6757,6.6068,6.5358,6.4613,6.3883,6.3477,6.3511,6.2753,6.24,6.24,6.24,6.24,6.2333,6.0791,5.951,5.8487,5.8081,5.6677,5.4764,5.6982,5.6806,5.516,5.5528,5.5699,5.5597,5.4871,5.4583,5.4583,0.0,0.0,0.0,0.0,0.0,0.0,0.0,3.4347,3.4726,3.5402,3.5635,3.62,3.7276,3.6249,3.5497,3.5597,0.0,0.0,0.0,0.0,0.0,0.0,0.0,0.0,0.0,0.0,2.9804,2.9804,2.9804,3.012,3.0771,3.1063,3.1901,3.3122,3.3739,3.4363,0.0,0.0,0.0,0.0,0.0,0.0,4.0782,0.0,0.0,0.0,0.0,0.0,0.0,0.0,0.0,0.0,0.0,0.0,0.0,4.4865,4.7279,4.9823,5.1116,5.3061,5.4567,5.4047,5.3275,5.2207,5.0424,4.8413,4.661,4.5522,4.4766,4.4625,4.5762,4.6151,4.6951,4.8852,4.9326,5.0112,5.1877,5.3918,5.588,5.7578,6.2376,6.55,6.5447,6.7042,6.7636,6.66,6.7185,6.7354,6.6825,6.6576,6.6339,6.6136,6.4918,6.4478,6.4986,6.3768,6.3159,6.3159,6.2618,6.2144,6.1637,6.1129,6.0146,5.8849,5.8714,5.7539,5.581,5.7297,5.7107,5.5905,5.6301,5.6461,5.6341,5.5615,5.5327,5.5277,0.0,0.0,0.0,0.0,0.0,0.0,0.0,3.3705,3.3761,3.4525,3.4635,3.5091,3.6362,3.5572,3.4904,3.4827,0.0,0.0,0.0,0.0,0.0,0.0,0.0,0.0,0.0,2.9804,2.9905,3.0105,3.0508,3.0976,3.1529,3.2281,3.3117,3.4013,3.4409,3.4905,0.0,0.0,0.0,0.0,0.0,0.0,4.0205,0.0,0.0,0.0,0.0,0.0,0.0,0.0,0.0,0.0,0.0,0.0,0.0,0.0,4.5484,4.7189,4.8992,5.0827,5.2136,5.1798,5.1339,5.0663,4.9456,4.7896,4.6559,4.6139,4.5514,4.5373,4.648,4.6991,4.7707,4.9192,4.9769,5.0293,5.1071,5.3812,5.6889,5.9943,6.3177,6.5769,6.7208,6.7717,6.7727,6.7133,6.7598,6.759,6.6825,6.6791,6.6791,6.6791,6.5628,6.5222,6.5717,6.4241,6.3511,6.3477,6.2753,6.2144,6.1704,6.1434,6.0377,5.882,5.8965,5.7702,0.0,5.6811,5.6605,5.5613,5.6012,5.6337,5.6526,5.6217,5.5936,5.5631,0.0,0.0,0.0,0.0,0.0,0.0,0.0,0.0,3.2806,3.3631,3.3779,3.4071,3.4732,3.4695,3.4192,3.3077,0.0,0.0,0.0,0.0,0.0,0.0,0.0,0.0,0.0,2.9907,3.0198,3.0707,3.1764,3.2273,3.2239,3.4092,3.464,3.416,3.5113,3.5609,0.0,0.0,0.0,0.0,0.0,0.0,0.0,0.0,0.0,0.0,0.0,0.0,0.0,0.0,0.0,0.0,0.0,0.0,0.0,0.0,0.0,0.0,0.0,4.8498,4.9277,5.0451,4.9434,4.8319,4.8947,4.7638,0.0,4.716,4.6749,4.651,4.7189,4.8105,4.8779,4.878,4.9638,5.0489,5.088,5.4791,5.9371,6.3996,6.3378,6.3924,6.7388,6.6939,6.7158,6.8828,6.8359,6.7658,6.6825,6.6791,6.6791,6.6791,6.6136,6.5784,6.5784,6.4377,6.3572,6.3444,6.2781,6.2395,6.2181,6.1564,6.0321,5.8621,5.8844,5.7342,5.4757,5.5756,5.5503,5.4545,5.5012,5.5592,5.6274,5.6707,5.6443,5.5834,0.0,0.0,0.0,0.0,0.0,0.0,0.0,0.0,0.0,0.0,3.1613,3.2182,3.3054,3.2508,3.2281,0.0,0.0,0.0,0.0,0.0,0.0,0.0,0.0,0.0,0.0,3.1009,3.1691,3.1822,3.2793,3.3614,3.4299,3.4237,3.4542,3.5179,3.5945,3.6507,0.0,0.0,0.0,0.0,0.0,0.0,0.0,0.0,0.0,0.0,4.1164,4.1493,0.0,0.0,0.0,0.0,0.0,0.0,0.0,0.0,4.3549,4.3788,4.4945,0.0,4.6172,4.5971,4.633,4.6809,0.0,4.6629,4.648,4.716,4.6749,4.651,4.7189,4.8105,4.8738,4.8451,4.927,5.0473,5.1885,5.6071,6.0251,6.3793,6.5297,6.5962,6.5861,6.8422,6.9346,6.7625,6.8316,6.8233,6.6859,6.6791,6.6791,6.6791,6.6643,6.6542,6.6542,6.5628,6.4438,6.2982,6.3127,6.2166,6.0227,6.0962,6.0724,5.9665,5.8826,5.7315,5.5452,5.5662,5.4794,5.3483,5.5255,5.6039,5.634,5.7297,5.7509,5.7306,0.0,0.0,0.0,0.0,0.0,0.0,0.0,0.0,0.0,0.0,0.0,0.0,0.0,0.0,0.0,0.0,0.0,0.0,0.0,0.0,0.0,0.0,0.0,0.0,3.0438,3.1734,3.2504,3.2755,3.3741,3.4505,3.4974,3.5367,3.5533,3.5519,3.6178,3.7002,0.0,0.0,0.0,0.0,3.9242,0.0,0.0,0.0,0.0,0.0,4.1044,4.1194,0.0,4.2771,4.291,4.253,0.0,0.0,0.0,0.0,4.329,4.3399,4.3758,4.4326,4.4915,4.5134,4.5762,4.639,4.6689,4.6749,4.6839,4.7249,4.6988,4.6869,4.7249,4.8105,4.8738,4.8581,4.9688,5.1595,5.4545,5.7968,6.1246,6.423,6.5525,6.614,6.612,6.7529,6.7794,6.6241,6.6842,6.6644,6.5158,6.5059,6.5059,6.5059,6.5059,6.5337,6.592,6.4872,6.3547,6.192,6.1522,6.056,5.9198,5.9879,5.9734,5.8967,5.8314,5.7107,5.5602,5.5065,5.4044,5.3077,5.4785,5.549,5.5671,5.7297,5.7697,5.734,0.0,0.0,0.0,0.0,0.0,0.0,0.0,0.0,0.0,0.0,0.0,0.0,0.0,0.0,0.0,0.0,0.0,0.0,0.0,0.0,0.0,0.0,0.0,3.1259,3.1407,3.2435,3.3177,3.3651,3.4803,3.5346,3.5305,3.6741,3.6896,3.5968,3.6553,3.7451,0.0,0.0,0.0,0.0,3.9391,0.0,0.0,0.0,0.0,0.0,0.0,0.0,0.0,4.2502,4.2761,4.2331,4.2951,0.0,0.0,0.0,0.0,0.0,4.3409,4.4027,4.4835,4.5762,4.6151,4.645,4.704,4.716,4.7189,4.7279,4.7219,4.7189,4.7279,4.8343,4.9149,4.8893,5.0905,5.383,5.77,6.006,6.2221,6.4322,6.4792,6.5377,6.6466,6.5774,6.5229,6.5112,6.502,6.438,6.3068,6.3004,6.3004,6.3004,6.3004,6.3402,6.4289,6.3217,6.2005,6.0604,5.9489,5.8818,5.8542,5.8722,5.847,5.7872,5.7672,5.6809,5.5418,5.4281,5.332,5.2745,5.3892,5.4442,5.4858,5.6887,5.7348,5.6968,0.0,0.0,0.0,0.0,0.0,0.0,0.0,0.0,0.0,0.0,0.0,0.0,0.0,0.0,0.0,0.0,0.0,0.0,0.0,0.0,0.0,0.0,3.1382,3.1573,3.2361,3.3868,3.4656,3.4753,3.6276,3.7049,3.7032,3.7259,3.7614,3.7943,3.8063,3.8542,3.9242,0.0,0.0,0.0,3.9391,0.0,0.0,0.0,0.0,0.0,0.0,0.0,0.0,4.1852,4.2092,4.1673,4.2331,0.0,0.0,0.0,0.0,0.0,4.3997,4.5044,4.5762,4.4835,4.5463,4.633,4.642,4.645,4.66,4.7189,4.6839,4.6629,4.7219,4.9367,5.0686,4.9425,5.3552,5.7567,5.9489,6.1838,6.2965,6.1859,6.3718,6.472,6.3807,6.5132,6.5771,6.5155,6.4589,6.3885,6.3036,6.3004,6.3004,6.3004,6.3004,6.2536,6.159,6.1958,6.1217,5.9374,5.9598,5.8853,5.7292,5.8337,5.8726,5.8585,5.7557,5.6334,5.5019,5.3803,5.2562,5.1565,5.2731,5.3742,5.4755,5.6008,5.6991,5.7712,0.0,0.0,0.0,0.0,0.0,0.0,0.0,0.0,0.0,0.0,0.0,0.0,0.0,0.0,0.0,0.0,0.0,0.0,0.0,0.0,0.0,3.3532,3.3014,3.2894,3.3359,3.4603,3.5457,3.5827,3.656,3.7075,3.7387,3.7387,3.7943,3.8931,3.8571,3.8781,3.9391,3.9391,0.0,0.0,0.0,0.0,0.0,0.0,0.0,0.0,0.0,0.0,0.0,0.0,4.1643,4.1463,4.1762,0.0,0.0,0.0,0.0,0.0,4.3579,4.4745,4.5633,4.5005,4.6543,4.8252,4.8469,4.8517,4.859,4.8901,4.8715,4.8828,4.9947,5.0986,5.2016,5.3178,5.6781,5.9535,5.9886,6.127,6.1939,6.1177,6.2771,6.3683,6.3152,6.3947,6.4081,6.3035,6.2659,6.201,6.0959,6.0872,6.0872,6.0872,6.0872,6.0619,5.9966,5.9542,5.8891,5.8014,5.7568,5.6897,5.6035,5.659,5.6855,5.6831,5.628,5.5463,5.4502,5.3591,5.2606,5.1826,5.2616,5.3591,5.4817,5.649,5.7697,5.8457,0.0,0.0,0.0,0.0,0.0,0.0,0.0,0.0,0.0,0.0,0.0,0.0,0.0,0.0,0.0,0.0,0.0,0.0,0.0,0.0,3.3431,3.5102,3.4632,3.4346,3.4346,3.5264,3.5998,3.6493,3.6688,3.7161,3.7914,3.7635,3.8252,3.9601,3.8931,3.902,3.9631,3.9631,3.972,0.0,0.0,0.0,0.0,0.0,0.0,0.0,0.0,0.0,0.0,0.0,0.0,0.0,0.0,0.0,0.0,4.2571,4.2601,4.275,4.3369,4.4569,4.5676,4.5941,4.7681,4.9522,5.0378,5.0498,5.0628,5.1288,5.0976,5.1025,5.2589,5.2785,5.3867,5.7316,5.9783,6.1138,6.0845,6.1423,6.1809,6.1601,6.2384,6.2909,6.2864,6.272,6.2121,6.0954,6.0715,6.0176,5.9159,5.9099,5.9099,5.9099,5.9099,5.9099,5.9099,5.7932,5.7244,5.7064,5.5807,5.5179,5.5179,5.5179,5.5179,5.5179,5.5179,5.473,5.3922,5.3408,5.2785,5.2222,5.2421,5.3352,5.4879,5.7291,5.8423,5.8693,0.0,0.0,0.0,0.0,0.0,0.0,0.0,0.0,0.0,0.0,0.0,0.0,0.0,0.0,0.0,0.0,0.0,0.0,0.0,0.0,3.5056,3.5865,3.5581,3.5392,3.5392,3.6055,3.6464,3.6493,3.7263,3.8227,3.9427,3.8303,3.8706,4.0307,3.9631,3.969,4.0337,4.0337,4.0696,4.1254,0.0,0.0,0.0,0.0,0.0,0.0,0.0,0.0,0.0,0.0,0.0,0.0,0.0,0.0,4.253,4.307,4.325,4.3399,4.4057,4.5383,4.6854,4.7838,4.7961,4.8418,5.0559,5.0782,5.1237,5.3917,5.2648,5.1581,5.3309,5.4694,5.6806,6.0467,6.2123,6.3135,6.3636,6.4344,6.4319,6.31,6.3044,6.2834,6.2211,6.1613,6.0954,6.0234,5.9608,5.9219,5.9099,5.9099,5.9099,5.9099,5.9099,5.9099,5.9099,5.8411,5.7723,5.7064,5.5807,5.5179,5.5179,5.5179,5.5179,5.5179,5.5179,5.4486,5.3288,5.3228,5.2785,5.2127,5.1563,5.2687,5.4943,5.7859,5.8524,5.8051,0.0,0.0,0.0,0.0,0.0,0.0,0.0,0.0,0.0,0.0,0.0,0.0,0.0,0.0,0.0,0.0,0.0,0.0,0.0,0.0,3.4729,3.566,3.5563,3.5198,3.4576,3.5168,3.6085,3.7263,3.7629,3.8254,3.9032,3.8543,3.8827,3.975,3.9511,3.9541,3.978,3.978,4.0157,4.0756,4.0756,0.0,0.0,0.0,0.0,0.0,0.0,0.0,0.0,0.0,4.0277,4.0427,4.0516,4.1104,4.1822,4.2043,4.2402,4.288,4.3519,4.5209,4.7006,4.7782,4.8815,5.0265,5.2712,5.3867,5.4741,5.5837,5.545,5.4985,5.5314,5.7997,6.0349,6.0923,6.2521,6.3638,6.3472,6.3694,6.3677,6.3165,6.272,6.2361,6.2121,6.1493,6.0835,6.0146,5.9847,5.9548,5.9129,5.9099,5.9099,5.9099,5.9099,5.9099,5.9099,5.8444,5.7756,5.7094,5.6252,5.5623,5.5179,5.5179,5.5179,5.5179,5.5179,5.491,5.4426,5.3982,5.3683,5.3397,5.3036,5.3408,5.4447,5.624,5.7179,5.7634,0.0,0.0,0.0,0.0,0.0,0.0,0.0,0.0,0.0,0.0,0.0,0.0,0.0,0.0,0.0,0.0,0.0,0.0,3.391,3.4295,3.4876,3.5814,3.5329,3.4914,3.4697,3.4018,3.4734,3.6959,3.7077,3.7607,3.8502,3.8056,3.8639,4.0008,3.9601,3.9631,4.0038,3.9828,4.0098,4.0696,4.0696,4.0576,0.0,0.0,0.0,0.0,0.0,0.0,0.0,0.0,3.9888,4.0098,4.0038,4.0516,4.1134,4.1343,4.21,4.2982,4.3629,4.5444,4.732,4.8219,4.9852,5.1872,5.4209,5.5992,5.7385,5.8125,5.8051,5.7781,5.7463,5.975,6.1487,6.0832,6.2112,6.2991,6.2532,6.2659,6.2718,6.248,6.2241,6.1942,6.1493,6.1044,6.0505,5.9817,5.9787,5.9578,5.9129,5.9099,5.9099,5.9099,5.9099,5.9099,5.9099,5.8444,5.7756,5.7094,5.6492,5.5863,5.5179,5.5179,5.5179,5.5179,5.5179,5.5059,5.485,5.4401,5.4072,5.3895,5.4136,5.4233,5.4445,5.5766,5.6603,5.7106,0.0,0.0,0.0,0.0,0.0,0.0,0.0,0.0,0.0,0.0,0.0,0.0,0.0,0.0,0.0,0.0,0.0,0.0,3.3996,3.4938,3.583,3.6538,3.4919,3.468,3.6111,3.2783,3.2392,3.5259,3.5396,3.6362,3.8062,3.6792,3.8061,4.1313,4.0008,4.0157,4.1343,4.0666,4.0756,4.1403,4.1403,4.0984,0.0,0.0,0.0,0.0,0.0,0.0,0.0,0.0,3.9948,3.9631,4.0954,4.0954,4.0546,4.1224,4.2558,4.3968,4.4707,4.624,4.7951,4.9436,5.1078,5.2791,5.4599,5.6534,5.8631,6.1096,6.0382,5.9362,5.9573,5.9553,5.9737,6.0461,6.0865,6.1076,6.1106,6.1672,6.1852,6.1194,6.1672,6.1553,6.0234,6.0086,5.9817,5.9159,5.9099,5.9099,5.9099,5.9099,5.9099,5.9099,5.9099,5.9099,5.9099,5.8444,5.7756,5.7094,5.6492,5.5863,5.5179,5.5179,5.5179,5.5179,5.5179,5.482,5.4221,5.4221,5.3803,5.332,5.4451,5.4885,5.5085,5.6991,5.7167,5.6517,0.0,0.0,0.0,0.0,0.0,0.0,0.0,0.0,0.0,0.0,0.0,0.0,0.0,0.0,0.0,0.0,0.0,0.0,3.5017,3.5343,3.5297,3.48,3.4283,3.3589,3.2707,3.2121,3.2235,3.3052,3.3745,3.5224,3.7379,3.7318,3.8253,3.9978,3.9571,3.9631,3.9978,3.978,4.0079,4.0696,4.0696,4.0576,0.0,0.0,0.0,0.0,0.0,0.0,0.0,0.0,0.0,0.0,3.9888,4.0834,4.1733,4.1463,4.3179,4.5103,4.4893,4.6557,4.8709,5.0212,5.2265,5.439,5.6156,5.8055,6.0011,6.204,6.1181,6.0029,5.9758,5.934,5.9232,5.9917,6.0258,6.0715,6.1672,6.1583,6.1493,6.1762,6.1134,6.0563,6.0144,5.9668,5.9308,5.9129,5.9099,5.9099,5.9099,5.9099,5.9099,5.9099,5.9099,5.9099,5.9099,5.8444,5.7756,5.7094,5.6492,5.5863,5.5179,5.5179,5.5179,5.5179,5.5179,5.5089,5.485,5.4401,5.3533,5.2594,5.3374,5.3427,5.3172,5.4677,5.5285,5.5442,0.0,0.0,0.0,0.0,0.0,0.0,0.0,0.0,0.0,0.0,0.0,0.0,0.0,0.0,0.0,0.0,0.0,0.0,0.0,3.5133,3.4627,3.4041,3.3307,3.1908,2.9856,3.0431,3.092,3.1251,3.3009,3.4764,3.6413,3.7044,3.8079,3.9421,3.966,3.978,3.978,3.978,3.9888,4.0008,4.0008,4.0008,4.0008,0.0,0.0,0.0,0.0,0.0,0.0,0.0,0.0,0.0,3.972,4.0902,4.2173,4.2332,4.4122,4.6189,4.6725,4.8244,5.0209,5.2276,5.4168,5.6064,5.833,5.963,6.1035,6.3188,6.196,6.0714,6.1303,5.9973,5.903,5.9734,5.9747,5.9967,6.0805,6.0805,6.0745,6.0894,6.0416,5.9877,5.9368,5.9189,5.9009,5.8713,5.8949,5.9099,5.9099,5.9099,5.9099,5.9099,5.9099,5.9099,5.9099,5.8171,5.7513,5.7094,5.6222,5.5593,5.5179,5.5179,5.5179,5.5179,5.491,5.464,5.4371,5.3952,5.3473,5.3025,5.3443,5.3503,5.3473,5.4311,5.4781,5.501,0.0,0.0,0.0,0.0,0.0,0.0,0.0,0.0,0.0,0.0,0.0,0.0,0.0,0.0,0.0,0.0,0.0,0.0,0.0,0.0,3.391,3.3756,3.2083,3.0147,2.7983,2.863,2.9384,3.0162,3.2958,3.4694,3.5471,3.6408,3.777,3.9421,4.0038,4.0307,4.0307,4.0247,3.9858,3.9302,3.9302,3.9302,3.9302,3.9302,0.0,0.0,0.0,0.0,0.0,0.0,0.0,0.0,4.0187,4.1139,4.2235,4.3518,4.5297,4.7325,4.9423,5.066,5.2114,5.5056,5.6423,5.7784,6.0521,6.0955,6.1543,6.415,6.2668,6.1454,6.3211,6.0955,5.9033,5.9725,5.9417,5.9129,5.9189,5.9668,5.9787,5.9249,5.9668,5.9488,5.8205,5.871,5.883,5.8145,5.8713,5.9099,5.9099,5.9099,5.9069,5.9009,5.9009,5.8979,5.8919,5.7663,5.7004,5.7004,5.5777,5.5179,5.5179,5.5119,5.5059,5.497,5.4431,5.3832,5.3198,5.3198,5.3563,5.4132,5.4192,5.4581,5.5119,5.5179,5.5179,5.5025,0.0,0.0,0.0,0.0,0.0,0.0,0.0,0.0,0.0,0.0,0.0,0.0,0.0,0.0,0.0,0.0,0.0,0.0,0.0,0.0,3.3359,3.1883,3.1118,3.044,2.9814,3.1174,3.1735,3.1424,3.2371,3.4109,3.6502,3.7022,3.8031,3.9421,3.9541,3.9601,3.9571,3.905,3.8751,3.8601,3.8601,3.8601,3.8601,3.8601,3.896,0.0,0.0,0.0,0.0,0.0,0.0,0.0,4.0187,4.1779,4.341,4.3738,4.6283,4.9137,4.9684,5.1395,5.3585,5.5987,5.7739,5.9119,5.9946,6.0103,6.0705,6.2759,6.2797,6.2316,6.1687,6.0198,5.9081,5.9258,5.9168,5.9279,5.9787,5.9548,5.9458,5.9817,5.9548,5.9009,5.8175,5.871,5.883,5.8145,5.8713,5.9099,5.9099,5.9099,5.886,5.8324,5.8324,5.8082,5.7543,5.6791,5.6402,5.6372,5.5593,5.5179,5.5179,5.467,5.4132,5.3648,5.4042,5.3832,5.3198,5.3198,5.3288,5.3468,5.4012,5.4311,5.4491,5.4999,5.5179,5.5059,0.0,0.0,0.0,0.0,0.0,0.0,0.0,0.0,0.0,0.0,0.0,0.0,0.0,0.0,0.0,0.0,0.0,0.0,0.0,0.0,3.2146,3.0977,3.0164,3.0037,3.0685,3.1529,3.2068,3.2365,3.3187,3.4557,3.6385,3.7074,3.7943,3.896,3.9571,3.9511,3.8931,3.8901,3.8691,3.8409,3.8409,3.8571,3.8841,3.8512,3.8811,3.9302,3.8631,0.0,0.0,0.0,0.0,0.0,0.0,0.0,4.4275,4.573,4.7595,4.9333,5.0076,5.2016,5.4711,5.8515,6.0044,6.0569,6.0684,6.029,6.0074,6.0732,6.1281,6.1469,6.1054,5.997,5.9099,5.9099,5.9099,5.9219,5.9578,5.9308,5.9219,5.9578,5.9308,5.871,5.7723,5.853,5.856,5.7304,5.8381,5.8979,5.865,5.8623,5.8444,5.8115,5.7786,5.7453,5.7094,5.6492,5.6192,5.6192,5.5534,5.485,5.4251,5.4551,5.4311,5.3683,5.4042,5.3832,5.3228,5.3533,5.3683,5.3743,5.4431,5.467,5.473,5.5059,5.5179,5.5089,0.0,0.0,0.0,0.0,0.0,0.0,0.0,0.0,0.0,0.0,0.0,0.0,0.0,0.0,0.0,0.0,0.0,0.0,0.0,0.0,0.0,3.0602,2.9812,2.9984,3.1286,3.1547,3.2212,3.3329,3.4469,3.5456,3.6349,3.7055,3.7823,3.8601,3.9619,3.9439,3.8439,3.8781,3.8571,3.808,3.808,3.8392,3.8823,0.0,0.0,3.8973,3.8302,3.8571,3.9212,3.9212,0.0,0.0,0.0,0.0,4.4494,4.7227,4.8186,4.8682,5.0028,5.2243,5.538,6.0338,6.1467,6.1305,6.0979,6.029,5.9585,5.9029,5.9538,6.022,6.0589,5.9811,5.9099,5.9099,5.9099,5.9099,5.9099,5.9099,5.9099,5.9099,5.9009,5.8441,5.7214,5.8112,5.8022,5.6342,5.7782,5.853,5.7965,5.7905,5.7876,5.7782,5.7244,5.6885,5.6765,5.6282,5.6042,5.6013,5.5329,5.4431,5.3408,5.4426,5.4431,5.3713,5.3778,5.3593,5.3258,5.3803,5.4162,5.4431,5.497,5.5179,5.5179,5.5179,5.5119,5.491,0.0,0.0,0.0,0.0,0.0,0.0,0.0,0.0,0.0,0.0,0.0,0.0,0.0,0.0,0.0,0.0,0.0,0.0,3.1683,0.0,0.0,3.0583,3.1215,3.1896,3.2542,3.3762,3.4484,3.4647,3.5184,3.6322,3.8067,3.7622,3.8075,3.9242,3.8841,3.8589,3.835,3.7332,3.6853,3.6763,3.6763,3.6823,3.6866,0.0,0.0,3.7567,3.6956,3.7511,3.8512,3.8512,3.8931,0.0,0.0,0.0,4.3301,4.4872,4.633,4.7673,4.8482,5.1624,5.5231,5.7711,5.9189,5.9608,5.7989,5.8376,5.9005,5.8925,5.9538,5.9947,5.9429,5.9234,5.9099,5.9099,5.9099,5.9099,5.9099,5.9099,5.9099,5.9099,5.859,5.7905,5.7184,5.7244,5.7034,5.6252,5.6915,5.7334,5.7244,5.7244,5.6974,5.6462,5.6372,5.6042,5.5448,5.5359,5.5329,5.5354,5.464,5.4251,5.4072,5.3653,5.2785,5.1624,5.2217,5.2725,5.3228,5.3318,5.4037,5.5059,5.5149,5.5179,5.5179,5.5179,5.482,5.4251,0.0,0.0,0.0,0.0,0.0,0.0,0.0,0.0,0.0,0.0,0.0,0.0,0.0,0.0,0.0,3.403,3.3035,3.1865,3.0514,3.0024,3.0258,3.1332,3.1482,3.2316,3.3956,3.4253,3.4662,3.523,3.5426,3.6477,3.8409,3.8093,3.8691,3.9948,3.926,3.8542,3.7793,3.6866,3.6493,3.6493,3.6493,3.6686,0.0,0.0,0.0,0.0,0.0,0.0,3.7913,3.8272,3.8601,3.9187,4.103,0.0,0.0,0.0,4.5696,4.6925,4.9288,5.184,5.4695,5.8061,5.8591,5.8279,5.8183,5.7482,5.694,5.7304,5.7659,5.8148,5.8937,5.88,5.8653,5.9039,5.9099,5.9099,5.9099,5.9099,5.8979,5.8563,5.8264,5.7723,5.6701,5.6885,5.6675,5.5713,5.6526,5.6944,5.6611,5.6611,5.6462,5.6222,5.5833,5.5504,5.5179,5.5179,5.5179,5.5179,5.4132,5.3623,5.3623,5.2935,5.2516,5.2336,5.2636,5.3144,5.3743,5.3743,5.4311,5.5179,5.5179,5.5179,5.5179,5.5179,5.4999,5.473,0.0,0.0,0.0,0.0,0.0,0.0,0.0,0.0,0.0,0.0,0.0,0.0,0.0,0.0,0.0,0.0,3.2146,3.0809,2.9856,3.0005,3.0637,3.1743,3.186,3.276,3.464,3.4489,3.4756,3.5519,3.5519,3.6596,3.8661,3.8661,3.9469,0.0,4.0038,3.9002,0.0,3.7075,3.6733,3.6686,0.0,0.0,0.0,0.0,0.0,0.0,0.0,3.6626,3.7285,3.7913,3.8242,3.8742,4.0804,4.1784,0.0,0.0,0.0,4.5856,4.9357,5.0979,5.2772,5.7259,5.7473,5.6915,5.8122,5.7233,5.6286,5.6585,5.6701,5.7184,5.88,5.8534,5.8324,5.9009,5.9099,5.9099,5.9099,5.8949,5.8653,5.8145,5.7786,5.7244,5.6282,5.6462,5.6226,5.5269,5.6077,5.6406,5.5983,5.5953,5.5953,5.5953,5.5299,5.494,5.494,5.4785,5.467,5.467,5.3677,5.3109,5.2929,5.2426,5.2366,5.2665,5.2665,5.3174,5.3952,5.3952,5.4431,5.5179,5.5179,5.5089,5.497,5.5119,5.497,5.467,0.0,0.0,0.0,0.0,0.0,0.0,0.0,0.0,0.0,0.0,0.0,0.0,0.0,3.4593,3.3636,3.2735,3.1774,3.0809,2.9856,3.062,3.1156,3.1238,3.2922,0.0,3.4036,3.4951,3.5441,3.5519,3.5519,3.6819,3.9361,3.9361,4.0397,4.2231,4.0924,3.9978,3.9212,0.0,0.0,0.0,0.0,0.0,0.0,0.0,0.0,0.0,3.5579,3.5968,3.6643,3.7255,3.7883,3.8649,4.0033,4.0501,4.0789,0.0,0.0,0.0,4.7307,4.7883,4.8684,5.3124,5.4755,5.5485,5.6175,5.7656,5.874,5.8115,5.7995,5.8205,5.8979,5.8534,5.8324,5.9009,5.9099,5.9099,5.9099,5.8534,5.8145,5.8085,5.7034,5.6282,5.6222,5.5653,5.5269,5.5179,5.5239,5.5269,5.5239,5.5239,5.5239,5.5239,5.461,5.4251,5.4251,5.3623,5.3318,5.3318,5.3228,5.2869,5.2247,5.2217,5.1887,5.1295,5.1295,5.2067,5.3258,5.3258,5.4037,5.5179,5.5179,5.482,5.4341,5.497,5.4426,5.3318,0.0,0.0,0.0,0.0,0.0,0.0,0.0,0.0,0.0,0.0,0.0,0.0,0.0,3.338,3.2354,3.1738,3.0846,3.0419,3.0677,3.1007,3.1756,3.2929,3.3636,3.4295,3.4938,3.5326,3.5519,3.5519,3.5519,3.6417,3.8135,3.8571,3.9379,4.0457,3.996,3.9631,3.9272,3.7088,0.0,3.6746,3.5848,3.5519,3.5519,3.5519,3.5519,3.5519,3.5519,3.5938,3.6583,3.7195,3.7853,3.8542,3.9451,4.0068,4.0666,4.2021,4.314,4.4278,4.5839,4.678,4.7965,5.0819,5.2429,5.3563,5.467,5.5777,5.6526,5.6286,5.6256,5.6555,5.7633,5.7965,5.8175,5.8414,5.883,5.88,5.7932,5.7965,5.7786,5.6974,5.6492,5.6042,5.5623,5.5354,5.5179,5.5179,5.5179,5.5179,5.5179,5.5179,5.5179,5.5179,5.497,5.485,5.485,5.3324,5.2995,5.3832,5.2546,5.2007,5.2187,5.1768,5.1415,5.1206,5.1206,5.1738,5.2546,5.2546,5.3084,5.3917,5.3917,5.3767,5.3593,5.3827,5.3862,5.3832,0.0,0.0,0.0,0.0,0.0,0.0,0.0,0.0,0.0,0.0,0.0,0.0,0.0,0.0,3.1719,3.0794,3.0457,3.0526,3.1148,3.1792,3.27,3.3945,3.4312,3.4822,3.5503,3.5519,3.5519,3.5519,3.5519,3.5998,3.6943,3.7405,3.7994,3.8727,3.8395,3.8792,3.9601,3.7627,3.6956,3.7062,3.6178,3.5848,3.5848,3.6058,3.6297,3.6447,3.6237,3.6567,3.7135,3.7105,3.7524,3.8182,3.8841,3.9679,4.0606,4.1733,4.281,4.3838,4.4736,4.5603,4.6899,4.9561,5.072,5.1798,5.4042,5.488,5.5239,5.5504,5.5867,5.6376,5.6974,5.7663,5.8085,5.8085,5.8264,5.8112,5.7214,5.7304,5.7154,5.6312,5.6013,5.5683,5.5239,5.5179,5.5179,5.5179,5.5179,5.5179,5.5179,5.5179,5.497,5.4521,5.4311,5.4072,5.3862,5.2546,5.2306,5.318,5.2067,5.1648,5.1858,5.1648,5.1415,5.1206,5.1206,5.1588,5.2187,5.2187,5.2606,5.3198,5.3198,5.3079,5.2929,5.3354,5.3683,5.3892,0.0,0.0,0.0,0.0,0.0,0.0,0.0,0.0,0.0,0.0,0.0,0.0,0.0,0.0,0.0,2.9985,3.0677,3.1204,3.1278,3.2982,3.3996,3.403,3.5001,3.5519,3.5519,3.5519,3.5519,3.5519,3.5457,3.5621,3.5945,3.591,3.6437,3.7238,3.6388,3.7601,4.024,3.9571,3.8931,3.826,3.6985,3.6493,3.6553,3.7165,3.7793,3.826,3.7614,3.7823,3.823,3.6972,3.6956,3.7614,3.8242,3.9349,0.0,0.0,4.1852,4.2661,0.0,0.0,0.0,4.9082,4.9643,5.0235,5.4127,5.5055,5.5239,5.5983,5.7094,5.7756,5.7184,5.7603,5.8025,5.8025,5.7513,5.7094,5.7034,5.6551,5.6192,5.6162,5.5623,5.5179,5.5179,5.5179,5.5179,5.5179,5.5179,5.5179,5.5179,5.5179,5.4551,5.3288,5.2546,5.1917,5.1295,5.1236,5.1206,5.1236,5.1887,5.1828,5.1206,5.1887,5.1828,5.1206,5.1206,5.1565,5.2187,5.2187,5.2546,5.3139,5.3139,5.2725,5.2336,5.3653,5.3743,5.3318,0.0,0.0,0.0,0.0,0.0,0.0,0.0,0.0,0.0,0.0,0.0,0.0,0.0,0.0,3.1211,3.0291,3.0826,3.1792,3.3122,3.3705,3.4312,3.505,3.5359,3.5519,3.5519,3.5519,3.5519,3.5519,3.4773,3.4453,3.456,3.4356,3.4399,3.4687,3.5589,3.6436,3.7189,3.6743,3.7015,3.7614,3.6806,3.6493,3.6523,3.6703,3.6853,3.7002,3.6823,3.7464,3.835,3.7973,3.8631,3.9589,3.9798,0.0,0.0,0.0,0.0,0.0,4.3369,0.0,0.0,0.0,0.0,0.0,4.9845,5.093,5.2043,5.3707,5.4306,5.494,5.6222,5.6196,5.6166,5.6645,5.6944,5.6765,5.5837,5.6013,5.6013,5.5508,5.5299,5.5179,5.5179,5.5179,5.5179,5.5179,5.5179,5.5179,5.5179,5.473,5.4311,5.3952,5.2815,5.2576,5.3359,5.1923,5.1415,5.1917,5.1594,5.1355,5.1206,5.1385,5.1355,5.1206,5.1206,5.1295,5.1498,5.1498,5.1588,5.1768,5.1768,5.1648,5.1565,5.2456,5.2935,5.3318,0.0,0.0,0.0,0.0,0.0,0.0,0.0,0.0,0.0,0.0,0.0,0.0,0.0,0.0,0.0,3.1352,3.1955,3.2823,3.3927,3.438,3.4889,3.5457,3.5519,3.5519,3.5519,3.5519,3.5519,3.5519,3.4493,3.3791,3.3411,3.2844,3.2707,3.2971,3.4088,3.4932,3.5552,3.5527,3.6088,3.6985,3.6626,3.6643,3.6896,3.7182,3.7631,3.8093,3.7793,3.8739,3.9846,3.8452,3.8871,3.9948,3.9649,4.0127,4.0876,4.1283,0.0,0.0,0.0,0.0,4.4087,4.4925,0.0,0.0,4.8319,4.9075,4.989,5.1618,5.2606,5.3468,5.4366,5.467,5.491,5.5299,5.5658,5.5718,5.5269,5.5564,5.5743,5.5623,5.5359,5.5299,5.5593,5.5359,5.5179,5.5179,5.5179,5.5059,5.479,5.4132,5.3653,5.3384,5.2336,5.2157,5.294,5.1774,5.1385,5.1798,5.1385,5.1206,5.1206,5.1206,5.1206,5.1206,5.1206,5.1206,5.1206,5.1206,5.1206,5.1206,5.1206,5.1206,5.1265,5.1947,5.2606,5.3318,0.0,0.0,0.0,0.0,0.0,0.0,0.0,0.0,0.0,0.0,0.0,0.0,0.0,0.0,0.0,0.0,3.3533,3.4058,3.416,3.4988,3.5519,3.5519,3.5519,3.5519,3.5519,3.5519,3.5441,3.5326,3.4312,3.3377,3.2415,3.1481,3.1345,0.0,0.0,0.0,3.4842,3.5287,3.5848,3.6404,3.6553,3.6956,3.7584,3.8153,3.914,4.0098,3.9481,4.0487,4.1613,3.8811,3.8524,3.9331,3.896,3.9936,4.1224,4.1463,4.1912,0.0,0.0,0.0,0.0,4.5553,4.5164,0.0,4.8169,4.8468,4.8446,4.983,5.1528,5.263,5.2187,5.3114,5.3952,5.3892,5.4047,5.4431,5.5089,5.5239,5.5508,5.6132,5.5743,5.5623,5.6162,5.5683,5.5269,5.5234,5.5119,5.479,5.4132,5.3443,5.2869,5.2336,5.1588,5.1236,5.1295,5.1236,5.1206,5.1206,5.1206,5.1206,5.1206,5.1206,5.1206,5.1206,5.1206,5.1206,5.1206,5.1206,5.1206,5.1206,5.1206,5.1206,5.1265,5.1947,5.2576,5.3174,0.0,0.0,0.0,0.0,0.0,0.0,0.0,0.0,0.0,0.0,0.0,0.0,0.0,0.0,0.0,0.0,3.3893,3.4329,3.5149,3.5392,3.5519,3.5519,3.5519,3.5519,3.5519,3.5519,3.51,3.4279,3.3342,3.2379,3.1444,3.0514,3.0527,3.1381,3.2218,3.3189,3.4231,3.5126,3.5579,3.5789,3.6806,3.7614,3.8212,3.835,3.8542,3.8751,3.8631,3.92,4.0068,4.0487,4.0068,3.966,4.1134,4.0775,4.0127,4.1733,4.2291,4.2511,4.313,4.4087,4.4736,4.4057,4.4506,0.0,4.5933,4.6411,4.7219,4.9097,4.9786,5.0324,5.1229,5.2067,5.2426,5.1864,5.312,5.4431,5.5089,5.5683,5.6042,5.6192,5.6521,5.6585,5.6222,5.6072,5.5773,5.5239,5.47,5.4102,5.3414,5.2755,5.2576,5.2989,5.1828,5.1445,5.2007,5.1475,5.1206,5.1206,5.1206,5.1206,5.1206,5.1206,5.1206,5.1206,5.1206,5.1206,5.1206,5.1206,5.1206,5.1206,5.1206,5.1206,5.1265,5.1947,5.2276,5.2486,0.0,0.0,0.0,0.0,0.0,0.0,0.0,0.0,0.0,0.0,0.0,0.0,0.0,0.0,0.0,0.0,0.0,0.0,0.0,3.5519,3.5519,3.5519,3.5519,3.5519,3.5519,3.5519,3.5017,3.3996,3.3052,3.211,3.1185,3.0714,3.0988,3.1929,3.2876,3.3825,3.4789,3.5294,3.5878,3.6477,3.6806,3.7315,3.7943,3.8272,3.8601,3.8901,3.8901,3.9349,4.0068,4.1074,4.1384,4.1365,4.1403,4.1594,4.1923,4.2271,4.2601,4.291,4.322,4.3788,4.4207,4.3878,4.4296,0.0,0.0,4.4712,4.5149,4.5846,4.6521,4.7338,4.8587,4.9581,5.0451,5.1086,5.2336,5.3443,5.4102,5.5354,5.6312,5.6611,5.6671,5.6551,5.6222,5.5893,5.5564,5.5209,5.4581,5.3922,5.3228,5.2546,5.2187,5.2187,5.1535,5.1355,5.1708,5.1355,5.1206,5.1206,5.1206,5.1206,5.1206,5.1206,5.1206,5.1206,5.1206,5.1206,5.1206,5.1206,5.1206,5.1206,5.1206,5.1206,5.1236,5.1588,5.1917,5.2306,3.5519,0.0,0.0,0.0,0.0,0.0,0.0,0.0,0.0,3.6297,0.0,0.0,0.0,0.0,0.0,0.0,0.0,0.0,3.5699,3.5579,3.5519,3.5519,3.5519,3.5408,3.5228,3.5198,3.4698,3.3616,3.2737,3.1901,3.1089,3.1145,3.1701,3.2629,3.3584,3.4618,3.5699,3.5699,3.6357,3.7375,3.7015,3.7225,3.7836,3.8392,3.8931,3.9391,3.9391,3.981,4.0516,4.1313,4.2282,4.2921,4.1713,4.2551,4.3808,4.314,4.321,4.3499,4.3668,4.3878,4.4117,4.4267,4.4476,4.4507,0.0,0.0,0.0,4.2972,4.3868,4.5046,4.601,4.7249,4.8499,4.9727,5.0691,5.1363,5.1673,5.3653,5.5487,5.6589,5.6312,5.6072,5.6192,5.5384,5.485,5.4999,5.4281,5.3623,5.3228,5.2546,5.1947,5.1415,5.1265,5.1206,5.1206,5.1206,5.1206,5.1206,5.1206,5.1206,5.1206,5.1206,5.1206,5.1206,5.1206,5.1206,5.1206,5.1206,5.1206,5.1206,5.1206,5.1206,5.1206,5.1206,5.1558,5.2097,3.5519,3.5519,0.0,0.0,3.6464,0.0,0.0,0.0,3.6284,3.5699,3.5549,3.5519,3.5519,3.5519,3.5729,3.6327,3.5848,3.5759,3.6344,3.5818,3.5519,3.5519,3.5519,3.5083,3.4194,3.4177,3.3526,3.2235,3.1628,3.11,3.068,3.1043,3.1701,3.2629,3.3584,3.4898,3.6404,3.6404,3.6776,3.7464,3.7973,3.8571,3.9182,3.9242,3.9331,3.9391,3.9391,3.981,4.0576,4.1852,4.2381,4.275,4.4257,4.3768,4.295,4.4517,4.4616,4.4296,4.4915,4.5933,4.6441,4.4715,4.5194,4.5616,4.382,0.0,4.4144,4.3541,0.0,4.5354,4.5475,0.0,0.0,4.5564,4.6807,4.7611,4.6602,4.9062,5.2072,5.5078,5.5359,5.5564,5.6132,5.4516,5.3653,5.4281,5.3144,5.2636,5.3169,5.2546,5.2157,5.2097,5.1505,5.1206,5.1206,5.1206,5.1206,5.1206,5.1206,5.1206,5.1206,5.1206,5.1206,5.1206,5.1206,5.1206,5.1206,5.1206,5.1206,5.1206,5.1206,5.1206,5.1206,5.1206,5.1236,5.1325,3.5519,3.5519,0.0,0.0,3.5908,3.5998,3.6267,3.6716,3.6926,3.6656,3.6956,3.7015,3.6656,3.6956,3.7135,3.7015,3.6776,3.6567,3.6493,3.5878,0.0,3.6058,3.5699,3.5211,3.4594,3.4197,3.3192,3.1536,3.1317,3.1119,3.0963,3.1661,3.2504,3.3463,3.4442,3.5472,3.6493,3.6493,3.7075,3.8003,3.829,3.8811,3.9391,3.9391,3.9391,3.9391,3.9391,3.981,4.0427,4.0606,4.1923,4.3449,4.314,4.3798,4.4676,4.4706,4.4796,4.4945,4.5214,4.5693,4.5933,4.5095,4.4794,4.4232,4.2339,4.1824,4.1625,4.0958,0.0,0.0,0.0,0.0,0.0,0.0,4.5519,4.6107,4.5619,4.7608,4.9939,5.2113,5.2996,5.3563,5.3857,5.3114,5.2905,5.3563,5.2396,5.1917,5.2576,5.1977,5.1594,5.1594,5.1355,5.1206,5.1206,5.1206,5.1206,5.1206,5.1206,5.1206,5.1206,5.1206,5.1206,5.1206,5.1206,5.1206,5.1206,5.1206,5.1206,5.1206,5.1206,5.1206,5.1206,5.1206,5.1206,5.1295,3.5519,0.0,0.0,3.5519,3.5519,3.5579,3.5759,3.6567,3.7285,3.7644,3.8093,3.8272,3.7985,3.8392,3.8542,3.8242,3.7883,3.7494,3.7062,3.6387,3.6088,3.6207,3.5839,3.5195,3.4344,3.3772,3.277,3.1423,3.1265,3.1493,3.2083,3.2705,3.3462,3.4335,3.5511,3.6297,3.6776,3.7135,3.7823,3.8661,3.8661,3.896,3.9391,3.9391,3.9391,3.9355,3.9053,3.959,4.033,3.9932,4.1662,4.3848,4.2791,4.3988,4.5583,4.4825,4.4915,4.5334,4.5514,4.5693,4.5753,4.5394,4.4427,4.3133,4.1391,4.0826,4.0455,3.9791,4.1435,0.0,0.0,0.0,4.4186,4.3585,0.0,4.4163,4.4212,4.5645,4.7467,4.9515,5.0877,5.1448,5.0925,5.0671,5.1017,5.2062,5.0905,5.0691,5.1864,5.1445,5.1206,5.1206,5.1206,5.1206,5.1206,5.1206,5.1206,5.1206,5.1206,5.1206,5.1206,5.1206,5.1206,5.1206,5.1206,5.1206,5.1206,5.1206,5.1206,5.1206,5.1206,5.1206,5.1206,5.1415,5.1355,5.1385,3.5519,3.5519,3.5519,3.5519,3.5519,3.5729,3.6374,3.6493,3.6972,3.823,3.8409,3.8631,3.9272,3.9361,3.9601,4.0247,3.911,3.838,3.835,3.7704,3.6806,3.5579,3.5752,3.4882,3.272,3.2283,3.203,3.1973,3.1457,3.2246,3.4287,3.4055,3.4324,3.5033,3.6623,3.7357,3.7464,3.8763,3.9331,3.9361,3.9361,3.9391,3.9391,3.9391,3.9391,3.9265,3.8219,3.8937,4.0446,4.0654,4.188,4.3549,4.4796,4.4796,4.4476,4.5095,4.5274,4.5454,4.6091,4.6719,4.692,4.5633,4.4427,4.3226,4.1784,4.2076,4.2403,4.1677,4.4034,4.5681,4.3823,4.398,4.363,0.0,4.0824,0.0,0.0,4.1951,4.4083,4.7909,4.949,4.9506,4.7643,4.6878,4.7319,4.9288,4.8259,4.8611,5.1099,5.1206,5.1206,5.1206,5.1206,5.1206,5.1206,5.1206,5.1206,5.1206,5.1206,5.1206,5.1206,5.1206,5.1206,5.1206,5.1206,5.1206,5.1206,5.1206,5.1206,5.1206,5.1206,5.1206,5.1265,5.1947,5.1768,5.1385,3.5519,0.0,3.5519,3.5519,3.5519,3.5878,3.6926,3.7853,3.8721,3.9619,4.0116,4.0475,4.0696,4.1134,4.1313,4.1074,4.0655,4.0026,3.914,3.8853,3.8002,3.6435,3.6443,3.5841,3.4472,3.3877,3.3625,3.3728,3.3528,3.4141,3.5441,3.4927,3.5136,3.6026,3.6568,3.7015,3.7464,3.8362,3.899,3.9391,3.9391,3.993,4.0636,3.972,3.8962,3.8275,3.7937,3.7701,3.7823,3.9051,4.0437,4.1869,4.3001,4.4127,4.5005,4.5214,4.5603,4.6091,4.6779,4.713,4.71,4.6181,4.475,4.3358,4.2444,4.2458,4.2611,4.234,4.3798,4.4685,4.3113,4.2684,4.1981,0.0,0.0,4.0309,0.0,4.209,4.3058,4.4263,4.5604,4.6164,4.5502,4.5986,4.6852,4.7961,4.8014,4.8572,4.9883,5.0308,5.0548,5.0548,5.0966,5.1206,5.1206,5.1206,5.1206,5.1206,5.1206,5.1206,5.1206,5.1206,5.1206,5.1206,5.1206,5.1206,5.1206,5.1206,5.1206,5.1206,5.1206,5.1475,5.1887,5.2127,5.2067,5.2007,3.5848,3.5669,3.5519,3.5519,3.5699,3.6207,3.7238,3.8733,4.0008,4.0666,4.1534,4.2073,4.2073,4.269,4.281,4.2132,4.2073,4.1534,4.0217,3.9699,3.8666,3.6893,3.6873,3.623,3.4739,3.4979,3.4993,3.4739,3.5536,3.6238,3.6851,3.6254,3.6259,3.6836,3.7062,3.7255,3.7494,3.8631,3.923,3.9391,3.9391,3.9698,4.0041,3.9147,3.8708,3.8409,3.7538,3.704,3.6959,3.8187,3.9677,4.1243,4.2644,4.3928,4.4975,4.5214,4.5762,4.639,4.6809,4.713,4.716,4.648,4.5124,4.3834,4.3358,4.3475,4.3612,4.3267,4.4245,4.4622,4.2797,4.1974,4.1169,0.0,0.0,0.0,0.0,4.1573,4.1893,4.1535,4.2648,4.3364,4.3086,4.4218,4.5263,4.596,4.6781,4.7755,4.8865,4.9553,4.9979,5.0196,5.0847,5.1206,5.1206,5.1206,5.1206,5.1206,5.1206,5.1206,5.1206,5.1206,5.1206,5.1206,5.1206,5.1206,5.1206,5.1206,5.1206,5.1206,5.1206,5.1594,5.2217,5.2456,5.2845,5.3294,3.6553,3.6058,3.5639,3.5639,3.6178,3.6793,3.7375,3.917,4.0696,4.1373,4.2581,4.3349,4.3379,4.3938,4.4027,4.3429,4.3319,4.2771,4.1523,4.0422,3.8947,3.7028,3.7172,3.6148,3.3707,3.5592,3.6136,3.527,3.7362,3.8437,3.8487,3.7975,3.7634,3.7494,3.8153,3.8063,3.7584,3.9559,4.0008,3.9391,3.9391,3.8808,3.792,3.7863,3.862,3.943,3.6972,3.6788,3.7739,3.8077,3.9596,4.1716,4.3698,4.4296,4.4436,4.5155,4.5813,4.63,4.633,4.6809,4.716,4.651,4.552,4.4644,4.4562,4.5075,4.531,4.4542,4.5402,4.5449,4.289,4.1912,4.1119,0.0,0.0,0.0,3.9751,4.0329,4.0509,3.9838,4.0704,4.1097,4.048,4.1595,4.2665,4.3409,4.4691,4.6236,4.8044,4.8895,4.9531,5.0037,5.0823,5.1206,5.1206,5.1206,5.1206,5.1206,5.1206,5.1206,5.1206,5.1206,5.1206,5.1206,5.1206,5.1206,5.1206,5.1206,5.1206,5.1206,5.1236,5.1654,5.2366,5.2995,5.4097,5.5089,3.7165,3.7434,3.7661,3.7661,3.7811,3.7943,3.8123,3.9828,4.1373,4.2051,4.324,4.4237,4.4736,4.4496,4.4237,4.4057,4.3609,4.298,4.2201,4.2267,4.1361,3.9131,3.9565,3.9082,3.7453,3.8425,3.8958,3.9005,3.9558,3.9846,3.9858,3.8727,3.8168,3.8153,3.8823,3.8781,3.8242,3.9768,4.0008,3.9391,3.9391,3.9595,3.979,3.8821,3.8568,3.8358,3.5948,3.5553,3.6368,3.7724,3.9439,4.1339,4.3596,4.4296,4.4536,4.5702,4.6181,4.642,4.6899,4.7189,4.7279,4.71,4.6437,4.5984,4.6436,4.6288,4.5947,4.5746,4.4893,4.3798,4.2617,4.1207,4.0389,4.0994,4.1912,4.1719,3.9468,3.9693,3.988,3.9216,3.8302,3.8155,3.9196,4.0872,4.216,4.286,4.4853,4.6086,4.6146,4.8148,4.8951,4.8138,5.0105,5.1206,5.1206,5.1206,5.1206,5.1206,5.1206,5.1206,5.1206,5.1206,5.1206,5.1206,5.1206,5.1206,5.1206,5.1206,5.1206,5.1236,5.1768,5.2665,5.3713,5.3892,5.4491,5.5179,3.8225,3.8811,3.926,3.926,3.9757,4.0056,3.9757,4.0924,4.1972,4.2351,4.3509,4.4227,4.4068,4.4436,4.4616,4.4326,4.3938,4.3579,4.3259,4.2801,4.1856,4.0316,4.0265,3.9792,3.8813,3.9624,4.018,4.0397,4.0486,4.0335,3.9948,3.8962,3.8309,3.8003,3.8973,3.9182,3.8901,3.9948,4.0337,4.021,3.9372,3.9228,0.0,3.8122,3.7585,3.7338,3.5976,3.6007,3.6943,3.8753,4.0489,4.2225,4.4134,4.4945,4.5373,4.642,4.6719,4.6809,4.7219,4.7309,4.7309,4.7309,4.704,4.668,4.6506,4.634,4.5953,4.5087,4.3843,4.2758,4.2035,4.1183,4.0691,4.1176,4.1853,4.1341,3.8538,3.8678,3.8924,3.8541,3.7663,3.7563,3.8793,4.0121,4.1399,4.2602,4.4135,4.5033,4.5046,4.6425,4.7143,4.7026,4.9203,5.065,5.1206,5.1475,5.1475,5.1206,5.1206,5.1206,5.1206,5.1206,5.1206,5.1206,5.1206,5.1206,5.1206,5.1206,5.1355,5.1738,5.2695,5.3533,5.4251,5.4521,5.488,5.5179,3.9511,4.0217,4.0666,4.0666,4.1762,4.2481,4.2002,4.2391,4.28,4.28,4.3898,4.4227,4.302,4.4337,4.5035,4.4356,4.4207,4.4177,4.4177,4.2699,4.1604,4.1154,4.0376,3.97,3.9141,4.0057,4.0487,4.0397,4.058,4.0288,3.9529,3.9039,3.8394,3.7716,3.8973,3.9541,3.9571,4.0157,4.0651,4.091,3.9257,3.8307,3.7796,3.6973,3.6681,3.6755,3.7058,3.7709,3.8678,4.0261,4.1948,4.3668,4.4915,4.5753,4.642,4.71,4.7309,4.7309,4.7309,4.7309,4.7309,4.7309,4.7149,4.6778,4.5753,4.5613,4.5232,4.3585,4.2654,4.2008,4.1529,4.1799,4.185,4.1029,4.1046,4.0289,3.7781,3.7814,3.8115,3.8115,3.8112,0.0,3.9095,3.976,4.078,4.2342,4.3115,4.3737,4.4167,4.4537,4.5235,4.6338,4.8369,5.0036,5.1325,5.1828,5.1828,5.1325,5.1236,5.1206,5.1206,5.1206,5.1206,5.1206,5.1206,5.1206,5.1206,5.1206,5.1648,5.2456,5.3623,5.4192,5.4401,5.497,5.5179,5.5179,4.0924,4.1583,4.2051,4.2051,4.311,4.4107,4.4556,4.4726,4.4786,4.4786,4.5933,4.6501,4.5702,4.5424,4.5035,4.4356,4.3788,4.3489,4.3489,4.319,4.2971,4.2872,4.2267,4.1613,4.0959,4.1129,4.0954,4.0397,4.0443,4.0382,4.0217,3.9571,3.9193,3.9092,3.9888,4.0217,4.0247,4.0337,3.9942,3.9151,3.8822,3.8122,3.732,3.8146,3.8184,3.806,3.9997,4.0554,4.04,4.0689,4.2291,4.4267,4.5035,4.5753,4.642,4.71,4.7309,4.7309,4.7309,4.7309,4.7309,4.7309,4.6528,4.5834,4.6143,4.4597,4.3098,4.3329,4.2009,4.1103,4.2033,4.3588,4.4018,4.1828,4.2334,4.1998,3.9018,3.8693,3.8743,3.8743,3.8838,3.9323,4.0374,4.102,4.1297,4.1149,4.3062,4.3601,4.2213,4.4648,4.5931,4.5696,4.8528,5.0666,5.2007,5.1588,5.1594,5.2007,5.1445,5.1206,5.1206,5.1206,5.1206,5.1206,5.1206,5.1206,5.1206,5.1206,5.1917,5.3049,5.3288,5.4042,5.5029,5.5149,5.5179,5.5179,4.1871,4.2421,4.297,4.3299,4.4167,4.5035,4.5723,4.6112,4.6082,4.5394,4.5574,4.5493,4.4835,4.4775,4.4646,4.4326,4.3698,4.3439,4.3818,4.3489,4.329,4.329,4.272,4.2391,4.2402,4.1384,4.1205,4.1904,4.0187,3.9709,4.0367,3.9349,3.8871,3.8901,3.9571,4.0277,4.0894,4.0546,4.0104,3.9644,3.9033,3.8705,3.8551,3.8507,3.9087,4.0074,4.1211,4.1805,4.2156,4.251,4.3603,4.4945,4.5633,4.6271,4.6869,4.7219,4.7309,4.7309,4.7309,4.6814,4.6299,4.6299,4.5343,4.434,4.3982,4.3146,4.2287,4.1957,4.115,4.1001,4.2688,4.3768,4.3911,4.2426,4.2355,4.1544,3.8817,3.8693,3.8793,3.8492,3.9058,3.982,4.0689,4.1598,4.2012,4.1744,4.3085,4.3099,4.1237,4.29,4.427,4.4997,4.6459,4.8647,5.1654,5.1034,5.1034,5.1678,5.1355,5.1206,5.1206,5.1206,5.1206,5.1206,5.1588,5.1505,5.1236,5.1947,5.2815,5.3743,5.4127,5.461,5.5179,5.5179,5.5179,5.5179,4.277,4.318,4.3728,4.4386,4.5065,4.5693,4.6211,4.6869,4.689,4.5663,4.5065,4.4416,4.3609,4.4117,4.4386,4.4117,4.3878,4.3878,4.4267,4.3818,4.3499,4.3499,4.281,4.2631,4.31,4.1324,4.1156,4.2681,4.0098,3.929,4.0157,3.926,3.8679,3.8422,3.9409,4.0247,4.0935,4.0453,4.0247,4.0166,3.9263,3.9161,3.947,3.9001,3.9988,4.1629,4.1885,4.2548,4.3409,4.4237,4.4855,4.5394,4.5912,4.6651,4.7309,4.7309,4.7309,4.7244,4.6975,4.6166,4.532,4.507,4.4046,4.2834,4.1838,4.171,4.1517,4.0534,4.0743,4.1692,4.3563,4.3905,4.3667,4.2985,4.2151,4.0856,3.8666,3.8768,3.8995,3.8789,3.9707,4.0618,4.1271,4.219,4.2626,4.2358,4.2746,4.2211,4.0408,4.1108,4.2442,4.4311,4.4507,4.6701,5.1152,5.0398,5.0457,5.1415,5.1265,5.1206,5.1206,5.1206,5.1206,5.1236,5.1917,5.1977,5.1708,5.2755,5.3593,5.4251,5.479,5.5059,5.5179,5.5179,5.5179,5.5179,4.3898,4.4177,4.4436,4.5095,4.5762,4.6241,4.63,4.6869,4.704,4.63,4.6151,4.5642,4.4356,4.4796,4.4736,4.3519,4.4446,4.4885,4.4326,4.4237,4.4207,4.4207,4.305,4.244,4.25,4.1134,4.0487,4.0666,4.0367,3.9978,3.9511,3.9978,3.9559,3.8499,4.0385,4.0606,3.9606,3.9663,3.9439,3.9052,3.8946,3.8662,3.8491,4.0504,4.142,4.1732,4.278,4.321,4.3519,4.4796,4.5244,4.5304,4.5364,4.6262,4.7309,4.7309,4.7309,4.704,4.5891,4.5508,4.5115,4.3975,4.2714,4.1739,4.1616,4.0744,3.9927,3.9798,4.1622,4.363,4.4955,4.5207,4.4835,4.361,4.2396,4.1118,3.9752,3.9597,4.0033,4.1137,4.1851,4.25,4.3098,4.3356,4.2948,4.1613,4.1639,4.0904,3.9168,4.0621,4.2181,4.3646,4.4698,4.7149,5.1152,4.9931,5.0223,5.2097,5.1475,5.1206,5.1206,5.1206,5.1206,5.1236,5.1917,5.2516,5.3019,5.3169,5.3593,5.4221,5.4281,5.467,5.5179,5.5179,5.5179,5.5179,4.4796,4.4915,4.5125,4.5762,4.6121,4.645,4.6839,4.713,4.7048,4.639,4.63,4.6091,4.5553,4.5394,4.5095,4.4556,4.4975,4.5005,4.4326,4.4296,4.4117,4.3728,4.319,4.294,4.294,4.2062,4.1583,4.1583,4.1194,4.0846,4.0576,4.0068,3.9511,3.905,3.9858,4.0337,4.0562,3.9867,3.9718,3.9905,3.9596,3.9766,4.0311,4.1253,4.2029,4.267,4.315,4.3579,4.3997,4.4506,4.4975,4.5424,4.6232,4.686,4.7309,4.7309,4.6748,4.6054,4.5553,4.4279,4.3002,4.2471,4.1419,4.0465,4.0465,4.0083,3.9697,3.9697,4.1715,4.3669,4.4163,4.4256,4.3834,4.2568,4.1294,4.0287,3.9774,3.9421,3.9549,4.0421,4.0117,4.0246,4.1262,4.1371,4.1462,4.1643,4.2008,4.1715,4.0526,4.1502,4.3088,4.5207,4.4885,4.6598,5.0554,4.9673,5.0019,5.1618,5.1325,5.1206,5.1206,5.1618,5.2247,5.297,5.2845,5.3408,5.4371,5.3952,5.4192,5.479,5.479,5.497,5.5179,5.5179,5.5179,5.5179,4.5574,4.5603,4.5813,4.648,4.66,4.6749,4.7249,4.7309,4.713,4.6659,4.66,4.645,4.6031,4.5753,4.5514,4.5304,4.5663,4.5603,4.4925,4.4685,4.4386,4.3908,4.3499,4.329,4.329,4.272,4.241,4.241,4.1733,4.1313,4.1104,4.0337,3.987,3.972,4.0098,4.0696,4.1327,4.0313,4.0288,4.0851,4.0534,4.0873,4.1629,4.1968,4.2589,4.3319,4.3499,4.3908,4.4356,4.4745,4.5194,4.5753,4.6711,4.716,4.7244,4.6866,4.6099,4.5229,4.4489,4.2978,4.1518,4.1119,4.0364,3.9697,3.9697,3.9697,3.9904,4.0642,4.1961,4.317,4.3929,4.3456,4.2641,4.1739,4.067,3.9873,3.9722,3.9371,3.9371,4.0027,3.9545,3.9437,4.0109,4.0503,4.0957,4.1629,4.2124,4.2228,4.1888,4.243,4.3821,4.6039,4.512,4.6404,5.0143,4.9557,4.9849,5.1206,5.1206,5.1295,5.1528,5.2187,5.3114,5.4167,5.3683,5.4132,5.5149,5.47,5.476,5.5179,5.5179,5.5179,5.5179,5.5179,5.5179,5.5179,4.6151,4.63,4.651,4.7189,4.7309,4.7309,4.7309,4.7309,4.7309,4.7309,4.7309,4.677,4.5454,4.5882,4.6001,4.5364,4.6501,4.701,4.633,4.5663,4.5274,4.5274,4.3997,4.329,4.329,4.272,4.241,4.241,4.1733,4.1074,4.0427,4.1074,4.1014,4.0457,4.1762,4.2021,4.1357,4.0828,4.099,4.1587,4.1587,4.1587,4.1711,4.286,4.329,4.3379,4.4057,4.4296,4.4506,4.5822,4.6271,4.63,4.63,4.6749,4.704,4.5779,4.5389,4.4863,4.2325,4.1616,4.1294,4.0032,3.9723,3.9697,3.9697,3.9697,4.0415,4.293,4.2471,4.2374,4.4909,4.3313,4.1616,4.1591,4.0978,4.0325,3.9772,3.9697,3.9956,4.0702,4.1303,4.1385,4.0654,4.1789,4.2228,4.1457,4.1595,4.198,4.2657,4.312,4.4042,4.5467,4.5388,4.6878,5.0173,4.9533,4.9854,5.1206,5.1206,5.1535,5.2217,5.2875,5.3563,5.4221,5.4192,5.4581,5.5179,5.5179,5.5179,5.5179,5.5179,5.5179,5.5179,5.5179,5.5179,5.5179,4.6929,4.6958,4.707,4.7279,4.7309,4.7309,4.7309,4.7309,4.7309,4.7309,4.7309,4.713,4.6711,4.686,4.692,4.6681,4.707,4.704,4.636,4.6091,4.5553,4.4676,4.4207,4.3758,4.329,4.31,4.2791,4.241,4.2611,4.2132,4.1104,4.1782,4.1703,4.1134,4.2021,4.2511,4.2633,4.1692,4.1855,4.267,4.1926,4.2353,4.3471,4.3846,4.4267,4.4706,4.4915,4.5274,4.5732,4.6151,4.66,4.6829,4.5962,4.5835,4.5913,4.5531,4.4163,4.2617,4.1813,4.097,4.0211,3.98,3.9697,3.9697,3.9697,3.9697,4.016,4.1862,4.1887,4.1838,4.2665,4.2157,4.145,4.0952,4.036,4.0023,4.0224,3.9622,3.9492,4.0476,3.981,3.9448,4.0006,4.1287,4.2124,4.2284,4.3869,4.4552,4.3901,4.4416,4.5366,4.6675,4.7972,4.9369,5.0877,5.1571,5.2129,5.2546,5.2546,5.2905,5.3563,5.3773,5.4251,5.488,5.488,5.4999,5.5179,5.5179,5.5179,5.5179,5.5179,5.5179,5.5179,5.5179,5.5179,5.5179,4.7309,4.7309,4.7309,4.7309,4.7309,4.7309,4.7309,4.7309,4.7309,4.7309,4.7309,4.7309,4.7309,4.7309,4.7309,4.7309,4.7309,4.713,4.6689,4.645,4.5942,4.5074,4.4566,4.4087,4.3698,4.3429,4.313,4.275,4.313,4.2921,4.2182,4.281,4.302,4.287,4.3289,4.3688,4.4017,4.3304,4.3407,4.3997,4.3284,4.3664,4.4676,4.4676,4.4945,4.5334,4.5603,4.5942,4.633,4.66,4.6929,4.7084,4.5801,4.507,4.4581,4.4116,4.2858,4.1518,4.1019,4.0313,3.9697,3.9697,3.9697,3.9697,3.9697,3.9697,4.0057,4.1344,4.1219,4.1019,4.1518,4.1219,4.0797,4.0556,4.0224,4.0049,4.0199,3.9446,3.9135,3.9822,3.9667,3.9744,4.04,4.2548,4.3822,4.3684,4.601,4.6864,4.5559,4.6121,4.7066,4.8342,4.98,5.1026,5.1947,5.2785,5.3198,5.3198,5.3468,5.3803,5.4221,5.4461,5.479,5.5179,5.5179,5.5179,5.5179,5.5179,5.5179,5.5209,5.5504,5.5418,5.5209,5.5478,5.5444,5.5179,4.7309,4.7309,4.7309,4.7309,4.7309,4.7309,4.7309,4.7309,4.7309,4.7309,4.7309,4.7309,4.7309,4.7309,4.7309,4.7309,4.7309,4.7309,4.7309,4.6719,4.636,4.63,4.5104,4.4416,4.4356,4.3758,4.3459,4.3459,4.3459,4.3459,4.3539,4.4107,4.4706,4.5304,4.5304,4.5304,4.5304,4.5304,4.5304,4.5304,4.5304,4.5334,4.5364,4.5364,4.5394,4.5514,4.6151,4.636,4.645,4.71,4.7244,4.6953,4.5666,4.4396,4.3146,4.1961,4.1517,4.1219,4.0032,3.9697,3.9697,3.9697,3.9697,3.9697,3.9697,3.9697,4.0032,4.1219,4.0542,4.0057,4.1244,4.0542,3.9923,4.0399,4.0499,4.0299,3.9772,3.9347,3.9063,3.9017,4.0777,4.193,4.1809,4.5073,4.6741,4.5514,4.778,4.8708,4.7578,4.8147,4.9015,5.0166,5.0996,5.2007,5.3258,5.3318,5.3348,5.3348,5.3982,5.4281,5.4311,5.491,5.5179,5.5179,5.5179,5.5179,5.5179,5.5179,5.5179,5.5294,5.5953,5.5803,5.5269,5.5953,5.5773,5.5179,4.7309,4.7309,4.7309,4.7309,4.7309,4.7309,4.7309,4.7309,4.7309,4.7309,4.7309,4.7309,4.7309,4.7309,4.7309,4.7309,4.7309,4.7309,4.7309,4.716,4.6839,4.633,4.6001,4.5583,4.5065,4.4915,4.4825,4.4825,4.4825,4.4825,4.4855,4.5005,4.5155,4.5304,4.5304,4.5304,4.5304,4.5304,4.5304,4.5304,4.5304,4.5603,4.6061,4.6061,4.636,4.686,4.701,4.7048,4.71,4.7249,4.666,4.5644,4.4349,4.3074,4.1985,4.169,4.092,4.0083,3.98,3.9697,3.9697,3.9697,3.9697,3.9697,3.9697,3.9697,3.98,4.0109,3.9904,3.98,4.0109,4.0231,4.0349,4.0474,4.0499,4.0299,3.9772,4.0438,4.0799,4.0332,4.234,4.374,4.3678,4.5406,4.66,4.683,4.79,4.8805,4.9501,5.0159,5.0398,5.0219,5.2342,5.3653,5.3952,5.4461,5.473,5.473,5.488,5.497,5.497,5.5119,5.5179,5.5179,5.5179,5.5179,5.5179,5.5179,5.5179,5.5294,5.5953,5.5803,5.5269,5.5953,5.5773,5.5179,4.7309,4.7309,4.7309,4.7309,4.7309,4.7309,4.7309,4.7309,4.7309,4.7309,4.7309,4.7309,4.7309,4.7309,4.7309,4.7309,4.7309,4.7309,4.7309,4.7309,4.716,4.6779,4.645,4.6121,4.5783,4.5454,4.5304,4.5304,4.5603,4.5753,4.5762,4.6082,4.6202,4.6202,4.6202,4.6202,4.6202,4.6202,4.6202,4.6202,4.6202,4.6441,4.6749,4.6749,4.6958,4.7309,4.7309,4.7309,4.7222,4.6638,4.5958,4.5092,4.3218,4.2181,4.1493,4.092,4.0236,3.9697,3.9697,3.9697,3.9697,3.9697,3.9697,3.9697,3.9697,3.9697,3.9697,3.9697,3.9697,3.9772,4.0023,4.0099,4.03,4.0775,4.0249,3.9853,4.0082,4.0518,4.1015,4.1505,4.3538,4.5098,4.5627,4.7138,4.8125,4.8229,4.9374,5.0242,5.0637,5.1864,5.2252,5.1588,5.3294,5.4371,5.464,5.4999,5.5179,5.5179,5.5179,5.5359,5.5653,5.5354,5.5384,5.5653,5.5329,5.5179,5.5179,5.5179,5.5179,5.5294,5.5953,5.5803,5.5269,5.5953,5.5773,5.5179,4.7309,4.7309,4.7309,4.7309,4.7309,4.7309,4.7309,4.7309,4.7309,4.7309,4.7309,4.7309,4.7309,4.7309,4.7309,4.7309,4.7309,4.7309,4.7309,4.7309,4.7309,4.7309,4.6749,4.645,4.645,4.5903,4.5603,4.5603,4.6151,4.645,4.645,4.7018,4.7309,4.7309,4.7309,4.7309,4.7309,4.7309,4.7309,4.7309,4.7309,4.7309,4.7309,4.7309,4.7309,4.7309,4.7309,4.7171,4.6866,4.5756,4.5138,4.4442,4.2277,4.1493,4.1094,4.0032,3.9697,3.9697,3.9697,3.9697,3.9697,3.9697,3.9697,3.9697,3.9697,3.9747,3.9823,3.9823,3.9898,4.0099,4.0524,4.0249,4.0224,4.1051,4.0104,3.9572,4.0374,4.0529,4.1141,4.2733,4.4675,4.6357,4.7491,4.9172,5.0039,4.9606,5.1199,5.2037,5.1654,5.3384,5.4132,5.3677,5.4102,5.461,5.5179,5.5179,5.5179,5.5179,5.5299,5.5623,5.6042,5.5564,5.5623,5.6013,5.5474,5.5179,5.5179,5.5179,5.5179,5.5294,5.5953,5.5803,5.5269,5.5953,5.5773,5.5179,4.7309,4.7309,4.7309,4.7309,4.7309,4.7309,4.7309,4.7309,4.7309,4.7309,4.7309,4.7309,4.7309,4.7309,4.7309,4.7309,4.7309,4.7309,4.7309,4.7309,4.7309,4.7309,4.7219,4.7138,4.7138,4.704,4.701,4.701,4.71,4.7138,4.716,4.7249,4.7309,4.7309,4.7309,4.7309,4.7309,4.7309,4.7309,4.7309,4.7309,4.7309,4.7309,4.7309,4.7309,4.7309,4.7309,4.6616,4.5666,4.5457,4.3975,4.2133,4.1715,4.0869,3.9955,3.9774,3.9697,3.9697,3.9697,3.9697,3.9697,3.9697,3.9697,3.9697,3.9697,4.0049,4.04,4.04,4.0725,4.1076,4.1177,4.1127,4.0951,4.0675,4.0824,4.0772,4.002,4.2086,4.3865,4.4245,4.6403,4.8149,4.8917,4.971,5.0398,5.0847,5.1708,5.2665,5.3658,5.4581,5.5264,5.5713,5.5294,5.5089,5.5179,5.5179,5.5179,5.5209,5.5773,5.5803,5.5359,5.5833,5.5803,5.5329,5.5239,5.5179,5.5179,5.5179,5.5179,5.5294,5.5953,5.5803,5.5269,5.5953,5.5773,5.5179,4.7309,4.7309,4.7309,4.7309,4.7309,4.7309,4.7309,4.7309,4.7429,4.7788,4.7848,4.7967,4.8349,4.8027,4.7848,4.7848,4.7519,4.7309,4.7309,4.7309,4.7309,4.7309,4.7309,4.7309,4.7309,4.7309,4.7309,4.7309,4.7309,4.7309,4.7309,4.7309,4.7309,4.7309,4.7309,4.7309,4.7309,4.7309,4.7309,4.7309,4.7309,4.7309,4.7309,4.7309,4.7309,4.7222,4.6528,4.5891,4.5184,4.3811,4.2568,4.1493,4.0794,4.016,3.9697,3.9697,3.9697,3.9697,3.9697,3.9697,3.9697,3.9697,3.9697,3.9697,3.9697,4.0124,4.0499,4.0499,4.0926,4.1403,4.1731,4.1304,4.1242,4.2316,4.1691,4.1499,4.2656,4.405,4.5247,4.5969,4.7986,4.9613,5.0242,5.09,5.1558,5.2217,5.2546,5.3324,5.467,5.5029,5.5658,5.6671,5.6376,5.6226,5.6226,5.5897,5.5743,5.5743,5.6042,5.6042,5.5743,5.6072,5.6042,5.5713,5.5359,5.5179,5.5179,5.5179,5.5179,5.5294,5.5953,5.6013,5.5773,5.6102,5.6013,5.5683,4.7309,4.7309,4.7369,4.7519,4.7399,4.7369,4.7519,4.7549,4.7728,4.8207,4.8438,4.8738,4.9247,4.8708,4.8319,4.8319,4.7698,4.7309,4.7309,4.7309,4.7309,4.7309,4.7309,4.7309,4.7309,4.7309,4.7309,4.7309,4.7309,4.7309,4.7309,4.7309,4.7309,4.7309,4.7309,4.7309,4.7309,4.7309,4.7309,4.7309,4.7309,4.7309,4.7309,4.7309,4.7106,4.6726,4.5756,4.5024,4.421,4.2279,4.1419,4.0969,4.0006,3.9697,3.9697,3.9697,3.9697,3.9697,3.9697,3.9697,3.9697,3.9697,3.9697,3.9697,3.9697,4.0224,4.0675,4.0675,4.1227,4.1856,4.2286,4.1582,4.1582,4.3625,4.2502,4.2314,4.5035,4.5705,4.6446,4.7798,4.9441,5.0757,5.1565,5.2276,5.2875,5.3384,5.3588,5.4186,5.5384,5.5593,5.6226,5.7513,5.7244,5.7094,5.7094,5.6641,5.6402,5.6402,5.6581,5.6551,5.6402,5.6402,5.6402,5.6372,5.5538,5.5269,5.5418,5.5239,5.5179,5.5239,5.5773,5.6072,5.6162,5.6042,5.6072,5.6102,4.7309,4.7309,4.7489,4.8139,4.7698,4.7519,4.8117,4.8229,4.8237,4.8289,4.8828,4.9247,4.9277,4.8708,4.8319,4.8319,4.7698,4.7309,4.7309,4.7309,4.7309,4.7309,4.7309,4.7309,4.7309,4.7309,4.7309,4.7309,4.7309,4.7309,4.7309,4.7309,4.7309,4.7309,4.7309,4.7309,4.7309,4.7309,4.7309,4.7309,4.7309,4.7309,4.7309,4.7309,4.6572,4.5531,4.5411,4.3882,4.1838,4.164,4.0819,3.9801,3.9723,3.9697,3.9697,3.9697,3.9697,3.9697,3.9697,3.9697,3.9697,3.9697,3.9697,3.9697,3.9697,4.0499,4.1225,4.1225,4.2108,4.2889,4.2939,4.2462,4.2344,4.3127,4.3175,4.3657,4.5184,4.641,4.7857,4.9747,5.0667,5.1624,5.2929,5.3653,5.4072,5.4132,5.47,5.5384,5.6102,5.6671,5.7573,5.8919,5.7752,5.7094,5.7094,5.7064,5.7034,5.7034,5.7636,5.7633,5.7034,5.7034,5.7034,5.6944,5.5718,5.5564,5.6072,5.5474,5.5179,5.5179,5.5239,5.5653,5.6132,5.5504,5.5683,5.6102,4.7399,4.7638,4.7997,4.8259,4.8087,4.8019,4.8259,4.8648,4.8917,4.8917,4.9464,4.9883,4.9883,4.9307,4.8738,4.8349,4.7698,4.7309,4.7309,4.7309,4.7309,4.7309,4.7309,4.7309,4.7309,4.7309,4.7309,4.7309,4.7309,4.7309,4.7309,4.7309,4.7309,4.7309,4.7309,4.7309,4.7309,4.7309,4.7309,4.7309,4.7309,4.7309,4.7222,4.641,4.5824,4.5184,4.3622,4.2398,4.1493,4.0693,4.0109,3.9697,3.9697,3.9697,3.9697,3.9697,3.9697,3.9772,4.0124,3.9948,3.9697,3.9697,3.9697,3.9798,4.0124,4.0775,4.1403,4.1781,4.2487,4.3014,4.3014,4.3252,4.3939,4.538,4.5727,4.6451,4.8145,4.9138,4.9979,5.0727,5.1798,5.2785,5.3713,5.4072,5.4371,5.479,5.5444,5.6102,5.6705,5.7752,5.856,5.9099,5.862,5.8351,5.8351,5.7932,5.7696,5.7696,5.7965,5.7752,5.7094,5.7543,5.7483,5.7034,5.6192,5.5953,5.6162,5.5923,5.5593,5.5269,5.6047,5.6312,5.6222,5.6342,5.6312,5.6222,4.7429,4.7848,4.8379,4.8588,4.8438,4.8416,4.8835,4.9284,4.9583,4.9583,5.0129,5.0435,5.0226,4.9643,4.9037,4.8379,4.7698,4.7309,4.7309,4.7309,4.7309,4.7309,4.7489,4.7608,4.7608,4.7608,4.7608,4.7608,4.7399,4.7309,4.7309,4.7309,4.7309,4.7309,4.7309,4.7309,4.7309,4.7309,4.7309,4.7309,4.7309,4.7309,4.7149,4.5891,4.5161,4.4512,4.235,4.1344,4.0869,3.9981,3.9697,3.9697,3.9697,4.0133,4.0594,4.0543,4.0696,4.0848,4.0757,4.0474,4.0199,4.0199,4.0199,4.03,4.0675,4.1177,4.1706,4.211,4.2612,4.3129,4.3547,4.4088,4.518,4.7397,4.7877,4.865,5.0564,5.1206,5.1678,5.2073,5.2965,5.3862,5.473,5.482,5.5089,5.5748,5.6222,5.6761,5.7393,5.8501,5.9099,5.9099,5.9099,5.9099,5.9099,5.8623,5.8414,5.8414,5.8414,5.8171,5.7723,5.7965,5.7965,5.7663,5.6851,5.6611,5.6765,5.6372,5.5923,5.5623,5.6492,5.6701,5.6551,5.6971,5.6974,5.6825,4.7429,4.7848,4.8528,4.9187,4.8738,4.8716,4.9986,5.0196,5.0196,5.0196,5.0787,5.0936,5.0278,4.9643,4.9037,4.8349,4.7668,4.7309,4.7309,4.7309,4.7309,4.7309,4.7938,4.8319,4.8319,4.8319,4.8319,4.8319,4.7638,4.7309,4.7309,4.7309,4.7309,4.7309,4.7309,4.7309,4.7309,4.7309,4.7309,4.7309,4.7309,4.7287,4.7127,4.5869,4.4581,4.3313,4.2035,4.0769,3.9697,3.9723,3.9723,3.9723,3.9723,4.1054,4.2563,4.2437,4.2884,4.3074,4.1704,4.1327,4.1327,4.1302,4.1302,4.1302,4.1327,4.1756,4.2213,4.2213,4.2665,4.3409,4.4752,4.5021,4.5951,4.8738,4.921,4.9936,5.193,5.2217,5.2725,5.4042,5.4221,5.473,5.6072,5.6192,5.6462,5.7034,5.7094,5.7393,5.8055,5.874,5.9099,5.9099,5.9099,5.9099,5.9099,5.9099,5.9099,5.9099,5.9099,5.9099,5.9069,5.8414,5.8474,5.9039,5.7693,5.7483,5.7995,5.6761,5.6222,5.6222,5.6222,5.6581,5.7094,5.7094,5.7543,5.7995,4.7429,4.7848,4.8528,4.9187,4.8342,4.8137,4.9931,4.9799,4.965,5.0163,5.0787,5.078,4.9696,4.9396,4.8828,4.7698,4.7429,4.7309,4.7309,4.7728,4.7997,4.7997,4.8199,4.8319,4.8319,4.8768,4.8768,4.8319,4.8087,4.7758,4.7309,4.7309,4.7309,4.7309,4.7309,4.7309,4.7309,4.7309,4.7309,4.7309,4.7309,4.6748,4.5824,4.4535,4.3289,4.201,4.0718,4.0032,3.9826,4.0718,4.1019,4.1273,4.2639,4.278,4.2541,4.2962,4.2554,4.1915,4.1942,4.1934,4.1831,4.1403,4.1302,4.1403,4.1831,4.206,4.2313,4.2688,4.364,4.4535,4.4941,4.6985,4.8918,4.9778,5.1101,5.2224,5.2797,5.3294,5.3773,5.4162,5.461,5.5239,5.6102,5.6192,5.6462,5.7034,5.7543,5.8112,5.877,5.9009,5.9099,5.9099,5.9099,5.9099,5.9099,5.9099,5.9099,5.9099,5.9099,5.9099,5.9099,5.889,5.8919,5.9069,5.8201,5.7905,5.8055,5.7693,5.7244,5.6881,5.7363,5.7363,5.7154,5.7633,5.7633,5.7513,4.7429,4.7848,4.8528,4.9187,4.8581,4.8599,5.0342,5.0242,5.014,5.0521,5.0936,5.072,4.9426,4.9277,4.8858,4.7788,4.7938,4.8087,4.8087,4.8468,4.8708,4.8708,4.8925,4.9045,4.9045,4.9434,4.9464,4.9045,4.8536,4.8087,4.7698,4.7429,4.7429,4.7668,4.7429,4.7459,4.7668,4.7429,4.7459,4.7625,4.6867,4.6245,4.5602,4.3767,4.2603,4.176,4.0465,4.0488,4.1261,4.1814,4.2142,4.258,4.3971,4.3834,4.3175,4.357,4.3257,4.2713,4.2576,4.2512,4.2436,4.2057,4.1955,4.2082,4.2436,4.2512,4.2753,4.3608,4.4454,4.5422,4.6801,4.8793,5.0539,5.1616,5.2803,5.3683,5.3947,5.4551,5.497,5.497,5.5568,5.6196,5.6885,5.6944,5.7214,5.7842,5.8291,5.8653,5.9069,5.9099,5.9099,5.9099,5.9099,5.9099,5.9099,5.9099,5.9099,5.9099,5.9099,5.9099,5.9099,5.9099,5.9099,5.9069,5.8653,5.8504,5.8474,5.8205,5.7846,5.7543,5.7935,5.7846,5.7573,5.8261,5.8261,5.7962,4.7429,4.7788,4.8438,4.9097,4.9007,4.9356,5.0794,5.0892,5.0804,5.0922,5.1075,5.0704,4.935,4.9299,4.9097,4.8468,4.8947,4.9277,4.9277,4.9337,4.9366,4.9366,4.9949,5.0285,5.0285,5.0285,5.0255,5.0196,4.9045,4.8438,4.8379,4.7758,4.7788,4.8379,4.7758,4.7818,4.8349,4.7728,4.7752,4.8053,4.6218,4.5706,4.5774,4.3283,4.2332,4.218,4.1027,4.1828,4.3377,4.305,4.3261,4.3761,4.4422,4.4453,4.4204,4.4177,4.4466,4.4562,4.3351,4.3014,4.3014,4.3014,4.3039,4.3065,4.3014,4.3073,4.3545,4.4831,4.5288,4.6431,4.9681,5.0435,5.1345,5.3784,5.4311,5.4581,5.5179,5.5863,5.6282,5.6282,5.6791,5.7363,5.8025,5.8145,5.8444,5.9069,5.9099,5.9099,5.9099,5.9099,5.9018,5.8909,5.9018,5.9018,5.8909,5.9018,5.9099,5.9099,5.9099,5.9099,5.9099,5.9099,5.9099,5.9099,5.9099,5.9099,5.9069,5.8444,5.8175,5.8175,5.8175,5.8175,5.8264,5.889,5.9099,5.9009,4.7339,4.7429,4.7728,4.8409,4.6772,4.6348,4.928,4.8388,4.7701,4.8731,5.023,5.0472,4.865,4.9373,4.9763,4.9127,4.9239,4.9277,4.9277,4.9733,5.0009,5.0009,5.0637,5.0996,5.0996,5.0996,5.0727,5.0196,4.992,4.9553,4.9067,4.8917,4.8947,4.9067,4.8917,4.8947,4.9067,4.8917,4.8302,4.7358,4.6535,4.4995,4.3159,4.216,4.1751,4.1752,4.1452,4.2277,4.3705,4.5118,4.5577,4.5784,4.6994,4.5864,4.423,4.4678,4.4159,4.3379,4.3073,4.3014,4.3014,4.3014,4.3341,4.3514,4.3115,4.3797,4.4802,4.5629,4.7525,4.9427,5.0666,5.2235,5.3511,5.4112,5.5059,5.5833,5.5953,5.6521,5.6885,5.6885,5.7004,5.7363,5.8025,5.859,5.8949,5.9099,5.9099,5.9099,5.9099,5.9099,5.8495,5.7243,5.844,5.8468,5.7215,5.8468,5.9099,5.9099,5.9099,5.9099,5.9099,5.9099,5.9099,5.9099,5.9099,5.9099,5.9099,5.8949,5.889,5.889,5.889,5.889,5.8919,5.9069,5.9099,5.9009,4.7369,4.7549,4.7967,4.8648,4.733,4.712,4.9789,4.9027,4.8495,4.949,5.0538,5.0673,4.931,4.9796,5.0069,4.9763,5.0002,5.0212,5.0212,5.0488,5.0697,5.0697,5.0996,5.1206,5.1206,5.1206,5.1026,5.0697,5.0345,5.0039,4.9733,4.9426,4.9456,4.9733,4.9426,4.9456,4.9703,4.9426,4.8512,4.7208,4.5983,4.4266,4.2385,4.1438,4.1461,4.1988,4.1988,4.3018,4.4608,4.6234,4.6264,4.5691,4.6125,4.5018,4.363,4.3941,4.3547,4.3014,4.3014,4.3014,4.3065,4.3313,4.4102,4.4789,4.4508,4.5216,4.6381,4.8074,4.9596,5.1027,5.2327,5.3475,5.4431,5.5029,5.5743,5.6312,5.6611,5.7184,5.7573,5.7573,5.7872,5.8201,5.8534,5.889,5.9099,5.9099,5.9099,5.8743,5.7998,5.8689,5.8055,5.5676,5.7131,5.7552,5.6736,5.7524,5.8331,5.9099,5.9099,5.9099,5.9099,5.9099,5.9099,5.9099,5.9099,5.9099,5.9099,5.9099,5.9099,5.9099,5.9099,5.8919,5.8653,5.8979,5.871,5.8112,4.7578,4.7997,4.8648,4.9187,4.8671,4.873,5.0435,5.005,4.9751,5.0406,5.0721,5.0662,5.0073,5.0229,5.0375,5.0375,5.0877,5.1206,5.1206,5.1206,5.1206,5.1206,5.1206,5.1206,5.1206,5.1206,5.1206,5.1206,5.0637,5.0375,5.0345,4.9853,4.9883,5.0368,4.9853,4.9912,5.0315,4.9468,4.8383,4.7014,4.5007,4.3411,4.2132,4.108,4.1492,4.2605,4.2829,4.3999,4.563,4.6655,4.6052,4.4784,4.4362,4.3684,4.3014,4.3014,4.3014,4.3014,4.3014,4.3065,4.3297,4.4004,4.5246,4.6429,4.6947,4.7324,4.8327,5.0792,5.1461,5.2176,5.4022,5.4461,5.491,5.6013,5.6372,5.6701,5.7184,5.7872,5.8264,5.8264,5.877,5.9099,5.9099,5.9099,5.9099,5.9099,5.9099,5.8386,5.6792,5.797,5.7244,5.4089,5.5502,5.6137,5.5765,5.6394,5.7326,5.8567,5.8931,5.9099,5.9099,5.9099,5.9099,5.9099,5.9099,5.9099,5.9099,5.9099,5.9099,5.9099,5.8979,5.859,5.8175,5.8713,5.8141,5.7124,4.8177,4.8708,4.9187,4.9277,4.8309,4.7787,4.8581,4.7625,4.7038,4.7677,4.8765,4.9426,4.9339,5.036,5.1056,5.1056,5.1146,5.1206,5.1206,5.1206,5.1206,5.1206,5.1206,5.1206,5.1206,5.1206,5.1206,5.1206,5.1116,5.1056,5.1056,5.0966,5.0966,5.1056,5.0966,5.0996,5.0956,4.9179,4.7656,4.624,4.3818,4.2031,4.0818,4.1281,4.2239,4.3495,4.4607,4.5445,4.6111,4.6212,4.5371,4.4309,4.4731,4.3994,4.3014,4.3014,4.3014,4.3014,4.3014,4.3341,4.4029,4.537,4.6601,4.8125,5.0703,5.0886,5.0792,5.1779,5.2926,5.4052,5.4914,5.5564,5.5983,5.6162,5.7124,5.7876,5.7935,5.8534,5.8979,5.8979,5.9039,5.9099,5.9099,5.9099,5.9099,5.9099,5.9099,5.8386,5.6792,5.6905,5.5561,5.2424,5.388,5.3842,5.1981,5.5133,5.656,5.6347,5.8201,5.9099,5.9099,5.9099,5.9099,5.9099,5.9099,5.9099,5.9099,5.9099,5.9099,5.9039,5.8444,5.8175,5.8115,5.8205,5.7752,5.7184,4.7704,4.8254,4.8694,4.8694,4.7898,4.7386,4.7597,4.7486,4.758,4.8254,4.9474,5.0311,5.0311,5.087,5.1206,5.1206,5.1206,5.1206,5.1206,5.1206,5.1206,5.1206,5.1206,5.1206,5.1206,5.1206,5.1206,5.1206,5.1206,5.1206,5.1176,5.0817,5.0847,5.1176,5.0451,5.0331,5.0538,4.8628,4.6817,4.5161,4.3327,4.1568,4.0179,4.1199,4.2374,4.3725,4.5256,4.5274,4.4581,4.4869,4.4309,4.3544,4.3802,4.3464,4.3014,4.3014,4.3014,4.3065,4.3363,4.4212,4.5358,4.6626,4.8572,5.0588,5.2234,5.3007,5.3482,5.3777,5.4323,5.485,5.5149,5.5743,5.6312,5.6671,5.7483,5.8234,5.862,5.8919,5.9099,5.9099,5.9099,5.9099,5.9099,5.9099,5.9099,5.9099,5.9099,5.7998,5.5531,5.6223,5.486,5.079,5.3096,5.3367,5.1205,5.3994,5.5134,5.4572,5.5852,5.7384,5.9099,5.9099,5.9099,5.9099,5.9099,5.9099,5.9099,5.9099,5.9099,5.9039,5.8354,5.8085,5.8055,5.7693,5.7363,5.7124]}]]